[[{"header":{"parameterUnit":"m.s-1","parameterCategory":1,"la1":30.6,"la2":28.766,"lo1":-90.7593,"lo2":-88.6598,"dy":0.0162,"dx":0.0183,"nx":116,"ny":114,"refTime":"2023-10-21T06:00:00:Z","depth":0,"parameterNumber":2,"parameterNumberName":"U-component_of_WINDS"},"data":[0.0,0.0,0.0,0.0,0.0,0.0,0.0,0.0,0.0,0.0,0.0,0.0,0.0,0.0,0.0,0.0,0.0,0.0,0.0,0.0,0.0,0.0,0.0,0.0,0.0,0.0,0.0,0.0,0.0,0.0,0.0,0.0,0.0,0.0,0.0,0.0,0.0,0.0,0.0,0.0,0.0,0.0,0.0,0.0,0.0,0.0,0.0,0.0,0.0,0.0,0.0,0.0,0.0,0.0,0.0,0.0,0.0,0.0,0.0,0.0,0.0,0.0,0.0,0.0,0.0,0.0,0.0,0.0,0.0,0.0,0.0,0.0,0.0,0.0,0.0,0.0,0.0,0.0,0.0,0.0,0.0,0.0,0.0,0.0,0.0,0.0,0.0,0.0,0.0,0.0,0.0,0.0,0.0,0.0,0.0,0.0,0.0,0.0,0.0,0.0,0.0,0.0,0.0,0.0,0.0,0.0,0.0,0.0,0.0,0.0,0.0,0.0,0.0,0.0,0.0,0.0,0.0,0.0,0.0,0.0,0.0,0.0,0.0,0.0,0.0,0.0,0.0,0.0,0.0,0.0,0.0,0.0,0.0,0.0,0.0,0.0,0.0,0.0,0.0,0.0,0.0,0.0,0.0,0.0,0.0,0.0,0.0,0.0,0.0,0.0,0.0,0.0,0.0,0.0,0.0,0.0,0.0,0.0,0.0,0.0,0.0,0.0,0.0,0.0,0.0,0.0,0.0,0.0,0.0,0.0,0.0,0.0,0.0,0.0,0.0,0.0,0.0,0.0,0.0,0.0,0.0,0.0,0.0,0.0,0.0,0.0,0.0,0.0,0.0,0.0,0.0,0.0,0.0,0.0,0.0,0.0,0.0,0.0,0.0,0.0,0.0,0.0,0.0,0.0,0.0,0.0,0.0,0.0,0.0,0.0,0.0,0.0,0.0,0.0,0.0,0.0,0.0,0.0,0.0,0.0,0.0,0.0,0.0,0.0,0.0,0.0,0.0,0.0,0.0,0.0,0.0,0.0,0.0,0.0,0.0,0.0,0.0,0.0,0.0,0.0,0.0,0.0,0.0,0.0,0.0,0.0,0.0,0.0,0.0,0.0,0.0,0.0,0.0,0.0,0.0,0.0,0.0,0.0,0.0,0.0,0.0,0.0,0.0,0.0,0.0,0.0,0.0,0.0,0.0,0.0,0.0,0.0,0.0,0.0,0.0,0.0,0.0,0.0,0.0,0.0,0.0,0.0,0.0,0.0,0.0,0.0,0.0,0.0,0.0,0.0,0.0,0.0,0.0,0.0,0.0,0.0,0.0,0.0,0.0,0.0,0.0,0.0,0.0,0.0,0.0,0.0,0.0,0.0,0.0,0.0,0.0,0.0,0.0,0.0,0.0,0.0,0.0,0.0,0.0,0.0,0.0,0.0,0.0,0.0,0.0,0.0,0.0,0.0,0.0,0.0,0.0,0.0,0.0,0.0,0.0,0.0,0.0,0.0,0.0,0.0,0.0,0.0,0.0,0.0,0.0,0.0,0.0,0.0,0.0,0.0,0.0,0.0,0.0,0.0,0.0,0.0,0.0,0.0,0.0,0.0,0.0,0.0,0.0,0.0,0.0,0.0,0.0,0.0,0.0,0.0,0.0,0.0,0.0,0.0,0.0,0.0,0.0,0.0,0.0,0.0,0.0,0.0,0.0,0.0,0.0,0.0,0.0,0.0,0.0,0.0,0.0,0.0,0.0,0.0,0.0,0.0,0.0,0.0,0.0,0.0,0.0,0.0,0.0,0.0,0.0,0.0,0.0,0.0,0.0,0.0,0.0,0.0,0.0,0.0,0.0,0.0,0.0,0.0,0.0,0.0,0.0,0.0,0.0,0.0,0.0,0.0,0.0,0.0,0.0,0.0,0.0,0.0,0.0,0.0,0.0,0.0,0.0,0.0,0.0,0.0,0.0,0.0,0.0,0.0,0.0,0.0,0.0,0.0,0.0,0.0,0.0,0.0,0.0,0.0,0.0,0.0,0.0,0.0,0.0,0.0,0.0,0.0,0.0,0.0,0.0,0.0,0.0,0.0,0.0,0.0,0.0,0.0,0.0,0.0,0.0,0.0,0.0,0.0,0.0,0.0,0.0,0.0,0.0,0.0,0.0,0.0,0.0,0.0,0.0,0.0,0.0,0.0,0.0,0.0,0.0,0.0,0.0,0.0,0.0,0.0,0.0,0.0,0.0,0.0,0.0,0.0,0.0,0.0,0.0,0.0,0.0,0.0,0.0,0.0,0.0,0.0,0.0,0.0,0.0,0.0,0.0,0.0,0.0,0.0,0.0,0.0,0.0,0.0,0.0,0.0,0.0,0.0,0.0,0.0,0.0,0.0,0.0,0.0,0.0,0.0,0.0,0.0,0.0,0.0,0.0,0.0,0.0,0.0,0.0,0.0,0.0,0.0,0.0,0.0,0.0,0.0,0.0,0.0,0.0,0.0,0.0,0.0,0.0,0.0,0.0,0.0,0.0,0.0,0.0,0.0,0.0,0.0,0.0,0.0,0.0,0.0,0.0,0.0,0.0,0.0,0.0,0.0,0.0,0.0,0.0,0.0,0.0,0.0,0.0,0.0,0.0,0.0,0.0,0.0,0.0,0.0,0.0,0.0,0.0,0.0,0.0,0.0,0.0,0.0,0.0,0.0,0.0,0.0,0.0,0.0,0.0,0.0,0.0,0.0,0.0,0.0,0.0,0.0,0.0,0.0,0.0,0.0,0.0,0.0,0.0,0.0,0.0,0.0,0.0,0.0,0.0,0.0,0.0,0.0,0.0,0.0,0.0,0.0,0.0,0.0,0.0,0.0,0.0,0.0,0.0,0.0,0.0,0.0,0.0,0.0,0.0,0.0,0.0,0.0,0.0,0.0,0.0,0.0,0.0,0.0,0.0,0.0,0.0,0.0,0.0,0.0,0.0,0.0,0.0,0.0,0.0,0.0,0.0,0.0,0.0,0.0,0.0,0.0,0.0,0.0,0.0,0.0,0.0,0.0,0.0,0.0,0.0,0.0,0.0,0.0,0.0,0.0,0.0,0.0,0.0,0.0,0.0,0.0,0.0,0.0,0.0,0.0,0.0,0.0,0.0,0.0,0.0,0.0,0.0,0.0,0.0,0.0,0.0,0.0,0.0,0.0,0.0,0.0,0.0,0.0,0.0,0.0,0.0,0.0,0.0,0.0,0.0,0.0,0.0,0.0,0.0,0.0,0.0,0.0,0.0,0.0,0.0,0.0,0.0,0.0,0.0,0.0,0.0,0.0,0.0,0.0,0.0,0.0,0.0,0.0,0.0,0.0,0.0,0.0,0.0,0.0,0.0,0.0,0.0,0.0,0.0,0.0,0.0,0.0,0.0,0.0,0.0,0.0,0.0,0.0,0.0,0.0,0.0,0.0,0.0,0.0,0.0,0.0,0.0,0.0,0.0,0.0,0.0,0.0,0.0,0.0,0.0,0.0,0.0,0.0,0.0,0.0,0.0,0.0,0.0,0.0,0.0,0.0,0.0,0.0,0.0,0.0,0.0,0.0,0.0,0.0,0.0,0.0,0.0,0.0,0.0,0.0,0.0,0.0,0.0,0.0,0.0,0.0,0.0,0.0,0.0,0.0,0.0,0.0,0.0,0.0,0.0,0.0,0.0,0.0,0.0,0.0,0.0,0.0,0.0,0.0,0.0,0.0,0.0,0.0,0.0,0.0,0.0,0.0,0.0,0.0,0.0,0.0,0.0,0.0,0.0,0.0,0.0,0.0,0.0,0.0,0.0,0.0,0.0,0.0,0.0,0.0,0.0,0.0,0.0,0.0,0.0,0.0,0.0,0.0,0.0,0.0,0.0,0.0,0.0,0.0,0.0,0.0,0.0,0.0,0.0,0.0,0.0,0.0,0.0,0.0,0.0,0.0,0.0,0.0,0.0,0.0,0.0,0.0,0.0,0.0,0.0,0.0,0.0,0.0,0.0,0.0,0.0,0.0,0.0,0.0,0.0,0.0,0.0,0.0,0.0,0.0,0.0,0.0,0.0,0.0,0.0,0.0,0.0,0.0,0.0,0.0,0.0,0.0,0.0,0.0,0.0,0.0,0.0,0.0,0.0,0.0,0.0,0.0,0.0,0.0,0.0,0.0,0.0,0.0,0.0,0.0,0.0,0.0,0.0,0.0,0.0,0.0,0.0,0.0,0.0,0.0,0.0,0.0,0.0,0.0,0.0,0.0,0.0,0.0,0.0,0.0,0.0,0.0,0.0,0.0,0.0,0.0,0.0,0.0,0.0,0.0,0.0,0.0,0.0,0.0,0.0,0.0,0.0,0.0,0.0,0.0,0.0,0.0,0.0,0.0,0.0,0.0,0.0,0.0,0.0,0.0,0.0,0.0,0.0,0.0,0.0,0.0,0.0,0.0,0.0,0.0,0.0,0.0,0.0,0.0,0.0,0.0,0.0,0.0,0.0,0.0,0.0,0.0,0.0,0.0,0.0,0.0,0.0,0.0,0.0,0.0,0.0,0.0,0.0,0.0,0.0,0.0,0.0,0.0,0.0,0.0,0.0,0.0,0.0,0.0,0.0,0.0,0.0,0.0,0.0,0.0,0.0,0.0,0.0,0.0,0.0,0.0,0.0,0.0,0.0,0.0,0.0,0.0,0.0,0.0,0.0,0.0,0.0,0.0,0.0,0.0,0.0,0.0,0.0,0.0,0.0,0.0,0.0,0.0,0.0,0.0,0.0,0.0,0.0,0.0,0.0,0.0,0.0,0.0,0.0,0.0,0.0,0.0,0.0,0.0,0.0,0.0,0.0,0.0,0.0,0.0,0.0,0.0,0.0,0.0,0.0,0.0,0.0,0.0,0.0,0.0,0.0,0.0,0.0,0.0,0.0,0.0,0.0,0.0,0.0,0.0,0.0,0.0,0.0,0.0,0.0,0.0,0.0,0.0,0.0,0.0,0.0,0.0,0.0,0.0,0.0,0.0,0.0,0.0,0.0,0.0,0.0,0.0,0.0,0.0,0.0,0.0,0.0,0.0,0.0,0.0,0.0,0.0,0.0,0.0,0.0,0.0,0.0,0.0,0.0,0.0,0.0,0.0,0.0,0.0,0.0,0.0,0.0,0.0,0.0,0.0,0.0,0.0,0.0,0.0,0.0,0.0,0.0,0.0,0.0,0.0,0.0,0.0,0.0,0.0,0.0,0.0,0.0,0.0,0.0,0.0,0.0,0.0,0.0,0.0,0.0,0.0,0.0,0.0,0.0,0.0,0.0,0.0,0.0,0.0,0.0,0.0,0.0,0.0,0.0,0.0,0.0,0.0,0.0,0.0,0.0,0.0,0.0,0.0,0.0,0.0,0.0,0.0,0.0,0.0,0.0,0.0,0.0,0.0,0.0,0.0,0.0,0.0,0.0,0.0,0.0,0.0,0.0,0.0,0.0,0.0,0.0,0.0,0.0,0.0,0.0,0.0,0.0,0.0,0.0,0.0,0.0,0.0,0.0,0.0,0.0,0.0,0.0,0.0,0.0,0.0,0.0,0.0,0.0,0.0,0.0,0.0,0.0,0.0,0.0,0.0,0.0,0.0,0.0,0.0,0.0,0.0,0.0,0.0,0.0,0.0,0.0,0.0,0.0,0.0,0.0,0.0,0.0,0.0,0.0,0.0,0.0,0.0,0.0,0.0,0.0,0.0,0.0,0.0,0.0,0.0,0.0,0.0,0.0,0.0,0.0,0.0,0.0,0.0,0.0,0.0,0.0,0.0,0.0,0.0,0.0,0.0,0.0,0.0,0.0,0.0,0.0,0.0,0.0,0.0,0.0,0.0,0.0,0.0,0.0,0.0,0.0,0.0,0.0,0.0,0.0,0.0,0.0,0.0,0.0,0.0,0.0,0.0,0.0,0.0,0.0,0.0,0.0,0.0,0.0,0.0,0.0,0.0,0.0,0.0,0.0,0.0,0.0,0.0,0.0,0.0,0.0,0.0,0.0,0.0,0.0,0.0,0.0,0.0,0.0,0.0,0.0,0.0,0.0,0.0,0.0,0.0,0.0,0.0,0.0,0.0,0.0,0.0,0.0,0.0,0.0,0.0,0.0,0.0,1.022,0.8627,0.0,0.0,0.0,0.0,0.0,0.0,0.0,0.0,0.0,0.0,0.0,0.0,0.0,0.0,0.0,0.0,0.0,0.0,0.0,0.0,0.0,0.0,0.0,0.0,0.0,0.0,0.0,0.0,0.0,0.0,0.0,0.0,0.0,0.0,0.0,0.0,0.0,0.0,0.0,0.0,0.0,0.0,0.0,0.0,0.0,0.0,0.0,0.0,0.0,0.0,0.0,0.0,0.0,0.0,0.0,0.0,0.0,0.0,0.0,0.0,0.0,0.0,0.0,0.0,0.0,0.0,0.0,0.0,0.0,0.0,0.0,0.0,0.0,0.0,0.0,0.0,0.0,0.0,0.0,0.0,0.0,0.0,0.0,0.0,0.0,0.0,0.0,0.0,0.0,0.0,0.0,0.0,0.0,0.0,0.0,0.0,0.0,0.0,0.0,0.0,0.0,0.0,0.0,0.0,0.0,0.0,0.0,0.0,0.0,0.0,0.0,0.0,0.0,0.0,1.1862,1.0893,0.0,0.0,0.0,0.0,0.0,0.0,0.0,0.0,0.0,0.0,0.0,0.0,0.0,0.0,0.0,0.0,0.0,0.0,0.0,0.0,0.0,0.0,0.0,0.0,0.0,0.0,0.0,0.0,0.0,0.0,0.0,0.0,0.0,0.0,0.0,0.0,0.0,0.0,0.0,0.0,0.0,0.0,0.0,0.0,0.0,0.0,0.0,0.0,0.0,0.0,0.0,0.0,0.0,0.0,0.0,0.0,0.0,0.0,0.0,0.0,0.0,0.0,0.0,0.0,0.0,0.0,0.0,0.0,0.0,0.0,0.0,0.0,0.0,0.0,0.0,0.0,0.0,0.0,0.0,0.0,0.0,0.0,0.0,0.0,0.0,0.0,0.0,0.0,0.0,0.0,0.0,0.0,0.0,0.0,0.0,0.0,0.0,0.0,0.0,0.0,0.0,0.0,0.0,0.0,0.0,0.0,0.0,0.0,1.3623,1.3816,1.4004,1.4242,1.428,1.4037,1.3837,1.3723,1.3532,1.1589,0.0,0.0,0.0,0.0,0.0,0.0,0.0,0.0,0.0,0.0,0.0,0.0,0.0,0.0,0.0,0.0,0.0,0.0,0.0,0.0,0.0,0.0,0.0,0.0,0.0,0.0,0.0,0.0,0.0,0.0,0.0,0.0,0.0,0.0,0.0,0.0,0.0,0.0,0.0,0.0,0.0,0.0,0.0,0.0,0.0,0.0,0.0,0.0,0.0,0.0,0.0,0.0,0.0,0.0,0.0,0.0,0.0,0.0,0.0,0.0,0.0,0.0,0.0,0.0,0.0,0.0,0.0,0.0,0.0,0.0,0.0,0.0,0.0,0.0,0.0,0.0,0.0,0.0,0.0,0.0,0.0,0.0,0.0,0.0,0.0,0.0,0.9388,1.0325,0.0,0.0,0.0,0.0,0.0,0.0,0.0,0.0,0.0,0.0,0.0,0.0,0.0,1.3456,1.4334,1.537,1.603,1.6202,1.6746,1.6711,1.6242,1.6592,1.6737,1.6649,1.5948,0.0,1.4545,1.31,0.0,0.0,0.0,0.0,0.0,0.0,0.0,0.0,0.0,0.0,0.0,0.0,0.0,0.0,0.0,0.0,0.0,0.0,0.0,0.0,0.0,0.0,0.0,0.0,0.0,0.0,0.0,0.0,0.0,0.0,0.0,0.0,0.0,0.0,0.0,0.0,0.0,0.0,0.0,0.0,0.0,0.0,0.0,0.0,1.1631,1.1209,0.0,0.0,0.0,0.0,0.0,0.0,0.0,0.0,0.0,0.0,0.0,0.0,0.0,0.0,0.0,0.0,0.0,0.0,0.0,0.0,0.0,0.0,0.0,0.0,0.0,0.0,0.0,0.0,0.0,0.0,0.0,0.0,0.0,0.0,0.0,0.0,0.0,0.0,0.0,0.9086,1.0719,1.087,1.1223,1.1453,0.0,0.0,0.0,0.0,0.0,0.0,0.0,0.0,0.0,1.4371,1.521,1.5905,1.6434,1.7265,1.7714,1.7956,1.821,1.829,1.821,1.8343,1.8397,1.8397,1.8066,1.7642,1.695,1.5293,1.4484,1.4064,0.0,0.0,0.0,0.0,0.9033,0.919,0.0,0.0,0.0,0.0,0.0,0.0,0.0,0.0,0.0,0.0,0.0,0.0,0.0,0.0,0.0,0.5499,0.0,0.0,0.0,0.0,0.0,0.0,0.0,0.0,0.0,0.0,0.0,0.0,0.0,0.0,0.0,0.0,0.0,0.0,0.0,0.0,0.0,1.2302,1.1375,0.0,0.0,0.0,0.0,0.0,0.0,0.0,0.0,0.0,0.0,0.0,0.0,0.0,0.0,0.0,0.0,0.0,0.0,0.0,0.0,0.0,0.0,0.0,0.0,0.0,0.0,0.0,0.0,0.0,0.0,0.0,0.0,0.0,0.0,0.0,0.0,0.0,0.0,0.9746,1.1551,1.1415,1.2228,1.2781,0.0,0.0,0.0,0.0,0.0,0.0,1.4878,1.5188,1.5804,1.6724,1.7463,1.7981,1.8143,1.8677,1.9052,1.9252,1.9252,1.9372,1.9586,1.9586,1.9586,1.9586,1.9586,1.9466,1.9057,1.7334,1.6251,1.5456,1.474,1.3568,1.2406,1.1984,1.1854,1.1905,0.0,0.0,0.0,0.0,0.0,0.0,0.0,0.0,0.0,0.0,0.0,0.0,0.0,0.0,0.7677,0.8734,0.8398,0.756,0.0,0.0,0.0,0.0,0.0,0.0,0.0,0.0,0.0,0.0,0.0,0.0,0.0,0.0,0.0,0.0,0.0,0.0,0.0,0.0,1.2286,1.1141,0.0,0.0,0.0,0.0,0.0,0.0,0.0,0.0,0.0,0.0,0.0,0.0,0.0,0.0,0.0,0.0,0.0,0.0,0.0,0.0,0.0,0.0,0.0,0.0,0.0,0.0,0.0,0.0,0.0,0.0,0.0,0.0,0.0,0.0,0.0,0.0,0.0,0.0,0.0,1.2273,1.4063,0.0,0.0,0.0,0.0,1.4615,1.5164,1.6062,1.7395,1.7767,1.8118,1.8784,1.9105,1.9412,1.9693,1.9987,2.0147,2.016,2.016,2.0174,2.0187,2.0187,2.0187,2.0187,2.0187,2.0187,2.008,1.8905,1.8114,1.7701,1.6355,1.579,1.5634,1.5269,1.5339,1.5731,0.0,0.0,0.0,0.0,0.0,0.0,0.0,0.0,0.0,0.0,0.0,0.0,0.0,0.7932,0.9813,1.0609,1.1621,1.1462,0.9712,0.0,0.0,0.0,0.0,0.0,0.0,0.0,0.0,0.0,0.0,0.0,0.0,0.0,0.0,0.0,0.0,0.0,0.0,0.0,1.384,1.2575,1.1316,0.9819,0.0,0.0,0.0,0.0,0.0,0.0,0.0,0.0,0.0,0.0,0.0,0.0,0.0,0.0,0.0,0.0,0.0,0.0,0.0,0.0,0.0,0.0,0.0,0.0,0.0,0.0,0.0,0.0,0.0,0.0,0.0,0.0,0.0,0.0,0.0,0.0,0.0,1.3684,1.5417,0.0,1.6113,1.5619,1.5632,1.6586,1.6795,1.749,1.8677,1.8818,1.9322,2.0307,2.0428,2.0628,2.0922,2.1029,2.1082,2.1082,2.1082,2.1176,2.1363,2.1363,2.1256,2.1082,2.1082,2.0975,2.0637,1.9098,1.8695,1.8865,1.8104,1.7687,1.752,1.7418,1.7559,1.7862,0.0,0.0,0.0,0.0,0.0,0.0,0.0,0.0,0.0,0.0,0.0,0.5642,0.6697,0.9781,1.2133,1.2801,1.3822,1.3392,1.0897,0.0,0.0,0.0,0.0,0.0,0.0,0.0,0.0,0.0,0.0,0.0,0.0,0.0,0.0,0.0,0.0,0.0,0.0,0.0,0.0,1.4002,1.2875,1.1155,0.911,0.0,0.0,0.0,0.0,0.0,0.0,0.0,0.0,0.0,0.0,0.0,0.0,0.0,0.0,0.0,0.0,0.0,0.0,0.0,0.0,0.0,0.0,0.0,0.0,0.0,0.0,0.0,0.0,0.0,0.0,0.0,0.0,0.0,0.0,1.2115,1.4122,1.4908,1.658,1.7725,1.7663,1.7149,1.7265,1.8155,1.8361,1.8905,1.9907,2.0054,2.0508,2.1376,2.1403,2.1456,2.155,2.1111,2.072,2.063,2.0055,1.9915,2.0086,2.0086,1.9989,1.9817,1.9732,1.9585,1.9285,1.815,1.785,1.8203,1.8538,1.8493,1.825,1.8849,1.9199,1.9216,0.0,0.0,0.0,0.0,0.0,0.0,0.0,0.0,0.0,0.0,0.4693,0.7266,0.8898,1.2067,1.4369,1.5245,1.4767,1.3062,0.9754,0.941,0.0,0.0,0.0,0.0,0.0,0.0,0.0,0.0,0.0,0.0,0.0,0.0,0.0,0.0,0.0,0.0,0.0,0.0,0.0,1.5325,1.4138,1.2358,1.0335,0.0,0.0,0.0,0.0,0.0,0.0,0.0,0.0,0.0,0.0,0.0,0.0,0.0,0.0,0.0,0.0,0.0,0.0,0.0,0.0,0.0,0.0,0.0,0.0,0.0,0.0,0.0,0.0,0.0,0.0,0.0,0.0,0.0,1.0974,1.3552,1.5457,1.6006,1.7715,1.8878,1.8597,1.8824,1.9105,1.9399,1.9947,2.0521,2.1096,2.1403,2.1697,2.1991,2.2004,2.1857,2.1577,1.9976,1.9037,1.8661,1.716,1.6456,1.6456,1.6456,1.6456,1.6435,1.6235,1.6135,1.6105,1.5894,1.5804,1.6033,1.7472,1.7859,1.776,1.9389,2.0011,1.9755,0.0,0.0,0.0,0.0,0.0,0.0,0.0,0.0,0.0,0.0,0.48,0.7436,0.914,1.1535,1.3379,1.4276,1.3598,1.2829,1.2181,0.0,0.0,0.0,0.0,0.0,0.0,0.0,0.0,0.0,0.0,0.0,0.0,0.0,0.0,0.0,0.0,0.0,0.0,0.0,0.0,1.5907,1.5828,1.4903,1.3448,0.0,0.0,0.0,0.0,0.0,0.0,0.0,0.0,0.0,0.0,0.0,0.0,0.0,0.0,0.0,0.0,0.0,0.0,0.0,0.0,0.0,0.0,0.0,0.0,0.0,0.0,0.0,0.0,0.0,0.0,0.0,0.9298,1.1692,1.3543,1.5494,1.7154,1.8529,1.9801,2.0481,2.0401,2.0454,2.0535,2.0628,2.0975,2.1256,2.143,2.171,2.2004,2.2285,2.2298,2.1577,2.0136,1.9669,1.8699,1.7266,1.6919,1.6766,1.6927,1.6927,1.6837,1.6666,1.6616,1.6405,1.5992,1.4888,1.4308,1.4298,1.5913,1.6434,1.6371,1.6881,1.691,1.6757,0.0,0.0,0.0,0.0,0.0,0.0,0.0,0.0,0.0,0.0,0.4924,0.7188,0.8765,1.0864,1.2293,1.2811,1.1882,1.0921,1.0028,0.0,0.0,0.0,0.0,0.0,0.0,0.0,0.0,0.0,0.0,0.0,0.0,0.0,0.0,0.0,0.0,0.0,0.0,0.0,1.4727,1.5682,1.5946,1.5829,1.5464,1.4981,1.3823,1.2575,1.24,1.1933,1.1168,0.929,0.0,0.0,0.0,0.0,0.0,0.0,0.0,0.0,0.0,0.0,0.0,0.0,0.0,0.0,0.0,0.0,0.0,0.0,0.0,0.0,0.0,0.0,0.0,0.0,0.9689,1.224,1.4538,1.5591,1.6901,1.901,1.9108,1.9322,2.0118,1.956,1.9443,2.0118,2.0501,2.0585,2.0699,2.0851,2.0847,2.0395,2.0407,1.9795,1.8578,1.7844,1.6957,1.5672,1.492,1.4753,1.4867,1.4945,1.4867,1.4684,1.4684,1.438,1.4104,1.3054,1.2596,1.264,0.0,0.0,0.0,0.0,1.5316,1.4576,0.0,0.0,0.0,0.0,0.0,0.0,0.0,0.0,0.0,0.0,0.0,0.6572,0.7939,0.9911,1.115,1.1018,0.9894,0.8066,0.0,0.0,0.0,0.0,0.0,0.0,0.0,0.0,0.0,0.0,0.0,0.0,0.0,0.0,0.0,0.0,0.0,0.0,0.0,0.0,1.4553,1.4785,1.4789,1.5311,1.6199,1.6306,1.5463,1.4178,1.434,1.3025,1.1129,1.0504,0.0,0.0,0.0,0.0,0.0,0.0,0.0,0.0,0.0,0.0,0.0,0.0,0.0,0.0,0.0,0.0,0.0,0.0,0.0,0.0,0.0,0.0,0.0,0.0,0.9727,1.1837,1.4088,1.4222,1.5212,1.7988,1.6954,1.6817,1.8542,1.7262,1.7026,1.8553,1.8916,1.9036,1.9278,1.9324,0.0,0.0,0.0,1.7225,1.6754,1.5381,1.4441,1.3833,1.2309,1.1667,1.1674,1.1796,1.1789,1.1667,1.1667,1.1586,1.143,1.1314,1.1267,1.1392,1.2956,1.3374,1.3344,1.4866,1.4399,1.3095,0.0,0.0,0.0,0.0,0.0,0.0,0.0,0.0,0.0,0.2669,0.4299,0.5892,0.7482,0.8416,0.915,0.9524,0.7918,0.6254,0.0,0.0,0.0,0.0,0.0,0.0,0.0,0.0,0.0,0.0,0.0,0.0,0.0,0.0,0.0,0.0,0.0,0.0,0.0,0.0,1.1988,1.3126,1.3438,1.4062,1.4966,1.4966,1.4508,1.381,1.3882,1.3818,1.3526,1.1458,1.0647,1.0119,0.7902,0.0,0.0,0.0,0.0,0.0,0.0,0.0,0.0,0.0,0.0,0.0,0.0,0.0,0.0,0.0,0.0,0.0,0.0,0.0,0.0,0.8258,1.0354,1.1846,1.1659,1.1821,1.3116,1.6429,1.649,1.651,1.6913,1.655,1.656,1.6913,1.712,1.7348,1.7446,1.7772,1.7857,1.7689,1.7699,1.6952,1.531,1.5061,1.4024,1.2514,1.2107,0.0,1.1979,1.2006,1.1999,1.1979,1.1979,1.1891,1.1755,1.185,1.1891,1.1837,1.1769,1.1689,1.1646,1.1752,1.1701,1.1418,0.0,0.0,0.0,0.0,0.0,0.0,0.0,0.0,0.0,0.0,0.2494,0.361,0.4784,0.5345,0.5719,0.5783,0.4762,0.0,0.0,0.0,0.0,0.0,0.0,0.0,0.0,0.0,0.0,0.0,0.0,0.0,0.0,0.0,0.0,0.0,0.0,0.0,0.0,1.05,1.1012,1.1645,1.182,1.2145,1.2783,1.4547,1.5037,1.4848,1.4765,1.4328,1.3651,1.2368,1.1338,1.0394,0.8904,0.7621,0.6379,0.0,0.0,0.0,0.0,0.0,0.0,0.0,0.0,0.0,0.0,0.0,0.0,0.0,0.0,0.6174,0.0,0.0,0.8715,0.8717,1.0412,1.1643,1.1226,1.1409,1.2448,1.5126,1.4571,1.4475,1.5402,1.4797,1.4673,1.542,1.5735,1.5882,1.5993,1.6094,1.5802,1.4985,1.5069,1.4667,1.3771,1.3702,1.3217,1.2176,1.2176,1.2135,1.206,1.2142,1.2135,1.2067,1.2142,1.2088,1.1952,1.2033,1.206,1.2033,1.1728,1.1525,1.1362,1.1138,1.1056,1.1043,0.0,0.0,0.0,0.0,0.0,0.0,0.0,0.0,0.0,0.0,0.0,0.1324,0.206,0.2498,0.2596,0.0,0.0,0.0,0.0,0.0,0.0,0.0,0.0,0.0,0.0,0.0,0.0,0.0,0.0,0.0,0.0,0.0,0.0,0.0,0.0,0.0,1.0717,1.0717,1.0717,1.0717,1.0717,1.0717,1.0982,1.384,1.4874,1.4884,1.4903,1.3784,1.2234,1.2381,1.1125,0.9499,0.953,0.8851,0.7842,0.623,0.5455,0.0,0.0,0.0,0.0,0.0,0.0,0.0,0.0,0.0,0.7376,0.7642,0.7775,0.7733,0.7454,0.8256,0.8939,0.9303,1.0404,1.1389,1.1667,1.1803,1.2422,1.3754,1.2576,1.2322,1.4035,1.2867,1.2748,1.4059,1.4326,1.4416,1.4448,1.4456,1.3814,1.2372,1.2488,1.2562,1.2589,1.2712,1.2657,1.242,1.242,1.2359,1.2237,1.2366,1.2352,1.2244,1.2366,1.2332,1.2189,1.2189,1.2176,1.2142,1.2115,1.1959,1.1708,1.1375,1.1233,1.1206,0.0,0.0,0.0,0.0,0.0,0.0,0.0,0.0,0.0,0.0,0.0,0.0,0.0,0.0,0.0,0.0,0.0,0.0,0.0,0.0,0.0,0.0,0.0,0.0,0.0,0.0,0.0,0.0,0.0,0.0,0.0,0.0,0.0,0.0,0.0,0.0,1.0717,1.0717,1.0717,1.0717,1.0717,1.0717,1.0717,1.1108,1.124,1.1226,1.1091,1.0376,0.9419,1.0032,0.9625,0.8803,0.9499,0.9098,0.8313,0.7545,0.0,0.523,0.3632,0.3104,0.3335,0.4311,0.5349,0.6497,0.0,0.0,0.9226,0.9462,0.952,0.966,0.9883,1.0293,1.0677,1.1121,1.1422,1.1816,1.1986,1.2026,1.223,1.2498,1.2244,1.2168,1.2331,1.2196,1.2203,1.2331,1.2345,1.2414,1.2553,1.256,1.2539,1.2671,1.2698,1.2773,1.2908,1.2929,1.2922,1.2888,1.2888,1.2874,1.2861,1.2881,1.2874,1.2861,1.2881,1.28,1.2657,1.2657,1.2576,1.244,1.2311,1.2244,1.2162,1.1728,1.1484,1.1348,0.0,0.0,0.0,0.0,0.0,0.0,0.0,0.0,0.0,0.0,0.0,0.0,0.0,0.0,0.0,0.0,0.0,0.0,0.0,0.0,0.0,0.0,0.0,0.0,0.0,0.0,0.0,0.0,0.0,0.0,0.0,0.0,0.0,0.0,0.0,1.0853,1.086,1.0941,1.0975,1.0975,1.0975,1.0928,1.0846,1.0751,1.0555,1.0183,0.9658,0.9186,0.0,0.0,0.8623,0.8427,0.9182,0.9312,0.8838,0.7725,0.7528,0.0,0.5235,0.5369,0.619,0.0,0.747,0.8273,0.9202,0.9613,0.9877,1.0114,1.0419,1.0697,1.1002,1.128,1.1531,0.0,1.1959,1.2121,1.2189,1.2196,1.2182,1.2162,1.2101,1.2128,1.2298,1.2318,1.2318,1.2318,1.2318,1.2345,1.2413,1.2494,1.2603,1.2725,1.2895,1.3017,1.3085,1.3173,1.3173,1.3085,1.3085,1.3044,1.2963,1.2963,1.2963,1.2963,1.2963,1.2922,1.2868,1.2868,1.2827,1.2752,1.2603,1.2488,1.2372,1.2013,1.1837,1.1775,0.0,0.0,0.0,0.0,0.0,0.0,0.0,0.0,0.0,0.0,0.0,0.0,0.0,0.0,0.0,0.0,0.0,0.0,0.0,0.0,0.0,0.0,0.0,0.0,0.0,0.0,0.0,0.0,0.0,0.0,0.0,0.0,0.0,0.0,1.09,1.0968,1.1016,1.1118,1.1165,1.1158,1.1118,1.1016,1.0853,1.0575,1.0222,0.9863,0.8896,0.8295,0.0,0.0,0.7133,0.7169,0.8221,0.8461,0.8177,0.6986,0.6831,0.7,0.6709,0.6985,0.0,0.8598,0.9166,0.9418,0.9734,1.0114,1.0432,1.069,1.1036,1.1341,1.1525,1.1674,1.1809,1.1925,1.2101,1.223,1.223,1.223,1.2169,1.202,1.1925,1.1979,1.2237,1.2372,1.244,1.244,1.2481,1.2501,1.2501,1.261,1.2705,1.2793,1.3003,1.3152,1.3234,1.339,1.341,1.3302,1.3302,1.3247,1.3146,1.3146,1.3125,1.3085,1.3125,1.3098,1.3017,1.3017,1.2996,1.2949,1.284,1.2725,1.2603,1.2386,1.2203,1.206,0.0,0.0,0.0,0.0,0.0,0.0,0.0,0.0,0.0,0.0,0.0,0.0,0.0,0.0,0.0,0.0,0.0,0.0,0.0,0.0,0.0,0.0,0.0,0.0,0.0,0.0,0.0,0.0,0.0,0.0,0.0,0.0,0.0,1.0941,1.0948,1.1023,1.1158,1.1158,1.1165,1.1151,1.1009,1.0867,1.0663,1.0073,0.9926,0.9916,0.858,0.0,0.0,0.0,0.4873,0.4496,0.623,0.6273,0.0,0.5121,0.3759,0.3367,0.7644,0.0,0.5395,0.8872,0.9729,0.991,1.0365,1.0812,1.1172,1.1328,1.1491,1.1565,1.1423,1.1525,1.1626,1.1633,1.1877,1.2067,1.2067,1.2067,1.2013,1.1857,1.1586,1.1477,1.1633,1.204,1.2298,1.2298,1.2427,1.2501,1.2501,1.2508,1.2644,1.2942,1.2963,1.3105,1.339,1.3546,1.362,1.3614,1.3614,1.3614,1.3607,1.3607,1.3526,1.3397,1.3546,1.3444,1.3166,1.3166,1.3085,1.2963,1.2956,1.2949,1.2942,1.2935,1.2562,1.206,0.0,0.0,0.0,0.0,0.0,0.0,0.0,0.0,0.0,0.0,0.0,0.0,0.0,0.0,0.0,0.0,0.0,0.0,0.0,0.0,0.0,0.0,0.0,0.0,0.0,0.0,0.0,0.0,0.0,0.0,0.0,0.0,0.0,1.0799,1.09,1.1029,1.1165,1.1165,1.1219,1.128,1.0934,1.085,1.0795,1.0176,0.9757,0.8933,0.0,0.0,0.0,0.0,0.0,0.2839,0.4589,0.4862,0.4839,0.6517,0.679,0.6937,0.8364,0.0,0.8329,0.9648,1.0184,1.0561,1.1111,1.1355,1.1484,1.1531,1.042,0.9456,0.9271,0.8331,0.7936,0.938,0.9786,1.0492,1.1884,1.2149,1.2047,1.1592,1.1538,1.1443,1.1199,1.1491,1.1816,1.2115,1.2182,1.2298,1.2488,1.2698,1.2854,1.2956,1.3152,1.3349,1.3553,1.36,1.3675,1.377,1.3675,1.3573,1.3485,1.3587,1.36,1.3559,1.3709,1.3654,1.3485,1.358,1.3471,1.3261,1.3363,1.3342,1.3254,1.3254,1.3057,1.2786,0.0,0.0,0.0,0.0,0.0,0.0,0.0,0.0,0.0,0.0,0.0,0.0,0.0,0.0,0.0,0.0,0.0,0.0,0.0,0.0,0.0,0.0,0.0,0.0,0.0,0.0,0.0,0.0,0.0,0.0,0.0,0.0,0.0,1.0548,1.0507,1.069,1.1063,1.096,1.0483,0.9781,0.9287,0.904,0.8652,0.8396,0.7889,0.0,0.0,0.0,0.0,0.0,0.0,0.2016,0.3578,0.3517,0.3277,0.5709,0.6701,0.7339,0.8786,0.9126,0.9274,1.0096,1.067,1.1077,1.1518,1.1619,1.1429,1.0549,0.9388,0.8113,0.7148,0.6362,0.637,0.8011,0.9115,1.0131,1.1623,1.1904,1.1864,1.1579,1.1545,1.1443,1.1212,1.1362,1.1592,1.1884,1.2101,1.2298,1.2488,1.2739,1.2929,1.303,1.322,1.3417,1.3627,1.3682,1.3777,1.3926,1.3831,1.3709,1.3559,1.3715,1.3756,1.3709,1.3858,1.3838,1.3709,1.3804,1.3729,1.3566,1.3668,1.3648,1.3559,1.3559,1.3498,1.3376,0.0,0.0,0.0,0.0,0.0,0.0,0.0,0.0,0.0,0.0,0.0,0.0,0.0,0.0,0.0,0.0,0.0,0.0,0.0,0.0,0.0,0.0,0.0,0.0,0.3173,0.2997,0.2991,0.3267,0.0,0.0,0.0,0.0,0.9352,0.9761,0.9493,0.9731,1.0263,1.0246,0.8878,0.6584,0.6363,0.5582,0.4485,0.4802,0.0,0.0,0.0,0.0,0.0,0.0,0.0,0.0,0.3243,0.243,0.1356,0.339,0.3932,0.4786,0.8997,0.9156,0.8557,1.0417,1.1179,1.143,1.1579,1.1449,1.0735,0.8654,0.8018,0.7208,0.0,0.0,0.667,0.7292,0.9359,1.1056,1.1355,1.1443,1.1552,0.0,0.0,0.0,0.0,0.0,1.166,1.1653,1.2176,1.2501,1.2522,1.2671,1.2881,1.3166,1.3186,1.3342,1.3634,1.379,1.3933,1.4075,1.4075,1.3987,1.3844,1.4,1.3994,1.3865,1.4014,1.3994,1.3851,1.3858,1.3858,1.3844,1.3858,1.3858,1.3851,1.3865,1.3858,1.379,0.0,0.0,0.0,0.0,0.0,0.0,0.0,0.0,0.0,0.0,0.0,0.0,0.0,0.0,0.0,0.0,0.0,0.0,0.0,0.0,0.0,0.0,0.0,0.0,0.0,0.2512,0.279,0.3111,0.0,0.3804,0.0,0.0,0.4709,0.0,0.4752,0.4931,0.4939,0.4901,0.4614,0.4123,0.0,0.3341,0.2916,0.0,0.0,0.0,0.0,0.0,0.0,0.0,0.0,0.0,0.0,0.4989,0.4939,0.7113,0.8119,0.8762,0.9883,1.025,1.0264,1.1047,1.1335,1.1409,1.1754,1.029,0.8386,0.7204,0.4476,0.1974,0.0,0.0,0.0,0.4634,0.7204,0.0,1.1496,1.2108,0.0,1.2033,0.0,1.2149,1.1965,1.2149,1.2237,1.2128,1.2257,1.2488,1.2827,1.2983,1.3091,1.3173,1.3397,1.36,1.3783,1.4048,1.4143,1.4075,1.4075,1.3987,1.3844,1.4,1.4048,1.4021,1.4177,1.4156,1.4021,1.4136,1.4048,1.3865,1.4095,1.4116,1.4027,1.4143,1.4109,1.4,0.0,0.0,0.0,0.0,0.0,0.0,0.0,0.0,0.0,0.0,0.0,0.0,0.0,0.0,0.0,0.0,0.0,0.0,0.0,0.0,0.0,0.0,0.0,0.0,0.0,0.0,0.0,0.0,0.0,0.0,0.0,0.0,0.2261,0.1642,0.2488,0.2351,0.1543,0.0,0.0,0.0,0.0,0.0,0.0,0.0,0.0,0.0,0.0,0.0,0.0,0.0,0.0,0.5111,0.6112,0.6513,0.7027,0.8866,0.0,0.9566,1.0331,1.0799,1.1179,1.1348,1.1389,1.1201,1.031,0.872,0.6731,0.4505,0.1814,0.0,-0.0,0.0226,0.0,0.0,0.0,0.0,1.1389,1.1986,1.2271,0.0,1.2501,0.0,1.2467,1.2664,1.2793,1.2779,1.2657,1.2725,1.3037,1.3125,1.3261,1.3458,1.3573,1.3729,1.3939,1.4183,1.4258,1.417,1.417,1.4122,1.4048,1.4136,1.417,1.4177,1.4265,1.4251,1.4177,1.4265,1.4197,1.4061,1.4231,1.4245,1.4183,1.4272,1.4245,1.417,0.0,0.0,0.0,0.0,0.0,0.0,0.0,0.0,0.0,0.0,0.0,0.0,0.0,0.0,0.0,0.0,0.0,0.0,0.0,0.0,0.0,0.0,0.0,0.0,0.0,0.0,0.0,0.0,0.0,0.0,0.0,0.0,0.0,0.0,0.0,0.0,0.0,0.0,0.0,0.0,0.0,0.0,0.0,0.0,0.0,0.0,0.0,0.0,0.0,0.0,0.6384,0.6888,0.7041,0.7469,0.8238,0.9387,0.9296,0.9203,1.0419,1.1111,1.1416,1.1396,1.1348,1.0618,0.8302,0.7048,0.5154,0.0928,0.0,-0.1021,-0.0737,-0.0108,0.1688,0.5614,0.0,1.031,1.1301,1.1586,1.1965,1.2651,1.2766,1.2847,1.3003,1.3132,1.3268,1.3417,1.3193,1.3112,1.3254,1.3261,1.3451,1.3858,1.3749,1.3824,1.4102,1.4231,1.4299,1.4299,1.4299,1.4299,1.4299,1.4299,1.4299,1.4299,1.4299,1.4299,1.4299,1.4299,1.4299,1.4299,1.4299,1.4299,1.4299,1.4299,1.4299,1.4299,0.0,0.0,0.0,0.0,0.0,0.0,0.0,0.0,0.0,0.0,0.0,0.0,0.0,0.0,0.0,0.0,0.0,0.0,0.0,0.0,0.0,0.0,0.0,0.0,0.0,-0.421,-0.4313,0.0,0.0,0.0,0.0,0.0,0.0,0.0,0.0,0.0,0.0,0.0,0.0,0.0,0.0,0.0,0.0,0.0,0.0,0.0,0.0,0.0,0.0,0.0,0.641,0.7422,0.851,0.899,0.9394,1.0181,1.033,1.0432,1.1151,1.1423,1.1552,1.1423,1.1111,1.0047,0.7316,0.4993,0.0,0.0,-0.3901,-0.4163,-0.4365,-0.2423,0.0459,0.449,0.0,0.0,0.0,0.0,1.2311,0.0,1.2949,1.3159,1.3308,1.3349,1.3424,1.358,1.3546,1.3573,1.3715,1.3722,1.3817,1.4027,1.4007,1.4082,1.4258,1.4285,1.4299,1.4299,1.4299,1.4299,1.4299,1.4299,1.4299,1.4299,1.4299,1.4299,1.4299,1.4299,1.4299,1.4299,1.4299,1.4299,1.4299,1.4299,1.4299,1.4299,0.0,0.0,0.0,0.0,0.0,0.0,0.0,0.0,0.0,0.0,0.0,0.0,0.0,0.0,0.0,0.0,0.0,0.0,0.0,0.0,0.0,0.0,0.0,0.0,0.0,-0.4466,-0.4599,-0.4494,0.0,0.0,0.0,-0.4546,-0.4445,0.0,0.0,0.0,0.0,0.0,0.0,0.0,0.0,0.0,0.0,0.0,0.0,0.0,0.0,0.0,0.0,0.0,0.5169,0.5226,0.8382,0.9792,0.9988,0.8992,0.9825,1.0732,0.9814,1.0556,1.1586,1.143,1.0995,0.954,0.5826,0.0,0.0,0.0,-0.471,-0.4581,-0.3485,0.0,0.0,0.0,0.0,0.0,0.0,0.0,0.0,0.0,1.2834,1.3119,1.3268,1.3356,1.3498,1.3722,1.3736,1.3804,1.3953,1.4034,1.4075,1.4075,1.415,1.4224,1.4299,1.4299,1.4299,1.4299,1.4299,1.4299,1.4299,1.4299,1.4299,1.4299,1.4299,1.4299,1.4299,1.4299,1.4299,1.4299,1.4299,1.4299,1.4299,1.4299,1.4299,1.4299,0.0,0.0,0.0,0.0,0.0,0.0,0.0,0.0,0.0,0.0,0.0,0.0,0.0,0.0,0.0,0.0,0.0,0.0,0.0,0.0,0.0,0.0,0.0,0.0,0.0,0.0,0.0,-0.461,-0.466,0.0,0.0,0.0,0.0,0.0,-0.3904,-0.384,0.0,0.0,0.0,0.0,0.0,-0.2552,0.0,0.0,0.0,0.0,0.0,0.0,0.0,0.0,0.3088,0.2206,0.6523,0.8558,0.9058,0.7429,0.8625,1.0136,0.8811,0.9997,1.1552,1.1402,1.1022,0.9488,0.4828,0.2623,0.0,0.0,-0.4771,-0.4586,-0.2677,0.0,0.0,0.0,0.0,0.0,0.0,0.0,0.0,0.0,1.261,0.0,1.3152,1.3281,1.3485,1.3817,1.3905,1.3994,1.4116,1.4238,1.4245,1.4122,1.4238,1.4299,1.4299,1.4299,1.4299,1.4299,1.4299,1.4299,1.4299,1.4299,1.4319,1.4346,1.4346,1.4346,1.4346,1.4346,1.4326,1.4299,1.4299,1.4299,1.4299,1.4299,1.4299,1.4299,0.0,0.0,0.0,0.0,0.0,0.0,0.0,0.0,0.0,0.0,0.0,0.0,0.0,0.0,0.0,0.0,0.0,0.0,0.0,0.0,0.0,0.0,0.0,0.0,0.0,0.0,0.0,-0.4065,-0.4172,0.0,0.0,0.0,0.0,0.0,0.0,-0.3392,-0.3421,0.0,0.0,0.0,0.0,0.0,0.0,0.0,0.0,0.0,0.0,0.0,0.0,0.0,0.0,-0.0566,0.1803,0.3793,0.5369,0.6687,0.0,0.0,1.0483,1.1475,1.1598,1.1587,1.1387,0.9915,0.5475,0.0,0.0,-0.4236,-0.518,-0.5364,-0.5249,-0.4736,-0.3159,0.0,0.0,0.2442,0.0,0.0,0.0,0.0,0.0,0.0,1.3132,1.3186,1.337,1.3804,1.4102,1.4265,1.4278,1.4292,1.4292,1.4278,1.4292,1.4299,1.4299,1.4299,1.4299,1.4299,1.4299,1.4299,1.4299,1.4299,1.4373,1.4489,1.4489,1.4489,1.4489,1.4489,1.4414,1.4299,1.4299,1.4299,1.4299,1.4299,1.4299,1.4299,0.0,0.0,0.0,0.0,0.0,0.0,0.0,0.0,0.0,0.0,0.0,0.0,0.0,0.0,0.0,0.0,0.0,0.0,0.0,0.0,0.0,0.0,0.0,0.0,0.0,0.0,-0.4017,-0.4083,-0.4029,0.0,0.0,0.0,0.0,0.0,0.0,-0.3316,-0.3258,-0.2848,0.0,0.0,0.0,0.0,0.0,0.0,0.0,0.0,0.0,0.0,0.0,0.0,0.0,0.0,-0.0976,-0.0188,0.0,0.0,0.4091,0.5394,0.5678,0.6853,0.8096,0.806,0.8008,0.7016,0.3428,0.0,0.0,-0.485,-0.5542,-0.5505,-0.5533,-0.5051,-0.4095,0.0,0.0,0.0,0.0,0.0,0.0,0.0,1.1809,0.0,0.0,1.3288,1.3593,1.3953,1.4177,1.4299,1.4299,1.4299,1.4299,1.4299,1.4299,1.4299,1.4299,1.4299,1.4299,1.4299,1.4299,1.4299,1.4299,1.4299,1.438,1.4509,1.4509,1.4563,1.4638,1.455,1.4475,1.4421,1.4333,1.4299,1.4299,1.4299,1.4299,1.4299,0.0,0.0,0.0,0.0,0.0,0.0,0.0,0.0,0.0,0.0,0.0,0.0,0.0,0.0,0.0,0.0,0.0,0.0,0.0,0.0,0.0,0.0,0.0,0.0,0.0,0.0,-0.3972,-0.3935,-0.384,-0.384,0.0,0.0,-0.3804,-0.357,0.0,0.0,0.0,0.0,0.0,0.0,0.0,0.0,0.0,0.0,0.0,0.0,0.0,0.0,0.0,0.0,0.0,0.0,0.0,0.0,0.0,0.0,0.0646,0.2009,0.1425,0.2689,0.4111,0.4049,0.3194,0.1802,0.0,0.0,0.0,-0.5218,-0.5588,-0.5459,-0.5226,-0.4922,-0.4603,0.0,0.0,-0.0904,-0.0,0.0,0.0,0.0,0.0,1.1397,1.2855,1.3336,1.3797,1.4055,1.4211,1.4299,1.4299,1.4299,1.4299,1.4299,1.4299,1.4299,1.4299,1.4299,1.4299,1.4299,1.4299,1.4299,1.4299,1.4299,1.4401,1.4577,1.4529,1.4624,1.4794,1.4597,1.4509,1.4496,1.4353,1.4299,1.4299,1.4299,1.4299,1.4299,0.0,0.0,0.0,0.0,0.0,0.0,0.0,0.0,0.0,0.0,0.0,0.0,0.0,0.0,0.0,0.0,0.0,0.0,0.0,0.0,0.0,0.0,0.0,0.0,0.0,0.0,0.0,-0.3626,-0.3486,-0.3486,-0.3581,-0.3353,-0.3339,-0.3563,0.0,0.0,0.0,0.0,0.0,0.0,0.0,0.0,0.0,0.0,0.0,0.0,0.0,0.0,0.0,0.0,0.0,0.0,0.0,0.0,0.0,0.0,-0.2992,-0.2619,-0.0481,-0.0,-0.0,-0.0,-0.3088,-0.5739,0.0,0.0,-0.5354,-0.5244,-0.524,-0.514,-0.4834,-0.4671,-0.4603,-0.447,-0.3649,-0.2599,-0.1437,0.2187,0.0,0.0,0.0,0.9757,1.2856,1.3582,1.3905,1.4061,1.4211,1.4299,1.4299,1.4299,1.4299,1.4299,1.4299,1.4299,1.4299,1.4299,1.4299,1.4299,1.4299,1.4299,1.4299,1.4299,1.4462,1.4726,1.4577,1.4685,1.4943,1.4638,1.4509,1.4496,1.4353,1.4299,1.4299,1.4299,1.4299,1.4299,0.0,0.0,0.0,0.0,0.0,0.0,0.0,0.0,0.0,0.0,0.0,0.0,0.0,0.0,0.0,0.0,0.0,0.0,0.0,0.0,0.0,0.0,0.0,0.0,0.0,0.0,0.0,0.0,0.0,-0.3591,-0.3729,-0.3351,-0.324,-0.3322,-0.2814,-0.2694,0.0,0.0,0.0,0.0,0.0,0.0,-0.1875,0.0,0.0,0.0,0.0,0.0,0.0,0.0,0.0,0.0,0.0,0.0,0.0,-0.3946,-0.4046,-0.3933,-0.3211,-0.2621,-0.2161,-0.2149,-0.3262,-0.4412,-0.5202,0.0,0.0,-0.5838,-0.5689,-0.5459,-0.5226,-0.4922,-0.4511,-0.4208,-0.3561,-0.2121,0.0591,0.0,0.0,0.8196,1.0437,1.2076,1.3459,1.3654,1.3946,1.4211,1.4272,1.4299,1.4299,1.4299,1.4299,1.4299,1.4299,1.4299,1.4299,1.4299,1.4299,1.4299,1.4299,1.4299,1.4299,1.4299,1.4407,1.4584,1.4529,1.4624,1.4794,1.4597,1.4509,1.4496,1.4353,1.4299,1.4299,1.4299,1.4299,1.4299,0.0,0.0,0.0,0.0,0.0,0.0,0.0,0.0,0.0,0.0,0.0,0.0,0.0,0.0,0.0,0.0,0.0,0.0,0.0,0.0,0.0,0.0,0.0,0.0,0.0,0.0,0.0,0.0,0.0,0.0,0.0,0.0,-0.311,-0.311,-0.2771,-0.2663,0.0,0.0,0.0,0.0,0.0,0.0,-0.1724,0.0,0.0,0.0,0.0,0.0,0.0,0.0,0.0,0.0,0.0,0.0,0.0,0.0,-0.4706,-0.4962,0.0,-0.445,-0.411,-0.4205,-0.4279,0.0,0.0,0.0,0.0,0.0,-0.5381,-0.5166,-0.5064,-0.4313,-0.3767,-0.4015,-0.367,-0.2334,0.0467,0.0,0.0,0.7568,0.0,0.0,1.2701,1.3396,1.3946,1.4197,1.4156,1.415,1.4211,1.4156,1.4177,1.4299,1.4299,1.4299,1.4299,1.4299,1.4299,1.4299,1.4299,1.4299,1.4299,1.4299,1.438,1.4509,1.4455,1.455,0.0,1.4516,1.4462,1.4496,1.4353,1.4299,1.4299,1.4299,1.4299,1.4306,0.0,0.0,0.0,0.0,0.0,0.0,0.0,0.0,0.0,0.0,0.0,0.0,0.0,0.0,0.0,0.0,0.0,0.0,0.0,0.0,0.0,0.0,0.0,0.0,0.0,0.0,0.0,-0.343,-0.342,-0.3346,-0.3226,0.0,0.0,-0.2978,-0.2677,0.0,0.0,0.0,0.0,0.0,0.0,0.0,0.0,0.0,0.0,0.0,0.0,0.0,0.0,0.0,0.0,0.0,0.0,0.0,0.0,0.0,0.0,0.0,0.0,0.0,0.0,0.0,0.0,0.0,0.0,0.0,0.0,0.0,0.0,0.0,0.0,-0.3265,-0.259,-0.3792,-0.376,-0.3005,-0.1163,0.1063,0.0,0.0,1.0934,1.3068,1.1347,1.2726,1.3892,1.4041,1.3926,1.3905,1.4048,1.3919,1.3973,1.4272,1.4285,1.4292,1.4299,1.4299,1.4299,1.4299,1.4299,1.4299,1.4299,1.4299,1.4373,1.4489,1.4353,1.4455,1.4685,1.4414,1.438,1.4482,1.4353,1.4299,1.4299,1.4299,1.4299,1.4319,0.0,0.0,0.0,0.0,0.0,0.0,0.0,0.0,0.0,0.0,0.0,0.0,0.0,0.0,0.0,0.0,0.0,0.0,0.0,0.0,0.0,0.0,0.0,0.0,0.0,0.0,0.0,-0.3714,-0.3703,-0.3628,-0.3506,-0.3076,0.0,0.0,0.0,0.0,0.0,0.0,0.0,0.0,0.0,0.0,0.0,0.0,0.0,0.0,-0.2556,-0.287,0.0,0.0,0.0,0.0,0.0,0.0,0.0,0.0,-0.5437,-0.6019,-0.5957,0.0,-0.6139,-0.6267,-0.6412,0.0,0.0,0.0,0.0,0.0,0.0,0.0,0.0,0.0,-0.2953,-0.3913,-0.3566,-0.2838,-0.1696,0.0,0.0,1.0266,1.2253,1.3105,1.2677,1.3311,1.3736,1.3885,1.3865,1.3858,1.3892,1.3858,1.3926,1.4122,1.4129,1.4183,1.4299,1.4299,1.4299,1.4299,1.4299,1.4299,1.4299,1.4299,1.4319,1.4346,1.4312,1.434,1.4401,1.4326,1.4319,1.4346,1.4312,1.4299,1.4299,1.4299,1.4299,1.4306,0.0,0.0,0.0,0.0,0.0,0.0,0.0,0.0,0.0,0.0,0.0,0.0,0.0,0.0,0.0,0.0,0.0,0.0,0.0,0.0,0.0,0.0,0.0,0.0,0.0,0.0,0.0,0.0,0.0,-0.3595,0.0,0.0,0.0,0.0,0.0,0.0,0.0,0.0,0.0,0.0,-0.2017,0.0,0.0,0.0,0.0,0.0,-0.2708,-0.3067,0.0,-0.3338,-0.3607,-0.4014,0.0,0.0,0.0,0.0,-0.5813,-0.6186,-0.6604,-0.6497,-0.6276,-0.6276,-0.6372,-0.636,0.0,0.0,0.0,0.0,0.0,0.0,0.0,0.0,0.0,-0.3305,-0.1387,0.0472,0.0,0.0,0.9775,1.0791,1.2311,1.3227,1.337,1.3532,1.3661,1.3736,1.3682,1.3668,1.3743,1.3675,1.3736,1.396,1.3966,1.4075,1.4299,1.4299,1.4299,1.4299,1.4299,1.4299,1.4299,1.4299,1.4299,1.4299,1.4299,1.4299,1.4299,1.4299,1.4299,1.4299,1.4299,1.4299,1.4299,1.4299,1.4299,1.4306,0.0,0.0,0.0,0.0,0.0,0.0,0.0,0.0,0.0,0.0,0.0,0.0,0.0,0.0,0.0,0.0,0.0,0.0,0.0,0.0,0.0,0.0,0.0,0.0,0.0,0.0,0.0,0.0,0.0,0.0,0.0,0.0,-0.2945,0.0,0.0,0.0,0.0,0.0,-0.1905,-0.1628,-0.1849,0.0,0.0,0.0,0.0,0.0,0.0,0.0,0.0,-0.3539,-0.3693,-0.4029,-0.4289,0.0,0.0,0.0,0.0,0.0,-0.6963,-0.6746,-0.6213,-0.6213,-0.62,-0.6171,0.0,0.0,0.0,0.0,0.0,0.0,0.0,0.0,0.0,0.0,0.0,0.0,0.5069,0.874,1.1104,1.041,1.2114,1.3295,1.3505,1.3566,1.3593,1.3593,1.3471,1.3458,1.3587,1.3471,1.3526,1.3797,1.381,1.3946,1.4224,1.4278,1.4299,1.4299,1.4299,1.4299,1.4299,1.4299,1.4299,1.4299,1.4299,1.4299,1.4299,1.4299,1.4299,1.4299,1.4299,1.4299,1.4299,1.4299,1.4299,1.4319,0.0,0.0,0.0,0.0,0.0,0.0,0.0,0.0,0.0,0.0,0.0,0.0,0.0,0.0,0.0,0.0,0.0,0.0,0.0,0.0,0.0,0.0,0.0,0.0,0.0,0.0,0.0,0.0,0.0,0.0,-0.309,-0.3064,-0.2815,0.0,0.0,0.0,-0.2069,-0.1908,-0.174,-0.1628,-0.174,0.0,0.0,0.0,0.0,0.0,0.0,0.0,0.0,-0.3539,-0.3618,-0.3781,-0.4129,0.0,0.0,0.0,0.0,0.0,-0.6145,-0.6073,-0.6056,-0.6056,-0.5968,-0.5679,0.0,0.0,0.0,0.0,0.0,0.0,0.0,0.0,0.0,0.0,0.0,0.7341,0.0,0.0,1.0968,1.2146,1.2929,1.3288,1.3085,1.3288,1.3437,1.3437,1.3417,1.341,1.3437,1.341,1.3485,1.3654,1.3661,1.3743,1.3912,1.417,1.4299,1.4299,1.4299,1.4299,1.4299,1.4299,1.4299,1.4299,1.4299,1.4299,1.4299,1.4299,1.4299,1.4299,1.4299,1.4299,1.4299,1.4299,1.4299,1.4306,0.0,0.0,0.0,0.0,0.0,0.0,0.0,0.0,0.0,0.0,0.0,0.0,0.0,0.0,0.0,0.0,0.0,0.0,0.0,0.0,0.0,0.0,0.0,0.0,0.0,0.0,0.0,0.0,0.0,-0.3555,-0.3447,-0.3254,-0.304,-0.2759,0.0,0.0,-0.2017,-0.1885,-0.1652,-0.1351,0.0,0.0,0.0,0.0,0.0,0.0,0.0,0.0,0.0,0.0,-0.3559,-0.3747,-0.4086,0.0,0.0,0.0,0.0,0.0,-0.6054,-0.5996,-0.5821,-0.5883,-0.5635,0.0,0.0,0.0,0.0,0.0,0.0,0.0,0.0,0.0,0.3523,0.6817,0.0,0.8807,0.9519,1.0504,1.1479,1.267,1.302,1.3112,1.3193,1.3322,1.3403,1.3403,1.3403,1.3403,1.3403,1.3403,1.3431,1.3505,1.3587,1.3661,1.3729,1.3946,1.4095,1.4177,1.4258,1.4299,1.4299,1.4299,1.4299,1.4299,1.4299,1.4299,1.4299,1.4299,1.4299,1.4299,1.4299,1.4299,1.4299,1.4299,1.4299,1.4299,0.0,0.0,0.0,0.0,0.0,0.0,0.0,0.0,0.0,0.0,0.0,0.0,0.0,0.0,0.0,0.0,0.0,0.0,0.0,0.0,0.0,0.0,0.0,0.0,0.0,0.0,-0.4101,-0.4017,-0.3886,-0.3793,-0.3696,-0.3555,-0.3337,0.0,0.0,0.0,-0.1943,-0.1837,-0.149,-0.1126,0.0,0.0,0.0,0.0,0.0,0.0,0.0,0.0,0.0,0.0,0.0,0.0,0.0,0.0,0.0,-0.4855,-0.5241,-0.5536,-0.5775,-0.5717,-0.5556,-0.5396,0.0,0.0,0.0,0.0,0.0,0.0,0.0,0.0,0.0,0.0,0.0,0.9926,1.0048,1.0088,1.1623,1.1979,1.2264,1.2732,1.304,1.3198,1.3275,1.3363,1.339,1.3349,1.3376,1.3403,1.3403,1.3403,1.3403,1.3403,1.3512,1.3573,1.3573,1.3722,1.3885,1.4075,1.419,1.4265,1.4299,1.4299,1.4299,1.4299,1.4299,1.4299,1.4299,1.4299,1.4299,1.4299,1.4299,1.4299,1.4299,1.4299,1.4299,1.4299,0.0,0.0,0.0,0.0,0.0,0.0,0.0,0.0,0.0,0.0,0.0,0.0,0.0,0.0,0.0,0.0,0.0,0.0,0.0,0.0,0.0,0.0,0.0,0.0,0.0,-0.4383,-0.4414,-0.4467,-0.4207,-0.3966,-0.3789,-0.395,-0.3722,-0.3114,0.0,0.0,-0.1877,-0.1499,-0.1237,-0.1123,-0.1297,0.0,0.0,0.0,0.0,0.0,0.0,0.0,0.0,0.0,0.0,0.0,0.0,0.0,-0.3753,-0.4259,-0.4529,-0.4651,-0.4572,-0.4784,-0.5001,-0.4591,0.0,0.0,0.0,0.0,0.0,0.0,0.0,0.0,0.0,0.5965,0.9342,0.9308,1.0358,1.1482,1.2338,1.2691,1.2895,1.2942,1.3193,1.3261,1.3017,1.3241,1.3342,1.32,1.3322,1.3403,1.3403,1.3403,1.3403,1.3403,1.341,1.3417,1.3417,1.3566,1.379,1.4075,1.4082,1.4163,1.4299,1.4299,1.4299,1.4299,1.4299,1.4299,1.4299,1.4299,1.4299,1.4299,1.4299,1.4299,1.4299,1.4299,1.4299,1.4299,0.0,0.0,0.0,0.0,0.0,0.0,0.0,0.0,0.0,0.0,0.0,0.0,0.0,0.0,0.0,0.0,0.0,0.0,0.0,0.0,0.0,0.0,0.0,-0.4877,-0.4455,-0.462,-0.4648,-0.4449,-0.4528,-0.4234,-0.3661,-0.3998,0.0,0.0,0.0,0.0,-0.2101,-0.1782,-0.1504,-0.1334,-0.1596,-0.1731,0.0,0.0,0.0,0.0,0.0,0.0,0.0,0.0,-0.3193,-0.3257,-0.3515,-0.3441,-0.3367,-0.393,-0.4095,-0.4197,-0.4316,-0.4551,-0.4482,-0.3633,0.0,0.0,0.0,0.0,0.0,0.0,0.0,0.0,0.0,0.0,1.0135,1.0222,1.0992,1.1864,1.242,1.2684,1.2854,1.2949,1.3164,1.3171,1.2969,1.3119,1.3166,1.3051,1.3173,1.322,1.3132,1.3214,1.3261,1.3261,1.3349,1.3403,1.3403,1.3458,1.3593,1.3797,1.3885,1.396,1.4014,1.4116,1.4156,1.4163,1.4258,1.4299,1.4299,1.4299,1.4299,1.4299,1.4299,1.4299,1.4299,1.4299,1.4299,1.4299,0.0,0.0,0.0,0.0,0.0,0.0,0.0,0.0,0.0,0.0,0.0,0.0,0.0,0.0,0.0,0.0,0.0,0.0,0.0,0.0,0.0,0.0,0.0,-0.5051,-0.4641,-0.4815,-0.4791,-0.4519,-0.4758,-0.4515,-0.3809,0.0,0.0,0.0,0.0,0.0,0.0,-0.1983,-0.1697,-0.1396,-0.1721,-0.1796,0.0,0.0,0.0,0.0,0.0,0.0,0.0,0.0,-0.3004,-0.3001,-0.3227,-0.3213,-0.3063,-0.3665,-0.3585,-0.3403,-0.3742,-0.4066,-0.3894,0.0,0.0,0.0,0.0,0.0,0.0,0.0,0.0,0.0,0.0,0.0,0.0,0.0,1.1246,1.1972,1.2379,1.2603,1.2752,1.2807,1.2999,1.3006,1.282,1.2963,1.301,1.2895,1.3024,1.3064,1.2969,1.3051,1.3125,1.3173,1.3275,1.3349,1.3403,1.3403,1.3451,1.3559,1.3654,1.3749,1.3844,1.3953,1.4027,1.4075,1.4183,1.4258,1.4299,1.4299,1.4299,1.4299,1.4299,1.4299,1.4299,1.4299,1.4299,1.4299,0.0,0.0,0.0,0.0,0.0,0.0,0.0,0.0,0.0,0.0,0.0,0.0,0.0,0.0,0.0,0.0,0.0,0.0,0.0,0.0,0.0,0.0,0.0,-0.5097,-0.4912,-0.4956,-0.4947,-0.4796,-0.502,-0.4815,-0.4186,-0.418,0.0,0.0,0.0,0.0,0.0,0.0,-0.1679,-0.1347,-0.1515,-0.1634,-0.1724,0.0,0.0,0.0,0.0,0.0,0.0,0.0,-0.2949,-0.3104,-0.3018,-0.3003,-0.2994,-0.321,-0.2813,-0.2265,-0.2759,-0.3236,0.0,0.0,0.0,0.0,0.0,0.0,0.0,0.0,0.0,0.9692,0.883,0.9324,0.0,0.9433,1.0705,1.1938,1.2244,1.2542,1.2671,1.2522,1.2773,1.284,1.2528,1.2779,1.2895,1.2739,1.2874,1.2956,1.2956,1.2956,1.3024,1.3166,1.3166,1.3247,1.3397,1.3397,1.3397,1.3397,1.3403,1.3553,1.3838,1.3838,1.3926,1.4068,1.4068,1.4156,1.4299,1.4299,1.4299,1.4299,1.4299,1.4299,1.4299,1.4299,1.4299,1.4299,0.0,0.0,0.0,0.0,0.0,0.0,0.0,0.0,0.0,0.0,0.0,0.0,0.0,0.0,0.0,0.0,0.0,0.0,0.0,0.0,0.0,0.0,0.0,0.0,0.0,0.0,-0.4783,-0.5032,-0.4877,-0.4581,0.0,0.0,0.0,-0.3189,0.0,0.0,0.0,0.0,-0.1816,-0.174,-0.1798,-0.1843,-0.1914,0.0,0.0,0.0,0.0,0.0,0.0,0.0,0.0,0.0,-0.298,-0.2788,-0.2579,-0.3164,-0.2834,-0.2123,-0.162,-0.0697,0.0,0.0,0.0,0.0,0.0,0.0,0.0,0.0,0.0,1.0232,0.9121,0.9813,1.0574,1.0429,1.1239,1.1898,1.2101,1.2386,1.2556,1.2508,1.2583,1.2603,1.2508,1.2684,1.2732,1.2583,1.2712,1.2752,1.2644,1.2739,1.282,1.2861,1.2969,1.3091,1.3241,1.3241,1.3241,1.3241,1.3349,1.3444,1.3532,1.3641,1.3715,1.377,1.398,1.4095,1.415,1.4258,1.4299,1.4299,1.4299,1.4299,1.4299,1.4299,1.4299,1.4299,0.0,0.0,0.0,0.0,0.0,0.0,0.0,0.0,0.0,0.0,0.0,0.0,0.0,0.0,0.0,0.0,0.0,0.0,0.0,0.0,0.0,0.0,0.0,0.0,0.0,-0.4757,-0.4761,0.0,0.0,0.0,0.0,0.0,0.0,-0.3173,0.0,-0.2651,0.0,0.0,-0.1845,-0.188,-0.188,-0.1932,-0.1948,0.0,0.0,0.0,0.0,0.0,0.0,0.0,0.0,0.0,-0.2808,0.0,-0.2463,-0.3002,-0.2311,-0.1246,-0.076,0.0,0.0,0.0,0.0,0.0,0.0,0.0,0.0,0.0,0.0,1.0776,1.0017,1.0522,1.0882,1.1131,1.1525,1.1864,1.1959,1.2176,1.2325,1.2325,1.2325,1.2352,1.2413,1.2501,1.2542,1.2508,1.2589,1.2596,1.2508,1.2589,1.2664,1.2725,1.282,1.2942,1.3085,1.3085,1.3085,1.3091,1.318,1.3254,1.3315,1.3471,1.3573,1.3648,1.3939,1.4075,1.4082,1.4238,1.4299,1.4299,1.4299,1.4299,1.4299,1.4299,1.4299,1.4299,0.0,0.0,0.0,0.0,0.0,0.0,0.0,0.0,0.0,0.0,-0.7273,0.0,0.0,0.0,0.0,0.0,0.0,0.0,0.0,0.0,0.0,0.0,0.0,0.0,0.0,0.0,0.0,0.0,0.0,0.0,0.0,0.0,-0.3648,-0.3014,0.0,-0.2613,-0.237,-0.2064,-0.1869,-0.1816,-0.188,-0.1829,-0.1798,-0.1993,0.0,0.0,0.0,0.0,0.0,0.0,0.0,0.0,-0.2509,-0.2557,-0.2613,-0.2855,-0.1567,-0.0,0.0,0.0,0.0,0.0,0.0,0.0,0.0,0.0,0.0,0.8448,0.0,1.1036,1.1161,1.1151,1.1084,1.1369,1.1647,1.183,1.183,1.1965,1.206,1.206,1.206,1.2115,1.2257,1.2271,1.2325,1.2454,1.2461,1.2467,1.2481,1.2481,1.2556,1.2705,1.2712,1.2786,1.2935,1.2942,1.2942,1.2942,1.2956,1.3024,1.3139,1.3302,1.3471,1.3641,1.3912,1.4041,1.4061,1.4217,1.4278,1.4278,1.4292,1.4299,1.4299,1.4299,1.4299,1.4299,0.0,0.0,0.0,0.0,0.0,0.0,0.0,0.0,0.0,0.0,0.0,0.0,0.0,0.0,0.0,0.0,0.0,0.0,0.0,0.0,0.0,0.0,0.0,0.0,0.0,0.0,0.0,0.0,0.0,0.0,0.0,0.0,0.0,-0.3357,0.0,-0.2519,-0.238,-0.1981,-0.1811,-0.1817,-0.1864,-0.1804,-0.1746,-0.1838,-0.1892,0.0,0.0,0.0,0.0,0.0,0.0,0.0,-0.2452,-0.247,-0.2325,-0.2534,-0.2036,-0.1164,0.0,0.0,0.0,0.0,0.0,0.0,0.0,0.0,0.0,0.7965,0.9572,1.098,1.0339,1.0844,1.1355,1.1538,1.1714,1.183,1.183,1.1965,1.206,1.206,1.206,1.2074,1.2108,1.2108,1.2121,1.2155,1.2155,1.221,1.2332,1.2338,1.24,1.2549,1.2549,1.2623,1.2779,1.2779,1.2779,1.2779,1.2901,1.2915,1.2834,1.3098,1.337,1.3634,1.3695,1.379,1.3905,1.4055,1.4122,1.4136,1.4251,1.4299,1.4299,1.4299,1.4299,1.4299,0.0,0.0,0.0,0.0,0.0,0.0,0.0,0.0,0.0,0.0,0.0,0.0,0.0,0.0,0.0,0.0,0.0,0.0,0.0,0.0,0.0,0.0,0.0,0.0,0.0,0.0,0.0,0.0,0.0,0.0,0.0,0.0,0.0,-0.3083,0.0,-0.244,-0.2403,-0.2122,-0.1894,-0.1785,-0.1783,-0.1715,-0.1641,-0.1812,-0.1853,-0.1884,-0.1817,0.0,0.0,0.0,0.0,0.0,0.0,0.0,-0.1984,-0.2211,-0.1691,-0.0731,0.0,0.0,0.0,0.0,0.0,0.0,0.0,0.0,0.0,0.9245,1.0116,1.1013,1.0652,1.0914,1.1307,1.1389,1.1463,1.1511,1.1511,1.1647,1.1742,1.1742,1.1803,1.1877,1.1945,1.1952,1.1979,1.2054,1.206,1.2094,1.2176,1.2182,1.2216,1.2291,1.2291,1.2366,1.2515,1.2522,1.2556,1.2623,1.2705,1.2739,1.2739,1.3037,1.3302,1.3526,1.36,1.3675,1.3756,1.398,1.4075,1.4089,1.4238,1.4299,1.4299,1.4299,1.4299,1.4299,0.0,0.0,0.0,0.0,0.0,0.0,0.0,0.0,0.0,0.0,0.0,0.0,0.0,0.0,0.0,0.0,0.0,0.0,0.0,0.0,0.0,0.0,0.0,0.0,0.0,0.0,0.0,0.0,0.0,0.0,0.0,0.0,0.0,-0.2551,0.0,0.0,-0.2423,-0.2163,-0.1943,-0.1843,-0.1768,-0.1693,-0.155,-0.1785,-0.1874,-0.1817,-0.1682,-0.1682,-0.1749,-0.1479,0.0,0.0,0.0,0.0,-0.171,-0.1983,-0.1201,-0.0239,0.0,0.0,0.0,0.0,0.0,0.0,0.0,0.0,1.0692,1.0678,1.0846,1.1104,1.1151,1.1145,1.1131,1.1158,1.1165,1.1165,1.1165,1.1274,1.1355,1.1355,1.1463,1.1586,1.1701,1.1742,1.1796,1.1898,1.1959,1.1986,1.1986,1.2006,1.2033,1.206,1.206,1.2121,1.225,1.225,1.2311,1.2427,1.2454,1.2556,1.2739,1.2983,1.3193,1.337,1.3498,1.3566,1.3607,1.3885,1.3994,1.4014,1.419,1.4265,1.4265,1.4292,1.4299,1.4299,0.0,0.0,0.0,0.0,0.0,0.0,0.0,0.0,0.0,0.0,0.0,0.0,0.0,0.0,0.0,0.0,0.0,0.0,0.0,0.0,0.0,0.0,0.0,0.0,0.0,0.0,0.0,0.0,0.0,0.0,0.0,0.0,0.0,-0.1988,0.0,0.0,0.0,-0.1557,-0.1597,-0.1962,-0.1967,-0.1883,-0.1739,-0.1796,-0.1766,-0.1615,-0.1615,-0.1546,-0.1479,-0.1682,-0.1503,0.0,0.0,0.0,-0.1441,-0.1644,-0.1703,-0.1419,0.0,0.0,0.0,0.0,0.0,0.0,0.0,0.0,1.0331,0.0,1.0602,1.086,1.1118,1.1063,1.1016,1.1145,1.1165,1.1165,1.1165,1.1179,1.1192,1.1192,1.1212,1.1233,1.1253,1.1369,1.1402,1.1294,1.1531,1.1681,1.1681,1.1796,1.1925,1.206,1.206,1.2074,1.2094,1.2094,1.2101,1.2121,1.2257,1.2461,1.2732,1.2773,1.2942,1.3207,1.3227,1.3308,1.3444,1.362,1.3688,1.3715,1.3994,1.4102,1.4122,1.4251,1.4299,1.4299,0.0,0.0,0.0,0.0,0.0,0.0,0.0,0.0,0.0,0.0,0.0,0.0,0.0,0.0,0.0,0.0,0.0,0.0,0.0,0.0,0.0,0.0,0.0,0.0,0.0,0.0,0.0,0.0,0.0,0.0,0.0,-0.3231,-0.2584,0.0,0.0,0.0,0.0,0.0,0.0,-0.167,-0.176,-0.1722,-0.1552,-0.1568,-0.1524,-0.1415,-0.0958,-0.0898,-0.0971,-0.0693,-0.0492,-0.0502,-0.0862,0.0,0.0,0.0,-0.1058,0.0,0.0,0.0,0.0,0.0,0.0,0.0,0.0,0.0,1.0066,1.0035,1.0337,1.0534,1.0744,1.0806,1.0839,1.0907,1.0914,1.0914,1.0914,1.0989,1.1043,1.1043,1.1118,1.1165,1.1165,1.1226,1.1233,1.1165,1.1287,1.1362,1.1362,1.1504,1.1613,1.1681,1.1769,1.185,1.1932,1.1932,1.1979,1.206,1.2128,1.223,1.2359,1.2447,1.2691,1.3057,1.3139,1.3214,1.3295,1.3532,1.3627,1.3648,1.3858,1.3939,1.3953,1.4021,1.4041,1.4055,0.0,0.0,0.0,0.0,0.0,0.0,0.0,0.0,0.0,0.0,0.0,0.0,0.0,0.0,0.0,0.0,0.0,0.0,0.0,0.0,0.0,0.0,0.0,0.0,0.0,0.0,0.0,0.0,0.0,0.0,-0.3757,-0.3141,-0.2339,0.0,-0.1667,0.0,0.0,0.0,0.0,0.0,0.0,-0.1062,-0.0994,-0.0758,-0.0764,-0.0826,-0.0,0.0143,-0.0072,0.0286,0.0505,0.0437,0.0072,-0.0,0.0,0.0,0.0,0.025,0.0,0.0,0.0,0.0,0.0,0.0,0.0,0.0,0.9673,0.0,0.9868,1.0154,1.0297,1.0507,1.0677,1.0711,1.0717,1.0717,1.0717,1.0819,1.0894,1.0894,1.0982,1.105,1.105,1.1084,1.109,1.105,1.1118,1.1145,1.1111,1.1287,1.1375,1.1335,1.1484,1.1592,1.166,1.166,1.1755,1.1952,1.1952,1.1993,1.2067,1.2182,1.244,1.28,1.2983,1.3105,1.3193,1.3417,1.3539,1.3587,1.3729,1.379,1.379,1.3824,1.3838,1.3858,0.0,0.0,0.0,0.0,0.0,0.0,0.0,0.0,0.0,0.0,0.0,0.0,0.0,0.0,-0.7209,-0.7209,-0.7209,-0.6999,-0.652,-0.619,-0.589,-0.5717,-0.5588,0.0,-0.499,0.0,0.0,0.0,0.0,0.0,-0.3698,-0.3389,-0.2347,-0.0738,-0.0606,-0.074,-0.1006,0.0,0.0,0.0,0.0,0.0,0.0,0.0831,0.083,0.0437,0.1194,0.1558,0.1457,0.0728,0.102,0.1685,0.135,0.0831,0.0381,0.0,0.0,0.0,0.0,0.0,0.0,0.0,0.0,0.0,0.0,0.0,0.9161,0.897,0.9332,0.9686,0.9829,1.0209,1.0555,1.0697,1.0717,1.0717,1.0717,1.0724,1.0731,1.0731,1.0738,1.0744,1.0744,1.0873,1.09,1.0751,1.1002,1.1104,1.0968,1.1233,1.1321,1.1179,1.1321,1.1335,1.1199,1.1199,1.1348,1.164,1.164,1.1789,1.206,1.2074,1.2169,1.2338,1.263,1.2915,1.3173,1.3193,1.3281,1.3424,1.358,1.3641,1.3654,1.379,1.3838,1.3844,0.0,0.0,0.0,0.0,0.0,0.0,0.0,0.0,0.0,0.0,0.0,0.0,0.0,-0.7405,-0.7293,-0.7209,-0.6999,-0.6774,-0.652,-0.6276,-0.6019,-0.5793,-0.5501,-0.5198,-0.4753,-0.4849,0.0,0.0,0.0,-0.4205,-0.3806,-0.3691,-0.3092,-0.2033,-0.0748,-0.0346,-0.0484,0.0633,0.0,0.0,0.0,0.0,0.0,0.0,0.1742,0.1793,0.2863,0.3113,0.2911,0.2813,0.2774,0.281,0.2287,0.204,0.1869,0.1719,0.2117,0.2722,0.3187,0.0,0.0,0.0,0.0,0.0,0.7112,0.7871,0.8399,0.8339,0.8837,0.9361,0.951,0.9903,1.0256,1.0412,1.0514,1.0541,1.0453,1.0602,1.0683,1.0582,1.0663,1.0717,1.0717,1.0772,1.0778,1.0724,1.0819,1.0853,1.0806,1.0995,1.1097,1.107,1.1246,1.1253,1.1214,1.1131,1.1219,1.1328,1.1423,1.1531,1.164,1.183,1.1945,1.2013,1.2318,1.2617,1.2901,1.3091,1.3207,1.3268,1.3424,1.3485,1.3492,1.3539,1.3559,1.3573,0.0,0.0,0.0,0.0,0.0,0.0,0.0,0.0,0.0,0.0,0.0,0.0,0.0,0.0,-0.7083,-0.7041,-0.6774,-0.652,-0.6392,-0.619,-0.5922,-0.5707,-0.5371,-0.5067,-0.4753,-0.4753,0.0,0.0,0.0,0.0,0.0,-0.3964,-0.3579,-0.2845,-0.1488,-0.0552,0.0,0.0,0.0,0.0281,0.0,0.0,0.3013,0.3104,0.312,0.3214,0.4229,0.4408,0.4042,0.406,0.4001,0.3779,0.3028,0.286,0.2947,0.2971,0.321,0.3551,0.3846,0.3751,0.0,0.0,0.0,0.0,0.6297,0.7057,0.7702,0.7786,0.8426,0.8981,0.913,0.9442,0.9795,1.0148,1.0324,1.0385,1.0297,1.0446,1.0555,1.05,1.0582,1.0663,1.0717,1.0717,1.0717,1.0717,1.0717,1.0717,1.0717,1.0867,1.0962,1.0859,1.094,1.1056,1.1063,1.0982,1.1043,1.109,1.1192,1.1294,1.1396,1.1592,1.1735,1.1843,1.2101,1.2379,1.2671,1.2922,1.3051,1.3119,1.3268,1.3322,1.3329,1.3383,1.3403,1.3417,0.0,0.0,0.0,0.0,0.0,0.0,0.0,0.0,0.0,0.0,0.0,0.0,0.0,0.0,0.0,-0.666,-0.6514,-0.6343,-0.619,-0.5901,-0.5685,-0.5491,-0.5198,-0.499,-0.499,-0.4753,-0.4576,0.0,0.0,0.0,0.0,0.0,-0.3761,0.0,-0.2645,-0.1406,0.0471,0.0,0.0822,0.1344,0.0,0.2982,0.4223,0.5235,0.5142,0.4606,0.5432,0.5361,0.4823,0.4447,0.4442,0.4527,0.3609,0.3227,0.33,0.4062,0.4169,0.3921,0.0,0.0,0.0,0.0,0.0,0.0,0.597,0.6658,0.7053,0.738,0.7973,0.8335,0.8676,0.8825,0.9171,0.989,1.0148,1.0263,1.0263,1.027,1.0324,1.046,1.048,1.0548,1.069,1.0711,1.0711,1.0711,1.0711,1.0717,1.0717,1.086,1.0941,1.0941,1.0799,1.0717,1.0717,1.0717,1.0792,1.0941,1.0948,1.1097,1.1382,1.1389,1.1545,1.183,1.1993,1.2223,1.2501,1.2664,1.282,1.2969,1.3112,1.3166,1.3193,1.3342,1.3397,1.3403,0.0,0.0,0.0,0.0,0.0,0.0,0.0,0.0,0.0,0.0,0.0,0.0,0.0,0.0,-0.6742,-0.6556,-0.6591,-0.6476,-0.6214,-0.6281,-0.6157,-0.5685,-0.5371,-0.5067,-0.4709,-0.4753,-0.4517,0.0,0.0,0.0,0.0,0.0,0.0,0.0,-0.2704,-0.1875,-0.1011,-0.0421,0.0,0.1787,0.2394,0.337,0.4589,0.5058,0.4929,0.4634,0.5348,0.5456,0.5377,0.5639,0.5559,0.5282,0.463,0.4572,0.4853,0.5078,0.5147,0.5255,0.5275,0.0,0.0,0.0,0.0,0.0,0.6004,0.6676,0.6802,0.5624,0.7044,0.8472,0.8404,0.8601,0.8838,0.9049,0.9483,0.9795,0.9795,0.9978,1.0127,1.0168,1.027,1.0358,1.0399,1.0399,1.0446,1.0548,1.0555,1.0602,1.0717,1.0758,1.0785,1.0785,1.0744,1.0717,1.0717,1.0717,1.0744,1.0785,1.0894,1.0989,1.1077,1.1294,1.1436,1.1531,1.1904,1.2108,1.221,1.2576,1.2752,1.2807,1.2963,1.3085,1.318,1.322,1.3308,1.3403,0.0,0.0,0.0,0.0,0.0,0.0,0.0,0.0,0.0,0.0,0.0,0.0,0.0,0.0,0.0,-0.6347,-0.6411,-0.6326,-0.5959,-0.6065,-0.5922,-0.5435,-0.5287,-0.5021,-0.4622,-0.478,-0.465,-0.416,0.0,0.0,0.0,0.0,0.0,0.0,0.0,0.0,0.0,0.0,0.0,0.0,0.2529,0.3553,0.4879,0.531,0.5273,0.5062,0.5677,0.5996,0.6097,0.6146,0.6019,0.5725,0.5359,0.5685,0.6056,0.5893,0.6184,0.6415,0.6345,0.6349,0.6277,0.6502,0.0,0.0,0.637,0.6152,0.5911,0.5691,0.709,0.8397,0.8377,0.8501,0.8675,0.8737,0.895,0.9231,0.9408,0.9625,0.9815,0.9937,1.0032,1.0141,1.027,1.0283,1.0317,1.0399,1.0405,1.0466,1.0616,1.0622,1.0656,1.0717,1.0717,1.0717,1.0717,1.0717,1.0717,1.0724,1.0812,1.0853,1.0867,1.1124,1.1294,1.1409,1.1796,1.1965,1.1993,1.2318,1.2522,1.2651,1.2807,1.2915,1.3003,1.3125,1.3227,1.3315,0.0,0.0,0.0,0.0,0.0,0.0,0.0,0.0,0.0,0.0,0.0,0.0,0.0,0.0,0.0,0.0,-0.6146,-0.6016,-0.5659,-0.5573,-0.5428,-0.511,-0.507,-0.4942,-0.4684,-0.4884,-0.4832,-0.4525,0.0,0.0,0.0,0.0,0.0,0.0,0.0,0.0,0.0,0.0,0.0,0.22,0.2724,0.382,0.5121,0.5687,0.5753,0.5611,0.6296,0.6634,0.681,0.6198,0.6045,0.6043,0.6031,0.6577,0.7039,0.6649,0.7037,0.7524,0.7089,0.7068,0.7107,0.7018,0.6965,0.0,0.6928,0.5784,0.5174,0.7009,0.7866,0.8426,0.8549,0.8461,0.8484,0.8797,0.8675,0.8608,0.911,0.9245,0.9442,0.9734,0.9774,0.9876,1.0154,1.0195,1.0215,1.0229,1.0263,1.0337,1.046,1.0466,1.0527,1.067,1.0683,1.0697,1.0697,1.0711,1.0717,1.0717,1.0717,1.0724,1.0864,1.1063,1.1283,1.1382,1.1681,1.1816,1.1843,1.1999,1.2216,1.2467,1.2623,1.2691,1.2739,1.3024,1.3146,1.3193,-0.8414,0.0,0.0,0.0,0.0,0.0,0.0,0.0,0.0,0.0,0.0,0.0,0.0,0.0,0.0,0.0,-0.6173,-0.6101,-0.5853,-0.5868,0.0,-0.5673,-0.5217,-0.5029,-0.5097,-0.4873,-0.4734,-0.4751,0.0,0.0,0.0,0.0,0.0,0.0,0.0,0.0,0.0,0.0,0.0,0.08,0.3948,0.5155,0.5173,0.5965,0.6126,0.5906,0.6197,0.6417,0.6552,0.6322,0.6376,0.6548,0.6371,0.6929,0.765,0.7152,0.7684,0.816,0.7711,0.7668,0.7749,0.7759,0.761,0.0,0.8093,0.7763,0.751,0.8153,0.8505,0.8547,0.8449,0.8582,0.8653,0.8802,0.8723,0.8689,0.8954,0.9008,0.9137,0.9435,0.9469,0.949,0.9551,0.9666,0.9788,0.9903,1.0141,1.029,1.0324,1.0324,1.0337,1.0365,1.048,1.0534,1.0534,1.0656,1.0717,1.0717,1.0717,1.0717,1.0724,1.0887,1.105,1.1226,1.1531,1.1728,1.1843,1.1999,1.2094,1.2162,1.2318,1.2447,1.2569,1.2752,1.2969,1.3173,-0.7987,0.0,0.0,0.0,0.0,0.0,0.0,0.0,0.0,0.0,0.0,0.0,0.0,0.0,0.0,0.0,0.0,0.0,0.0,-0.5464,-0.5431,-0.5512,-0.5354,-0.5205,-0.5098,-0.4976,-0.4807,-0.4711,0.0,0.0,0.0,0.0,0.0,0.0,0.0,0.0,0.0,0.0,-0.1191,0.0231,0.1948,0.3471,0.4877,0.581,0.6015,0.5896,0.6371,0.6525,0.6619,0.6617,0.6758,0.6982,0.6698,0.7384,0.8313,0.7668,0.8079,0.8635,0.8179,0.8046,0.8146,0.8174,0.822,0.0,0.0,0.8639,0.8667,0.8706,0.8787,0.9006,0.9205,0.896,0.896,0.9123,0.8989,0.8962,0.9269,0.9124,0.8927,0.9137,0.9232,0.9313,0.9374,0.9345,0.9446,0.9707,0.9856,1.0012,1.0154,1.0168,1.0202,1.0276,1.0351,1.0419,1.0493,1.0568,1.0643,1.0717,1.0717,1.0717,1.0724,1.09,1.1023,1.1248,1.1389,1.1592,1.1735,1.1809,1.1843,1.187,1.2169,1.2332,1.2427,1.2651,1.2827,1.2969,-0.7599,0.0,0.0,0.0,0.0,0.0,0.0,0.0,0.0,0.0,0.0,0.0,0.0,0.0,0.0,0.0,0.0,0.0,-0.5121,-0.4868,-0.4855,-0.5132,-0.5235,-0.5255,-0.5022,-0.4961,-0.4809,-0.4678,0.0,0.0,0.0,0.0,0.0,0.0,0.0,0.0,0.0,0.0,0.0,0.0082,-0.0,0.1665,0.4207,0.5543,0.5899,0.5817,0.6492,0.6742,0.6773,0.692,0.7146,0.7369,0.7174,0.7962,0.8834,0.8227,0.8529,0.8948,0.8564,0.846,0.8495,0.857,0.8772,0.9082,0.0,0.0,0.0,0.91,0.922,0.9412,0.9784,0.9511,0.9246,0.9503,0.9414,0.9466,0.9808,0.955,0.9197,0.914,0.9167,0.9298,0.9408,0.9231,0.9312,0.9564,0.9571,0.968,0.9917,0.9951,1.0019,1.0148,1.0209,1.029,1.0405,1.0493,1.0582,1.0677,1.0704,1.0717,1.0724,1.0752,1.0975,1.1159,1.1246,1.1436,1.1579,1.1606,1.1619,1.166,1.2047,1.2216,1.2277,1.2549,1.2678,1.2766,-0.7795,-0.7702,0.0,0.0,0.0,0.0,0.0,0.0,0.0,0.0,0.0,0.0,0.0,0.0,0.0,0.0,-0.3489,-0.418,-0.454,-0.4454,-0.4491,-0.4833,-0.4761,-0.4838,-0.5091,-0.458,-0.4482,-0.484,0.0,0.0,0.0,0.0,0.0,0.0,-0.2183,0.0,0.0,0.0,-0.1347,0.0163,0.1586,0.238,0.2835,0.5009,0.5881,0.6129,0.6642,0.6905,0.6907,0.7234,0.7335,0.7495,0.8106,0.8674,0.9028,0.8834,0.919,0.9581,0.8955,0.9083,0.9261,0.9441,0.9529,0.9719,0.9885,0.0,0.9898,0.9774,0.0,0.9991,0.9666,0.0,0.0,0.9946,1.01,1.0103,1.0046,1.0433,1.0469,0.9786,0.9728,0.9639,0.9461,0.915,0.9063,0.9429,0.9559,0.9573,0.9607,0.9598,0.9666,0.9686,0.9937,1.008,1.01,1.0364,1.0498,1.0521,1.0656,1.0717,1.0717,1.0744,1.0826,1.0968,1.1124,1.1274,1.143,1.1565,1.1619,1.164,1.1816,1.1965,1.2108,1.2277,1.2508,1.2732,-0.7489,-0.7637,0.0,0.0,0.0,0.0,0.0,0.0,0.0,0.0,0.0,0.0,0.0,0.0,-0.3538,0.0,-0.256,-0.3487,-0.3876,-0.3646,0.0,-0.4739,-0.4498,-0.4467,-0.4622,-0.4224,-0.4082,0.0,-0.3784,0.0,0.0,0.0,0.0,0.0,-0.2384,0.0,-0.1146,0.0,-0.0829,0.1447,0.3386,0.407,0.4039,0.5389,0.6251,0.6699,0.6967,0.7054,0.7021,0.729,0.7516,0.7678,0.7997,0.8494,0.8836,0.8696,0.8955,0.9082,0.8751,0.8786,0.8976,0.9118,0.9548,1.0,1.0357,1.0609,1.0757,1.0782,0.0,0.0,0.0,0.0,0.0,0.0,1.0715,1.0742,1.0773,1.0905,1.0611,0.9902,0.98,0.967,0.9377,0.9368,0.899,0.8082,0.9036,0.9701,0.987,0.9503,0.9372,0.9476,0.9686,0.9836,0.9917,1.0276,1.0384,1.0491,1.069,1.0717,1.0717,1.0717,1.0758,1.096,1.0975,1.1158,1.1362,1.145,1.1538,1.1626,1.1687,1.1748,1.2004,1.2257,1.244,1.2501,-0.7081,0.0,0.0,0.0,0.0,0.0,0.0,0.0,0.0,0.0,0.0,0.0,-0.2213,-0.2971,-0.26,-0.0,-0.144,-0.2619,-0.304,-0.2691,-0.2986,-0.4312,-0.4077,-0.3827,-0.3604,-0.3732,-0.3651,0.0,0.0,0.0,0.0,0.0,0.0,0.0,0.0,-0.2026,-0.1035,0.0,0.1547,0.3622,0.4858,0.5441,0.5577,0.598,0.6599,0.721,0.7204,0.7231,0.7292,0.7482,0.7658,0.7828,0.8007,0.8337,0.868,0.8604,0.8666,0.8728,0.8618,0.8751,0.8927,0.9133,0.9685,1.0389,1.0737,1.1109,1.1359,1.1555,1.1388,0.0,0.0,0.0,1.1218,1.1216,0.0,1.138,1.1541,1.1429,1.0972,1.017,0.9999,0.9894,0.9797,0.9047,0.8342,0.7768,0.9083,0.9902,0.9888,0.949,0.9334,0.932,0.951,0.9659,0.9761,1.0066,1.0344,1.0464,1.0636,1.0677,1.0717,1.0717,1.0724,1.0864,1.088,1.105,1.1233,1.1341,1.1477,1.1619,1.1619,1.1619,1.1832,1.2189,1.2338,1.2325,-0.6575,-0.7057,0.0,0.0,0.0,0.0,0.0,0.0,-0.5763,-0.5576,-0.498,-0.3751,-0.132,-0.2254,-0.1699,0.1864,-0.0,-0.1544,-0.1928,-0.1605,-0.1858,-0.3106,-0.3238,-0.2824,-0.1816,-0.3114,-0.3258,-0.2174,0.0,0.0,0.0,0.0,0.0,0.0,0.0,-0.1828,-0.0734,0.4529,0.6812,0.6853,0.5573,0.5836,0.7012,0.6672,0.6917,0.7394,0.7373,0.7461,0.7604,0.7753,0.7801,0.7862,0.8463,0.8678,0.872,0.8855,0.8898,0.8905,0.8898,0.9341,0.9801,0.9911,1.0373,1.0956,1.0956,1.1181,1.1458,1.1608,1.1713,1.1722,1.1353,1.1496,1.1636,1.1426,1.1813,0.0,0.0,1.2133,1.1899,1.0958,1.0594,1.0602,1.0785,0.7618,0.6737,0.9715,1.01,0.9876,0.955,0.9546,0.9497,0.9157,0.9456,0.9612,0.9618,0.991,1.0134,1.0297,1.0432,1.0575,1.0717,1.0717,1.0717,1.0731,1.088,1.0955,1.0982,1.1274,1.1335,1.1469,1.1619,1.1619,1.1653,1.1965,1.2169,1.2311,0.0,0.0,0.0,0.0,0.0,0.0,-0.6204,-0.5732,-0.5505,-0.5827,-0.5261,-0.4302,-0.273,-0.2504,-0.0181,0.5609,0.1392,-0.1276,-0.0705,-0.0519,-0.085,-0.1833,-0.2242,-0.1643,-0.008,-0.1026,-0.1644,-0.1803,-0.2164,0.0,0.0,0.0,0.0,0.0,0.0,-0.008,0.0,0.0,0.0,0.6994,0.6062,0.6196,0.6858,0.7018,0.7204,0.74,0.7463,0.7604,0.7638,0.7778,0.7798,0.7848,0.8151,0.8289,0.848,0.8529,0.8612,0.8563,0.857,0.8626,0.8941,0.914,1.0046,1.0891,1.1458,1.2185,1.2824,1.2871,1.3031,1.2945,1.22,1.2337,1.2644,1.2499,1.2427,1.2515,0.0,1.236,1.2155,1.2371,1.1639,1.118,1.1061,0.9959,0.9877,1.1451,1.1193,1.0794,1.0467,1.0181,0.9594,0.9035,0.9211,0.9388,0.9432,0.9781,0.9992,1.0049,1.0392,1.0521,1.0575,1.0677,1.0717,1.0724,1.0772,1.0853,1.0955,1.1056,1.124,1.1463,1.147,1.1531,1.1653,1.1952,1.2054,1.2244,-0.6781,0.0,0.0,0.0,-0.6431,-0.6107,-0.5879,-0.5432,-0.5117,-0.5212,-0.4619,-0.3779,-0.2795,-0.2173,-0.0,0.4772,0.1354,-0.0761,-0.0,-0.0,-0.0269,-0.0785,-0.1412,-0.0965,0.0511,0.0429,-0.0,-0.0674,-0.1471,-0.2088,0.0,0.0,0.0,0.0,0.0,0.1137,0.3065,0.3413,0.4802,0.663,0.652,0.6626,0.6854,0.733,0.7435,0.753,0.763,0.7664,0.7787,0.7872,0.7872,0.7909,0.8011,0.8106,0.8187,0.8187,0.8255,0.8303,0.8214,0.8371,0.857,0.8772,0.9595,1.0474,1.1032,1.1785,1.2361,1.2514,1.3069,1.3296,1.2726,1.3206,1.3627,1.3464,1.3257,1.3169,0.0,1.2964,1.2808,1.2987,1.2231,1.1678,1.1737,1.1652,1.1726,1.2183,1.1782,1.1337,1.0921,1.054,0.9846,0.8974,0.9089,0.9252,0.9352,0.9652,0.9863,0.9968,1.031,1.0439,1.0493,1.0649,1.0717,1.0717,1.0717,1.0778,1.0873,1.0928,1.109,1.1314,1.1369,1.1484,1.1647,1.1891,1.2013,1.2244,0.0,-0.6184,-0.643,-0.6761,-0.6009,-0.5392,-0.5377,-0.5027,-0.4501,-0.3752,-0.3054,-0.2387,-0.1466,-0.1377,-0.0991,-0.0101,-0.0,-0.0,-0.0,-0.0,-0.0,-0.0,-0.0818,-0.082,-0.0,0.111,0.1497,0.0991,-0.0896,0.0,0.0,0.0,0.0,0.0,0.1335,0.0,0.2022,0.3075,0.4389,0.5858,0.6734,0.7019,0.6973,0.739,0.7646,0.764,0.7778,0.7916,0.8038,0.8038,0.8038,0.8038,0.8038,0.8038,0.8038,0.8038,0.8038,0.8038,0.8038,0.8452,0.8877,0.857,0.9241,0.9919,0.9816,1.0054,1.0242,1.0643,1.1768,1.2757,1.2795,1.376,1.446,1.4223,1.419,1.4113,1.3649,1.4028,1.3909,1.2963,1.2368,1.23,1.2705,1.2282,1.1932,1.2003,1.2096,1.1815,1.1005,1.0824,1.0147,0.9085,0.9089,0.9225,0.9381,0.9537,0.9754,1.0039,1.0202,1.0351,1.0487,1.0649,1.0717,1.0717,1.0717,1.0717,1.0731,1.0873,1.1023,1.1165,1.1321,1.1484,1.1647,1.1782,1.2033,1.2318,-0.618,-0.6156,-0.6041,-0.5768,-0.553,-0.5291,-0.5005,-0.4432,-0.369,-0.2782,-0.285,-0.231,-0.0498,-0.0401,-0.0301,-0.0,-0.0,-0.0,-0.0,-0.0,-0.0,-0.0,-0.0189,-0.019,-0.0,0.0925,0.1506,0.1536,0.0452,0.0,-0.0091,0.0,0.0,0.0,0.0,0.0,0.2195,0.304,0.4522,0.6276,0.7095,0.7465,0.7483,0.7707,0.7713,0.7775,0.7939,0.8004,0.8038,0.8038,0.8038,0.8038,0.8038,0.8038,0.8038,0.8038,0.8038,0.8038,0.8038,0.8092,0.8282,0.8296,0.9075,0.9884,1.0218,1.0819,1.1371,1.1558,1.1951,1.2575,1.2975,1.3532,1.4025,1.4691,1.4628,1.4483,1.4376,1.437,1.4227,1.4181,1.3696,1.3205,1.28,1.2527,1.2526,1.2779,1.2535,1.2587,1.2849,1.1558,1.0799,1.0912,0.9785,0.9232,0.9285,0.9537,0.97,0.9883,1.0154,1.0297,1.0344,1.0602,1.0717,1.0717,1.0717,1.0717,1.0724,1.0765,1.0867,1.1016,1.1165,1.145,1.1789,1.2017,1.2135,1.2454,-0.59,-0.596,-0.5839,-0.5315,-0.5078,-0.4836,-0.4697,-0.4068,-0.337,-0.2827,-0.253,-0.1927,-0.0804,-0.0303,-0.0,-0.0,-0.0,-0.0,-0.0,-0.0,-0.0,-0.0,-0.0,-0.0,-0.0,0.056,0.1138,0.1941,0.1299,0.0825,0.0655,0.0,0.0,0.0,0.0,0.1546,0.191,0.3386,0.4939,0.6429,0.7305,0.7537,0.0,0.7739,0.7872,0.785,0.7972,0.8038,0.8038,0.8038,0.8038,0.8038,0.8038,0.8038,0.8038,0.8038,0.8038,0.8038,0.8038,0.8038,0.8079,0.8235,0.8702,0.9188,0.9448,1.0014,1.0428,1.0428,1.1109,1.189,1.2117,1.3325,1.4526,1.5401,1.5243,1.4985,1.4846,1.4943,1.4854,1.4691,1.4684,1.4288,1.362,1.3266,1.305,1.3266,1.3132,1.3184,1.3277,1.2327,1.1765,1.1948,1.0576,1.02,1.0994,1.0053,1.0051,1.0762,1.0447,1.0283,1.029,1.0588,1.0717,1.0717,1.0717,1.0717,1.0717,1.0717,1.0812,1.0968,1.1179,1.1538,1.1938,1.212,1.2162,1.242,-0.5363,-0.5588,-0.5564,-0.5049,-0.452,-0.4205,-0.4414,-0.3774,-0.3194,-0.3052,-0.2269,-0.1713,-0.1617,-0.0606,-0.0,-0.0,-0.0,-0.0,-0.0,-0.0,-0.0,-0.0,-0.0,-0.0,-0.0,-0.0,0.0765,0.2212,0.1913,0.1624,0.0,0.0,0.0,0.0,0.0,0.0,0.0,0.4133,0.5649,0.6537,0.7341,0.7617,0.7521,0.7718,0.7945,0.8038,0.8038,0.8038,0.8038,0.8038,0.8038,0.8038,0.8038,0.8038,0.8038,0.8038,0.8038,0.8038,0.8038,0.8038,0.8072,0.8208,0.8269,0.833,0.8452,0.8615,0.8743,0.8743,0.9824,1.0811,1.106,1.335,1.5278,1.6018,1.5959,1.5678,1.5337,1.5512,1.5478,1.4986,1.5164,0.0,1.4948,1.4172,1.3688,1.3692,1.3849,1.3668,1.3205,1.309,1.2989,1.2711,1.1527,1.1585,1.3224,1.0982,1.0443,1.1721,1.0749,1.0263,1.029,1.0588,1.0717,1.0717,1.0717,1.0717,1.0717,1.0717,1.0819,1.1002,1.128,1.1653,1.2033,1.2054,1.2155,1.2311,-0.4641,-0.4551,-0.4506,-0.442,-0.3732,-0.3468,-0.421,-0.3599,-0.2655,-0.1844,-0.2263,-0.2384,-0.1715,-0.0606,-0.0,-0.0,-0.0,-0.0,-0.0,-0.0,-0.0,-0.0,-0.0,-0.0,-0.0,-0.0,0.0581,0.17,0.223,0.2118,0.1562,0.1563,0.0,0.0,0.0,0.0,0.387,0.5398,0.6301,0.683,0.7633,0.7959,0.7879,0.7979,0.7959,0.8038,0.8038,0.8038,0.8038,0.8038,0.8038,0.8038,0.8038,0.8038,0.8038,0.8038,0.8038,0.8038,0.8038,0.8038,0.8045,0.8072,0.8262,0.8452,0.8479,0.8696,0.8899,0.8899,0.9051,0.9676,1.0923,1.3688,1.5557,1.4944,1.6217,1.6925,1.6156,1.5311,1.5093,1.6214,1.4987,1.4565,1.5978,1.502,1.4382,1.4484,1.4328,1.4424,1.5011,1.4117,1.4155,1.5128,1.2708,1.1996,1.3184,1.0936,0.9971,1.0393,1.0191,1.0195,1.029,1.0451,1.0585,1.0717,1.0717,1.0717,1.0717,1.0717,1.088,1.1145,1.1321,1.1586,1.1884,1.2013,1.2155,1.2311,-0.3997,-0.4046,0.0,-0.4232,-0.3524,-0.3266,-0.415,-0.3113,-0.1834,-0.0794,-0.1096,-0.12,-0.0807,-0.0303,-0.0,-0.0,-0.0,-0.0,-0.0,-0.0,-0.0,-0.0,-0.0,-0.0,-0.0,-0.0,0.0583,0.1716,0.282,0.2907,0.209,0.2065,0.1905,0.0,0.0,0.3728,0.0,0.5806,0.658,0.7036,0.7739,0.8038,0.8038,0.8038,0.8038,0.8038,0.8038,0.8038,0.8038,0.8038,0.8038,0.8038,0.8038,0.8038,0.8038,0.8038,0.8038,0.8038,0.8038,0.8038,0.8058,0.814,0.8269,0.8391,0.8465,0.8655,0.8818,0.8818,0.8886,0.9314,1.0811,1.2274,1.3266,1.3618,1.495,1.5861,1.5446,1.4897,1.485,1.5761,1.4931,1.4804,1.5806,1.6034,1.5885,1.5147,1.4908,1.5183,1.5986,1.5125,1.4815,1.512,1.3346,1.2985,1.4392,1.1456,1.0631,1.2166,1.0818,1.0229,1.029,1.0451,1.0585,1.0717,1.0717,1.0717,1.0724,1.0806,1.0968,1.1179,1.1335,1.1619,1.1959,1.2033,1.2203,1.2413,-0.3507,-0.3818,-0.4073,-0.3924,-0.3144,-0.2956,-0.4076,-0.2759,-0.1213,-0.0101,-0.0,-0.0,-0.0,-0.0,-0.0,-0.0,-0.0,-0.0,-0.0,-0.0,-0.0,-0.0,-0.0,-0.0,-0.0,0.107,0.186,0.2219,0.3546,0.3736,0.2804,0.2599,0.2534,0.2516,0.3816,0.4651,0.5387,0.6184,0.6836,0.7434,0.7839,0.8038,0.8038,0.8038,0.8038,0.8038,0.8038,0.8038,0.8038,0.8038,0.8038,0.8038,0.8038,0.8038,0.8038,0.8038,0.8038,0.8038,0.8038,0.8065,0.8119,0.8241,0.8316,0.8391,0.8506,0.8648,0.8757,0.8757,0.8852,0.9307,1.0428,1.0802,1.144,1.286,1.4187,1.5081,1.5413,1.4793,1.454,1.5171,1.4826,1.4904,1.5591,1.686,1.7217,1.6124,1.5945,1.594,1.615,1.6087,1.564,1.4922,1.4147,1.4301,1.538,1.2052,1.1479,1.3383,1.1285,1.0256,1.029,1.0588,1.0717,1.0717,1.0717,1.0717,1.0731,1.0921,1.1063,1.1185,1.1402,1.1701,1.202,1.2088,1.2257,1.2461,-0.3338,-0.3592,-0.3762,-0.3368,-0.2013,-0.1677,-0.3997,-0.275,-0.1213,-0.0101,-0.0,-0.0,-0.0,-0.0,-0.0,-0.0,-0.0,-0.0,-0.0,-0.0,-0.0,-0.0,-0.0,-0.0,-0.0,0.473,0.6152,0.383,0.45,0.4564,0.3834,0.3387,0.3635,0.4462,0.4732,0.556,0.6846,0.7081,0.7441,0.7939,0.7939,0.8038,0.8038,0.8038,0.8038,0.8038,0.8038,0.8038,0.8038,0.8038,0.8038,0.8038,0.8038,0.8038,0.8038,0.8038,0.8038,0.8038,0.8038,0.814,0.8255,0.8269,0.8472,0.8676,0.8682,0.8804,0.892,0.892,0.8927,0.894,0.9064,1.0588,1.2292,1.3738,1.5457,1.6979,1.8288,1.5749,1.4318,1.5775,1.4483,1.4243,1.62,1.7218,1.7754,1.7655,1.7527,1.6626,1.4924,1.6706,1.7173,1.592,1.6081,1.5732,1.4794,1.2873,1.1421,1.0379,1.0177,1.0055,1.029,1.0451,1.0585,1.0717,1.0717,1.0717,1.0744,1.1029,1.1151,1.1206,1.1626,1.1816,1.1884,1.2169,1.2284,1.2332,-0.1825,-0.2279,-0.2848,-0.342,-0.298,-0.2349,-0.183,-0.1625,-0.1213,-0.0101,-0.0,-0.0,-0.0,-0.0,-0.0,-0.0,-0.0,-0.0,-0.0,-0.0,-0.0,-0.0,-0.0,-0.0,-0.0,0.5262,0.7446,0.6379,0.5896,0.5351,0.4758,0.444,0.4571,0.5225,0.5801,0.6443,0.7162,0.7515,0.7839,0.8038,0.8038,0.8092,0.818,0.818,0.8228,0.8303,0.8303,0.8303,0.8303,0.8303,0.8187,0.8038,0.8038,0.8038,0.8058,0.8153,0.818,0.8201,0.8282,0.835,0.8418,0.8513,0.8621,0.8737,0.8825,0.8893,0.894,0.894,0.894,0.894,0.894,0.9529,1.0755,1.2511,1.3144,1.4395,1.7462,1.4593,1.3253,1.6346,1.5011,1.4126,1.5164,1.7171,1.8076,1.7346,1.7344,1.7147,1.6599,1.6325,1.5774,1.4894,1.5322,1.474,1.2946,1.2812,1.2306,1.1449,1.0545,1.0283,1.0412,1.0622,1.0585,1.0717,1.0717,1.0785,1.0779,1.109,1.1219,1.1335,1.1694,1.1884,1.1993,1.221,1.2345,1.2427,-0.0665,-0.0939,-0.1599,-0.2531,-0.273,-0.2061,-0.0304,-0.0608,-0.0808,-0.0101,-0.0,-0.0,-0.0,-0.0,-0.0,-0.0,-0.0,-0.0,-0.0,-0.0,-0.0,-0.0,-0.0,-0.0,-0.0,0.444,0.7238,0.7962,0.6833,0.6092,0.5741,0.5394,0.5527,0.6116,0.6645,0.7111,0.7497,0.7859,0.8092,0.8167,0.8126,0.8201,0.833,0.833,0.8397,0.8479,0.8479,0.8479,0.8479,0.8479,0.8343,0.8167,0.8167,0.8167,0.8194,0.8303,0.833,0.8357,0.8459,0.8513,0.8574,0.8682,0.8743,0.8804,0.8913,0.894,0.894,0.894,0.894,0.894,0.894,0.894,0.9565,1.1637,1.1629,1.2785,1.6973,1.3959,1.2833,1.7086,1.5658,1.4342,1.4456,1.6768,1.7964,1.6998,1.7036,1.7341,1.7696,1.6786,1.5816,1.493,1.5951,1.5257,1.2551,1.3444,1.3102,1.1697,1.0799,1.0392,1.0493,1.0649,1.0717,1.0724,1.0778,1.0745,1.0873,1.1165,1.1294,1.1423,1.1714,1.1925,1.2081,1.2237,1.2379,1.2501,-0.0202,-0.0,-0.0,-0.0,-0.0,-0.0,-0.0,-0.0,-0.0,-0.0,-0.0,-0.0,-0.0,-0.0,-0.0,-0.0,-0.0,-0.0,-0.0,-0.0,-0.0,-0.0,-0.0,-0.0,-0.0,0.2615,0.5331,0.7992,0.7286,0.6856,0.6736,0.6353,0.6545,0.7141,0.7376,0.775,0.8255,0.8106,0.8208,0.8465,0.8323,0.835,0.8479,0.8479,0.8479,0.8479,0.8479,0.8479,0.8479,0.8479,0.8479,0.8479,0.8479,0.8479,0.8479,0.8479,0.8479,0.8479,0.8479,0.8594,0.871,0.871,0.8825,0.894,0.894,0.894,0.894,0.894,0.894,0.894,0.894,0.894,0.9529,1.1672,1.1872,1.3394,1.7915,1.4656,1.3432,1.7893,1.6414,1.4916,1.4641,1.624,1.7177,1.6883,1.6894,1.6941,1.7252,1.8729,1.8743,1.6932,1.896,1.8391,1.4611,1.5075,1.3536,1.0053,1.0351,1.0487,1.0493,1.0649,1.0717,1.0731,1.0792,1.0853,1.0968,1.1267,1.1389,1.1423,1.1714,1.1925,1.2081,1.2237,1.2379,1.2501,-0.0101,-0.0,-0.0,-0.0,-0.0,-0.0,-0.0,-0.0,-0.0,-0.0,-0.0,-0.0,-0.0,-0.0,-0.0,-0.0,-0.0,-0.0,-0.0,-0.0,-0.0,-0.0,-0.0,-0.0,-0.0,0.2615,0.5331,0.7992,0.749,0.7214,0.7172,0.7327,0.7636,0.7991,0.8044,0.822,0.8404,0.8262,0.8309,0.8472,0.833,0.8418,0.8635,0.8635,0.8703,0.8791,0.8791,0.8791,0.8791,0.8791,0.8791,0.8791,0.8791,0.8648,0.8506,0.8608,0.8635,0.8662,0.8764,0.8832,0.8866,0.8866,0.8899,0.894,0.894,0.894,0.894,0.894,0.894,0.894,0.894,0.894,0.9565,1.1629,1.0739,1.1343,1.555,1.3874,1.326,1.5818,1.5468,1.4404,1.2851,1.3941,1.5141,1.6123,1.5148,1.5197,1.6821,1.6574,1.5383,1.3454,1.4562,1.3976,1.1272,1.3031,1.2783,1.0209,1.0399,1.0548,1.0649,1.0697,1.0778,1.088,1.0941,1.1077,1.126,1.1355,1.145,1.1579,1.187,1.202,1.2094,1.2338,1.2461,1.2501,-0.0,-0.0,-0.0,-0.0,-0.0,-0.0,-0.0,-0.0,-0.0,-0.0,-0.0,-0.0,-0.0,-0.0,-0.0,-0.0,-0.0,-0.0,-0.0,-0.0,-0.0,-0.0,-0.0,0.0909,0.2929,0.3623,0.5331,0.7985,0.7743,0.7674,0.7674,0.7938,0.818,0.8275,0.833,0.8397,0.8472,0.833,0.8384,0.8554,0.8411,0.8526,0.8798,0.8798,0.8859,0.894,0.894,0.894,0.894,0.894,0.894,0.894,0.894,0.8804,0.8669,0.8771,0.8798,0.8818,0.8913,0.894,0.894,0.894,0.894,0.894,0.894,0.894,0.894,0.894,0.894,0.894,0.894,0.894,0.9328,1.0634,0.9831,1.0293,1.3814,1.2566,1.2266,1.5139,1.4671,1.3527,1.1982,1.2578,1.3357,1.4277,1.4478,1.4635,1.4968,1.4811,1.4193,1.2909,1.3536,1.28,1.0561,1.2407,1.225,1.0283,1.048,1.0629,1.0717,1.0717,1.0806,1.0955,1.105,1.1206,1.1396,1.145,1.1531,1.164,1.1884,1.2013,1.2094,1.2332,1.2454,1.2501,-0.0,-0.0,-0.0,-0.0,-0.0,-0.0,-0.0,-0.0,-0.0,-0.0,-0.0,-0.0,-0.0,-0.0,-0.0,-0.0,-0.0,-0.0,-0.0,-0.0,-0.0,-0.0,0.0307,0.2934,0.7938,0.5546,0.5527,0.7972,0.8058,0.8058,0.8058,0.8214,0.8289,0.8309,0.8438,0.8506,0.8506,0.8364,0.8465,0.871,0.856,0.8676,0.894,0.894,0.894,0.894,0.894,0.894,0.894,0.894,0.894,0.894,0.894,0.894,0.894,0.894,0.894,0.894,0.894,0.894,0.894,0.894,0.894,0.894,0.894,0.894,0.894,0.894,0.894,0.894,0.894,0.894,0.894,0.894,0.9051,1.0039,1.2597,1.0932,1.1062,1.5281,1.3831,1.2284,1.1647,1.1846,1.1964,1.1882,1.4282,1.4776,1.2432,1.3608,1.433,1.4395,1.4878,1.4125,1.2109,1.2683,1.2075,1.0317,1.0588,1.0724,1.0738,1.0738,1.0826,1.0995,1.108,1.1355,1.1416,1.1558,1.1626,1.1647,1.1789,1.1938,1.2094,1.225,1.2386,1.2501,-0.0,-0.0,-0.0,-0.0,-0.0,-0.0,-0.0,-0.0,-0.0,-0.0,-0.0,-0.0,-0.0,-0.0,-0.0,-0.0,-0.0,-0.0,-0.0,-0.0,-0.0,-0.0,0.3969,0.6741,0.7988,0.7333,0.7359,0.8045,0.816,0.8214,0.8221,0.8364,0.8492,0.8608,0.8642,0.8723,0.8818,0.8669,0.8716,0.8872,0.8716,0.8771,0.894,0.894,0.894,0.894,0.894,0.894,0.894,0.894,0.894,0.894,0.894,0.894,0.894,0.894,0.894,0.894,0.894,0.894,0.894,0.894,0.894,0.894,0.894,0.894,0.894,0.894,0.894,0.894,0.894,0.894,0.894,0.894,0.894,0.9921,1.2597,1.2284,1.217,1.3507,1.2984,1.1673,0.9831,0.9691,1.0453,1.2384,1.1329,1.2114,1.5423,1.2409,1.0601,1.0678,1.1017,1.1004,1.0507,1.0799,1.0883,1.0616,1.0683,1.0778,1.0894,1.0894,1.1036,1.1287,1.1348,1.145,1.1565,1.1606,1.1681,1.1796,1.1945,1.2101,1.225,1.24,1.2474,1.2501,-0.0,-0.0,-0.0,-0.0,-0.0,-0.0,-0.0,-0.0,-0.0,-0.0,-0.0,-0.0,-0.0,-0.0,-0.0,-0.0,-0.0,-0.0,-0.0,-0.0,0.108,0.3569,0.6453,0.7413,0.6225,0.7339,0.8006,0.8147,0.8228,0.8303,0.837,0.852,0.8628,0.8716,0.8784,0.8825,0.8825,0.8743,0.8757,0.8825,0.8743,0.8804,0.894,0.894,0.894,0.894,0.894,0.894,0.894,0.894,0.894,0.894,0.894,0.894,0.894,0.894,0.894,0.894,0.894,0.894,0.894,0.894,0.894,0.894,0.894,0.894,0.894,0.894,0.894,0.894,0.894,0.894,0.8906,0.8818,0.9787,1.1101,1.2505,1.2606,1.2548,1.2776,1.1611,1.0331,0.9064,0.894,0.9439,1.0827,1.0811,1.1481,1.3154,1.1979,1.12,1.12,1.04,0.9964,1.0046,1.0317,1.0541,1.0717,1.0717,1.0765,1.0846,1.0921,1.1077,1.1434,1.1362,1.1477,1.1619,1.1619,1.1701,1.1843,1.1999,1.2155,1.2311,1.2447,1.2549,1.2596,-0.0,-0.0,-0.0,-0.0,-0.0,-0.0,-0.0,-0.0,-0.0,-0.0,-0.0,-0.0,-0.0,-0.0,-0.0,-0.0,-0.0,-0.0,-0.0,-0.0,0.242,0.7755,0.8024,0.6894,0.4667,0.6839,0.8167,0.8303,0.8323,0.8397,0.852,0.8676,0.8743,0.875,0.8879,0.8866,0.8743,0.8743,0.8743,0.8743,0.8743,0.8825,0.894,0.894,0.894,0.894,0.894,0.894,0.894,0.894,0.894,0.894,0.894,0.894,0.894,0.894,0.894,0.894,0.894,0.894,0.894,0.894,0.894,0.894,0.894,0.894,0.894,0.894,0.894,0.894,0.894,0.894,0.9016,0.9341,1.1164,1.2611,1.3003,1.272,1.2548,1.2548,1.0443,0.8947,0.8967,0.8974,0.8988,0.9035,1.115,1.1722,0.9967,1.1804,1.3012,1.3453,1.1202,1.0073,1.0114,1.0392,1.0595,1.0717,1.0744,1.0765,1.0932,1.0941,1.109,1.1386,1.1369,1.1497,1.1619,1.164,1.1735,1.1877,1.204,1.2189,1.2338,1.2461,1.2596,1.2712,-0.0,-0.0,-0.0,-0.0,-0.0,-0.0,-0.0,-0.0,-0.0,-0.0,-0.0,-0.0,-0.0,-0.0,-0.0,-0.0,-0.0,-0.0,-0.0,-0.0,0.2347,0.7768,0.7948,0.7781,0.7434,0.7911,0.8309,0.8452,0.8581,0.8655,0.8676,0.8832,0.8906,0.8906,0.8927,0.8927,0.8906,0.8906,0.8906,0.8906,0.8906,0.892,0.894,0.894,0.894,0.894,0.894,0.894,0.894,0.894,0.894,0.894,0.894,0.894,0.894,0.894,0.894,0.894,0.894,0.894,0.894,0.894,0.894,0.894,0.894,0.894,0.894,0.894,0.894,0.894,0.894,0.894,0.9601,1.2012,1.2382,1.3413,1.5902,1.4109,1.2662,1.288,1.0548,0.8988,0.911,0.9117,0.9225,0.9483,0.9771,1.0801,1.2871,1.1152,1.1358,1.3757,1.1324,1.0168,1.0419,1.0595,1.0697,1.0724,1.0853,1.0975,1.1097,1.1212,1.1369,1.1552,1.1572,1.1599,1.1626,1.1748,1.1891,1.204,1.2196,1.2345,1.2474,1.2494,1.2596,1.2745,-0.0,-0.0,-0.0,-0.0,-0.0,-0.0,-0.0,-0.0,-0.0,-0.0,-0.0,-0.0,-0.0,-0.0,-0.0,-0.0,-0.0,-0.0,-0.0,-0.0,0.1795,0.5971,0.6146,0.6744,0.8086,0.8206,0.8336,0.8479,0.8635,0.875,0.8832,0.8906,0.894,0.894,0.894,0.894,0.894,0.894,0.894,0.894,0.894,0.894,0.894,0.894,0.894,0.894,0.894,0.894,0.894,0.894,0.894,0.894,0.894,0.894,0.894,0.894,0.894,0.894,0.894,0.894,0.894,0.894,0.894,0.896,0.9035,0.9055,0.9076,0.9157,0.911,0.9028,0.9071,0.894,0.9727,1.2445,1.2639,1.3519,1.6183,1.4245,1.2548,1.2662,1.0521,0.9083,0.9144,0.9225,0.9334,0.9476,0.9422,0.9966,1.1335,1.0343,1.0372,1.1878,1.0904,1.0392,1.0616,1.0683,1.0765,1.0846,1.0914,1.1056,1.1253,1.1328,1.1457,1.1619,1.1619,1.1681,1.1782,1.1816,1.1952,1.2149,1.225,1.2379,1.2515,1.2596,1.2725,1.2868,-0.0,-0.0,-0.0,-0.0,-0.0,-0.0,-0.0,-0.0,-0.0,-0.0,-0.0,-0.0,-0.0,-0.0,-0.0,-0.0,-0.0,-0.0,-0.0,0.1345,0.3141,0.5398,0.5511,0.6338,0.8323,0.8323,0.837,0.8479,0.8635,0.8771,0.8886,0.892,0.894,0.894,0.894,0.894,0.894,0.894,0.894,0.894,0.894,0.894,0.894,0.894,0.894,0.894,0.894,0.894,0.894,0.894,0.894,0.894,0.894,0.894,0.894,0.894,0.896,0.8988,0.8988,0.8988,0.8994,0.9035,0.9042,0.9069,0.9178,0.9205,0.9239,0.9354,0.9286,0.9284,0.9293,0.9154,0.9822,1.2374,1.2605,1.3249,1.5237,1.38,1.2418,1.1888,1.0288,0.9218,0.9252,0.9367,0.9449,0.9483,0.9517,0.9591,0.9707,0.9849,1.0053,1.0324,1.0466,1.0602,1.0717,1.0717,1.0799,1.0948,1.0982,1.1118,1.1341,1.1409,1.1511,1.1619,1.1619,1.1735,1.1764,1.1891,1.202,1.223,1.2311,1.2427,1.2569,1.2684,1.2847,1.3003,-0.0,-0.0,-0.0,-0.0,-0.0,-0.0,-0.0,-0.0,-0.0,-0.0,-0.0,-0.0,-0.0,-0.0,-0.0,-0.0,-0.0,-0.0,-0.0,0.5162,0.8339,0.8568,0.8401,0.8327,0.8472,0.8465,0.8472,0.8479,0.8635,0.8716,0.873,0.8872,0.894,0.894,0.894,0.894,0.894,0.894,0.894,0.894,0.894,0.894,0.894,0.894,0.894,0.894,0.894,0.894,0.894,0.894,0.894,0.894,0.894,0.894,0.894,0.894,0.9035,0.9137,0.9137,0.9137,0.9171,0.9313,0.9347,0.9354,0.9361,0.9361,0.9367,0.9381,0.9374,0.9361,0.9354,0.9347,1.0251,1.2702,1.283,1.2821,1.3379,1.2967,1.198,0.9866,0.9483,0.9422,0.9564,0.9585,0.9646,0.9781,0.9917,1.0005,1.0019,1.0161,1.0317,1.0473,1.0622,1.0711,1.0717,1.0717,1.0799,1.0948,1.1084,1.1233,1.1389,1.1538,1.1606,1.1619,1.1619,1.1735,1.1777,1.2006,1.2142,1.2298,1.2433,1.2576,1.2712,1.2725,1.2908,1.3139,-0.0,-0.0,-0.0,-0.0,-0.0,-0.0,-0.0,-0.0,-0.0,-0.0,-0.0,-0.0,-0.0,-0.0,-0.0,-0.0,-0.0,0.1569,0.5278,0.7656,0.8903,0.8883,0.8722,0.8595,0.8628,0.8621,0.8621,0.8621,0.8777,0.8852,0.8852,0.8913,0.894,0.894,0.894,0.894,0.894,0.894,0.894,0.894,0.894,0.894,0.894,0.894,0.894,0.894,0.894,0.894,0.894,0.894,0.894,0.894,0.894,0.894,0.8954,0.9049,0.9178,0.9313,0.9408,0.9367,0.9306,0.9367,0.9381,0.9408,0.9503,0.9523,0.9551,0.9639,0.9585,0.9523,0.9523,0.9442,1.0318,1.2888,1.1836,1.1264,1.3054,1.1827,1.0318,0.9469,0.9496,0.9544,0.9605,0.9686,0.9802,0.9951,1.0019,1.0093,1.0188,1.0331,1.048,1.0629,1.069,1.0765,1.086,1.086,1.0982,1.1226,1.128,1.1382,1.1538,1.1687,1.1748,1.1755,1.185,1.1993,1.2149,1.2189,1.2359,1.261,1.263,1.2773,1.2963,1.2996,1.3078,1.318,-0.0,-0.0,-0.0,-0.0,-0.0,-0.0,-0.0,-0.0,-0.0,-0.0,-0.0,-0.0,-0.0,-0.0,-0.0,-0.0,0.171,0.4552,0.8639,0.893,0.8883,0.8863,0.8756,0.8662,0.871,0.871,0.8689,0.8635,0.8791,0.8866,0.8866,0.8913,0.894,0.894,0.894,0.894,0.894,0.894,0.894,0.894,0.894,0.894,0.894,0.894,0.894,0.894,0.894,0.894,0.894,0.894,0.894,0.8947,0.8994,0.9035,0.9096,0.9198,0.9334,0.9476,0.9585,0.9564,0.9517,0.9517,0.9517,0.9544,0.9652,0.968,0.97,0.9802,0.9741,0.968,0.968,0.9591,1.0066,1.1897,1.0629,1.0073,1.1913,1.0629,0.9426,0.9486,0.9693,0.9747,0.9747,0.9876,1.0005,1.0114,1.0161,1.0256,1.0412,1.0514,1.0609,1.0717,1.0717,1.0812,1.1016,1.0968,1.1097,1.1389,1.1389,1.147,1.1626,1.1769,1.183,1.1837,1.1993,1.2149,1.2291,1.2291,1.2454,1.2705,1.2725,1.2861,1.3064,1.3146,1.32,1.3261,-0.0,-0.0,-0.0,-0.0,-0.0,-0.0,-0.0,-0.0,-0.0,-0.0,-0.0,-0.0,-0.0,-0.0,-0.0,-0.0,0.5436,0.8845,0.8915,0.8851,0.8863,0.8863,0.8954,0.8866,0.8716,0.871,0.8635,0.8486,0.8635,0.871,0.8716,0.8866,0.894,0.894,0.894,0.894,0.894,0.894,0.894,0.894,0.894,0.894,0.894,0.894,0.894,0.894,0.894,0.894,0.894,0.894,0.894,0.8967,0.911,0.9259,0.9381,0.9381,0.949,0.9612,0.9612,0.9713,0.9822,0.9822,0.9822,0.9822,0.9822,0.9822,0.9822,0.9822,0.9822,0.9822,0.9822,0.9822,0.9781,0.9639,0.9607,0.9647,0.9632,0.9607,0.9694,0.9822,0.9958,1.0046,1.0053,1.0188,1.0283,1.0283,1.0412,1.0561,1.0711,1.0717,1.0717,1.0717,1.0724,1.0867,1.1158,1.1023,1.1097,1.1396,1.1396,1.147,1.1626,1.1769,1.183,1.1843,1.1999,1.2149,1.2291,1.2291,1.2379,1.2522,1.2671,1.2827,1.2983,1.3125,1.3268,1.3403,-0.0,-0.0,-0.0,-0.0,-0.0,-0.0,-0.0,-0.0,-0.0,-0.0,-0.0,-0.0,-0.0,-0.0,-0.0,-0.0,0.3777,0.693,0.8775,0.9131,0.9211,0.9103,0.8994,0.892,0.8872,0.8872,0.8845,0.8804,0.8845,0.8872,0.8872,0.892,0.894,0.894,0.894,0.894,0.894,0.894,0.8994,0.9089,0.9089,0.9089,0.9089,0.9089,0.9028,0.894,0.894,0.9001,0.9089,0.9089,0.9157,0.9259,0.93,0.9415,0.9544,0.9544,0.9646,0.9754,0.9754,0.9788,0.9822,0.9822,0.9822,0.9822,0.9822,0.9822,0.9822,0.9822,0.991,0.9978,0.9978,1.0073,1.0093,0.9944,0.9828,0.9801,0.9781,0.9795,0.9747,0.9888,0.9915,1.0093,1.0202,1.0256,1.0324,1.0419,1.0568,1.067,1.0717,1.0717,1.0717,1.0717,1.0826,1.0968,1.1158,1.1118,1.1253,1.1552,1.1552,1.1626,1.1775,1.1925,1.2054,1.2162,1.2305,1.2393,1.244,1.244,1.2589,1.2827,1.2874,1.3044,1.3275,1.3315,1.3363,1.3403,-0.0,-0.0,-0.0,-0.0,-0.0,-0.0,-0.0,-0.0,-0.0,-0.0,-0.0,-0.0,-0.0,-0.0,0.1071,0.3605,0.4538,0.602,0.8839,0.9231,0.9313,0.9157,0.913,0.9117,0.9117,0.9055,0.9055,0.9117,0.9055,0.9055,0.9117,0.9117,0.9117,0.9117,0.9117,0.9117,0.9117,0.9117,0.9164,0.9245,0.9245,0.9245,0.9245,0.9245,0.9191,0.9117,0.9117,0.9171,0.9245,0.9245,0.9347,0.9469,0.9469,0.9571,0.9693,0.9693,0.9754,0.9822,0.9822,0.9822,0.9836,0.9897,0.991,0.9924,0.9992,1.0005,1.0005,1.0005,1.008,1.0141,1.0141,1.0215,1.0249,1.0154,1.0141,1.0107,1.0012,1.0005,1.0046,1.0168,1.0209,1.0263,1.0351,1.0419,1.0487,1.0575,1.067,1.0717,1.0717,1.0778,1.0812,1.0812,1.0955,1.1104,1.1253,1.1253,1.1375,1.1619,1.1619,1.1694,1.1837,1.1993,1.2149,1.2298,1.244,1.2535,1.2589,1.2528,1.2684,1.2963,1.2963,1.3105,1.3315,1.3376,1.3403,1.3403,-0.0,-0.0,-0.0,-0.0,-0.0,-0.0,-0.0,-0.0,-0.0,-0.0,-0.0,0.0229,0.0835,0.084,0.327,0.9328,0.7074,0.646,0.9085,0.9305,0.9354,0.9198,0.934,0.9422,0.9422,0.9259,0.9245,0.9381,0.9245,0.9245,0.9381,0.9381,0.9381,0.9381,0.9381,0.9381,0.9381,0.9381,0.9388,0.9401,0.9401,0.9401,0.9401,0.9401,0.9395,0.9381,0.9381,0.9388,0.9401,0.9415,0.951,0.9632,0.9632,0.972,0.9822,0.9836,0.9842,0.9842,0.9856,0.9863,0.9897,1.0053,1.0086,1.012,1.0249,1.0283,1.0283,1.0283,1.029,1.0297,1.0297,1.031,1.0317,1.0304,1.0297,1.0297,1.0283,1.0283,1.0283,1.0297,1.0412,1.0493,1.0514,1.0636,1.0717,1.0717,1.0717,1.0717,1.0717,1.0867,1.0948,1.0948,1.1104,1.1253,1.1389,1.1416,1.1497,1.164,1.164,1.1721,1.1877,1.202,1.2169,1.2318,1.2447,1.2589,1.2718,1.2576,1.2705,1.2983,1.2983,1.3064,1.3207,1.3349,1.3403,1.3403,-0.0,-0.0,-0.0,-0.0,-0.0,-0.0,-0.0,-0.0,-0.0,-0.0,-0.0,0.1909,0.714,0.7707,0.8267,0.9691,0.9117,0.889,0.9361,0.9553,0.9659,0.9517,0.9646,0.9727,0.9727,0.9469,0.9347,0.9381,0.9347,0.9347,0.9381,0.9381,0.9381,0.9381,0.9381,0.9381,0.9381,0.9381,0.9449,0.9557,0.9557,0.9557,0.9557,0.9557,0.9483,0.9381,0.9381,0.9456,0.9578,0.9686,0.9747,0.9774,0.9774,0.9795,0.9842,0.9964,0.9998,1.0025,1.0148,1.0181,1.0215,1.0358,1.0399,1.0378,1.0297,1.0283,1.0283,1.0283,1.0371,1.0446,1.0446,1.0541,1.0582,1.0466,1.0446,1.0405,1.0297,1.0283,1.0324,1.0432,1.0473,1.0541,1.0656,1.0704,1.0717,1.0717,1.0717,1.0717,1.0717,1.0867,1.0948,1.0948,1.1206,1.1355,1.1389,1.1619,1.1748,1.1782,1.1782,1.1925,1.2189,1.2223,1.2318,1.2461,1.2488,1.2589,1.2725,1.2698,1.2854,1.3125,1.3125,1.322,1.3356,1.339,1.3403,1.3437,-0.0,-0.0,-0.0,-0.0,-0.0,-0.0,-0.0,-0.0,-0.0,-0.0,-0.0,0.2537,0.9098,0.9781,0.9801,0.9781,0.9747,0.9667,0.952,0.9747,0.9754,0.9618,0.9747,0.9822,0.9822,0.9673,0.9591,0.9591,0.9523,0.9523,0.9591,0.9591,0.9591,0.9591,0.9591,0.9591,0.9591,0.9591,0.9639,0.9707,0.9707,0.9707,0.9707,0.9707,0.9659,0.9591,0.9591,0.9646,0.972,0.9795,0.9869,0.9917,0.9842,0.9924,1.0039,1.0046,1.01,1.0175,1.0256,1.0283,1.0317,1.046,1.0493,1.0493,1.0487,1.0487,1.0487,1.0487,1.0548,1.0602,1.0602,1.0663,1.0697,1.0616,1.0602,1.0575,1.05,1.0487,1.0521,1.0595,1.0602,1.0629,1.0711,1.0717,1.0751,1.0826,1.0826,1.086,1.0928,1.1077,1.1158,1.1158,1.1382,1.1497,1.1497,1.1721,1.187,1.1938,1.1938,1.2067,1.2291,1.2291,1.2366,1.2508,1.2576,1.2698,1.284,1.284,1.3017,1.3275,1.32,1.3268,1.3403,1.3403,1.3403,1.3444,-0.0,-0.0,-0.0,-0.0,-0.0,-0.0,-0.0,-0.0,-0.0,-0.0,-0.0,0.2061,0.7562,0.9186,0.9781,0.9856,0.9849,0.9795,0.9652,0.9754,0.9768,0.9652,0.9754,0.9822,0.9822,0.9822,0.9822,0.9822,0.97,0.9707,0.9822,0.9822,0.9822,0.9822,0.9822,0.9822,0.9822,0.9822,0.9822,0.9822,0.9822,0.9822,0.9822,0.9822,0.9822,0.9822,0.9822,0.9822,0.9822,0.9849,0.9944,1.0032,0.993,1.0073,1.0263,1.0154,1.0215,1.0324,1.0351,1.0358,1.0385,1.05,1.0527,1.0561,1.069,1.0717,1.0717,1.0717,1.0717,1.0717,1.0717,1.0717,1.0717,1.0717,1.0717,1.0717,1.0717,1.0717,1.0717,1.0717,1.0717,1.0717,1.0717,1.0744,1.0812,1.0941,1.0968,1.1036,1.1158,1.1307,1.1389,1.1389,1.1538,1.1619,1.1619,1.1789,1.1932,1.206,1.2115,1.2203,1.2325,1.2325,1.2393,1.2508,1.2637,1.2793,1.2963,1.2976,1.3152,1.339,1.3261,1.3288,1.3403,1.3403,1.3403,1.3444,-0.0,-0.0,-0.0,-0.0,-0.0,-0.0,-0.0,-0.0,-0.0,-0.0,-0.0,0.0369,0.1235,0.6421,0.9761,0.9829,0.9829,0.9815,0.9795,0.9808,0.9815,0.9795,0.9808,0.9822,0.9822,0.9822,0.9822,0.9822,0.9802,0.9802,0.9822,0.9822,0.9822,0.9822,0.9822,0.9822,0.9822,0.9822,0.9822,0.9822,0.9822,0.9822,0.9822,0.9822,0.9822,0.9822,0.9822,0.9822,0.9842,0.9971,1.0032,1.0066,1.0181,1.0249,1.0297,1.0399,1.0446,1.0493,1.0622,1.0663,1.0663,1.0683,1.069,1.0697,1.0717,1.0717,1.0717,1.0717,1.0717,1.0717,1.0717,1.0717,1.0717,1.0717,1.0717,1.0717,1.0717,1.0717,1.0717,1.0717,1.0717,1.0717,1.0717,1.0839,1.0928,1.0948,1.1063,1.1145,1.1158,1.1307,1.1389,1.1389,1.1538,1.1619,1.1619,1.1891,1.204,1.2067,1.2318,1.2454,1.2474,1.2474,1.2481,1.2501,1.2683,1.2855,1.2969,1.3051,1.3214,1.3397,1.3376,1.3383,1.3403,1.3403,1.3403,1.3444,-0.0,-0.0,-0.0,-0.0,-0.0,-0.0,-0.0,-0.0,-0.0,-0.0,-0.0,0.1358,0.5077,0.8049,0.9761,0.9829,0.9822,0.9822,0.9822,0.9822,0.9822,0.9822,0.9822,0.9822,0.9822,0.9822,0.9822,0.9822,0.9822,0.9822,0.9822,0.9822,0.9822,0.9822,0.9822,0.9822,0.9822,0.9822,0.9822,0.9822,0.9822,0.9822,0.9822,0.9822,0.9822,0.9836,0.9951,1.0025,1.0086,1.0154,1.0229,1.0297,1.0283,1.0392,1.0521,1.05,1.0555,1.0636,1.0704,1.0717,1.0717,1.0717,1.0717,1.0717,1.0717,1.0717,1.0717,1.0717,1.0717,1.0717,1.0717,1.0717,1.0717,1.0717,1.0717,1.0717,1.0717,1.0717,1.0717,1.0717,1.0717,1.0717,1.0717,1.086,1.0982,1.1063,1.1206,1.1328,1.1416,1.1484,1.1518,1.1518,1.1586,1.1619,1.1619,1.1911,1.206,1.2067,1.2359,1.2501,1.2501,1.2501,1.2501,1.2508,1.2684,1.2999,1.2976,1.3186,1.3322,1.3403,1.3403,1.3403,1.3403,1.3403,1.3403,1.3417]},{"header":{"parameterUnit":"m.s-1","parameterCategory":1,"la1":30.6,"la2":28.766,"lo1":-90.7593,"lo2":-88.6598,"dy":0.0162,"dx":0.0183,"nx":116,"ny":114,"refTime":"2023-10-21T06:00:00:Z","depth":0,"parameterNumber":3,"parameterNumberName":"V-component_of_WINDS"},"data":[0.0,0.0,0.0,0.0,0.0,0.0,0.0,0.0,0.0,0.0,0.0,0.0,0.0,0.0,0.0,0.0,0.0,0.0,0.0,0.0,0.0,0.0,0.0,0.0,0.0,0.0,0.0,0.0,0.0,0.0,0.0,0.0,0.0,0.0,0.0,0.0,0.0,0.0,0.0,0.0,0.0,0.0,0.0,0.0,0.0,0.0,0.0,0.0,0.0,0.0,0.0,0.0,0.0,0.0,0.0,0.0,0.0,0.0,0.0,0.0,0.0,0.0,0.0,0.0,0.0,0.0,0.0,0.0,0.0,0.0,0.0,0.0,0.0,0.0,0.0,0.0,0.0,0.0,0.0,0.0,0.0,0.0,0.0,0.0,0.0,0.0,0.0,0.0,0.0,0.0,0.0,0.0,0.0,0.0,0.0,0.0,0.0,0.0,0.0,0.0,0.0,0.0,0.0,0.0,0.0,0.0,0.0,0.0,0.0,0.0,0.0,0.0,0.0,0.0,0.0,0.0,0.0,0.0,0.0,0.0,0.0,0.0,0.0,0.0,0.0,0.0,0.0,0.0,0.0,0.0,0.0,0.0,0.0,0.0,0.0,0.0,0.0,0.0,0.0,0.0,0.0,0.0,0.0,0.0,0.0,0.0,0.0,0.0,0.0,0.0,0.0,0.0,0.0,0.0,0.0,0.0,0.0,0.0,0.0,0.0,0.0,0.0,0.0,0.0,0.0,0.0,0.0,0.0,0.0,0.0,0.0,0.0,0.0,0.0,0.0,0.0,0.0,0.0,0.0,0.0,0.0,0.0,0.0,0.0,0.0,0.0,0.0,0.0,0.0,0.0,0.0,0.0,0.0,0.0,0.0,0.0,0.0,0.0,0.0,0.0,0.0,0.0,0.0,0.0,0.0,0.0,0.0,0.0,0.0,0.0,0.0,0.0,0.0,0.0,0.0,0.0,0.0,0.0,0.0,0.0,0.0,0.0,0.0,0.0,0.0,0.0,0.0,0.0,0.0,0.0,0.0,0.0,0.0,0.0,0.0,0.0,0.0,0.0,0.0,0.0,0.0,0.0,0.0,0.0,0.0,0.0,0.0,0.0,0.0,0.0,0.0,0.0,0.0,0.0,0.0,0.0,0.0,0.0,0.0,0.0,0.0,0.0,0.0,0.0,0.0,0.0,0.0,0.0,0.0,0.0,0.0,0.0,0.0,0.0,0.0,0.0,0.0,0.0,0.0,0.0,0.0,0.0,0.0,0.0,0.0,0.0,0.0,0.0,0.0,0.0,0.0,0.0,0.0,0.0,0.0,0.0,0.0,0.0,0.0,0.0,0.0,0.0,0.0,0.0,0.0,0.0,0.0,0.0,0.0,0.0,0.0,0.0,0.0,0.0,0.0,0.0,0.0,0.0,0.0,0.0,0.0,0.0,0.0,0.0,0.0,0.0,0.0,0.0,0.0,0.0,0.0,0.0,0.0,0.0,0.0,0.0,0.0,0.0,0.0,0.0,0.0,0.0,0.0,0.0,0.0,0.0,0.0,0.0,0.0,0.0,0.0,0.0,0.0,0.0,0.0,0.0,0.0,0.0,0.0,0.0,0.0,0.0,0.0,0.0,0.0,0.0,0.0,0.0,0.0,0.0,0.0,0.0,0.0,0.0,0.0,0.0,0.0,0.0,0.0,0.0,0.0,0.0,0.0,0.0,0.0,0.0,0.0,0.0,0.0,0.0,0.0,0.0,0.0,0.0,0.0,0.0,0.0,0.0,0.0,0.0,0.0,0.0,0.0,0.0,0.0,0.0,0.0,0.0,0.0,0.0,0.0,0.0,0.0,0.0,0.0,0.0,0.0,0.0,0.0,0.0,0.0,0.0,0.0,0.0,0.0,0.0,0.0,0.0,0.0,0.0,0.0,0.0,0.0,0.0,0.0,0.0,0.0,0.0,0.0,0.0,0.0,0.0,0.0,0.0,0.0,0.0,0.0,0.0,0.0,0.0,0.0,0.0,0.0,0.0,0.0,0.0,0.0,0.0,0.0,0.0,0.0,0.0,0.0,0.0,0.0,0.0,0.0,0.0,0.0,0.0,0.0,0.0,0.0,0.0,0.0,0.0,0.0,0.0,0.0,0.0,0.0,0.0,0.0,0.0,0.0,0.0,0.0,0.0,0.0,0.0,0.0,0.0,0.0,0.0,0.0,0.0,0.0,0.0,0.0,0.0,0.0,0.0,0.0,0.0,0.0,0.0,0.0,0.0,0.0,0.0,0.0,0.0,0.0,0.0,0.0,0.0,0.0,0.0,0.0,0.0,0.0,0.0,0.0,0.0,0.0,0.0,0.0,0.0,0.0,0.0,0.0,0.0,0.0,0.0,0.0,0.0,0.0,0.0,0.0,0.0,0.0,0.0,0.0,0.0,0.0,0.0,0.0,0.0,0.0,0.0,0.0,0.0,0.0,0.0,0.0,0.0,0.0,0.0,0.0,0.0,0.0,0.0,0.0,0.0,0.0,0.0,0.0,0.0,0.0,0.0,0.0,0.0,0.0,0.0,0.0,0.0,0.0,0.0,0.0,0.0,0.0,0.0,0.0,0.0,0.0,0.0,0.0,0.0,0.0,0.0,0.0,0.0,0.0,0.0,0.0,0.0,0.0,0.0,0.0,0.0,0.0,0.0,0.0,0.0,0.0,0.0,0.0,0.0,0.0,0.0,0.0,0.0,0.0,0.0,0.0,0.0,0.0,0.0,0.0,0.0,0.0,0.0,0.0,0.0,0.0,0.0,0.0,0.0,0.0,0.0,0.0,0.0,0.0,0.0,0.0,0.0,0.0,0.0,0.0,0.0,0.0,0.0,0.0,0.0,0.0,0.0,0.0,0.0,0.0,0.0,0.0,0.0,0.0,0.0,0.0,0.0,0.0,0.0,0.0,0.0,0.0,0.0,0.0,0.0,0.0,0.0,0.0,0.0,0.0,0.0,0.0,0.0,0.0,0.0,0.0,0.0,0.0,0.0,0.0,0.0,0.0,0.0,0.0,0.0,0.0,0.0,0.0,0.0,0.0,0.0,0.0,0.0,0.0,0.0,0.0,0.0,0.0,0.0,0.0,0.0,0.0,0.0,0.0,0.0,0.0,0.0,0.0,0.0,0.0,0.0,0.0,0.0,0.0,0.0,0.0,0.0,0.0,0.0,0.0,0.0,0.0,0.0,0.0,0.0,0.0,0.0,0.0,0.0,0.0,0.0,0.0,0.0,0.0,0.0,0.0,0.0,0.0,0.0,0.0,0.0,0.0,0.0,0.0,0.0,0.0,0.0,0.0,0.0,0.0,0.0,0.0,0.0,0.0,0.0,0.0,0.0,0.0,0.0,0.0,0.0,0.0,0.0,0.0,0.0,0.0,0.0,0.0,0.0,0.0,0.0,0.0,0.0,0.0,0.0,0.0,0.0,0.0,0.0,0.0,0.0,0.0,0.0,0.0,0.0,0.0,0.0,0.0,0.0,0.0,0.0,0.0,0.0,0.0,0.0,0.0,0.0,0.0,0.0,0.0,0.0,0.0,0.0,0.0,0.0,0.0,0.0,0.0,0.0,0.0,0.0,0.0,0.0,0.0,0.0,0.0,0.0,0.0,0.0,0.0,0.0,0.0,0.0,0.0,0.0,0.0,0.0,0.0,0.0,0.0,0.0,0.0,0.0,0.0,0.0,0.0,0.0,0.0,0.0,0.0,0.0,0.0,0.0,0.0,0.0,0.0,0.0,0.0,0.0,0.0,0.0,0.0,0.0,0.0,0.0,0.0,0.0,0.0,0.0,0.0,0.0,0.0,0.0,0.0,0.0,0.0,0.0,0.0,0.0,0.0,0.0,0.0,0.0,0.0,0.0,0.0,0.0,0.0,0.0,0.0,0.0,0.0,0.0,0.0,0.0,0.0,0.0,0.0,0.0,0.0,0.0,0.0,0.0,0.0,0.0,0.0,0.0,0.0,0.0,0.0,0.0,0.0,0.0,0.0,0.0,0.0,0.0,0.0,0.0,0.0,0.0,0.0,0.0,0.0,0.0,0.0,0.0,0.0,0.0,0.0,0.0,0.0,0.0,0.0,0.0,0.0,0.0,0.0,0.0,0.0,0.0,0.0,0.0,0.0,0.0,0.0,0.0,0.0,0.0,0.0,0.0,0.0,0.0,0.0,0.0,0.0,0.0,0.0,0.0,0.0,0.0,0.0,0.0,0.0,0.0,0.0,0.0,0.0,0.0,0.0,0.0,0.0,0.0,0.0,0.0,0.0,0.0,0.0,0.0,0.0,0.0,0.0,0.0,0.0,0.0,0.0,0.0,0.0,0.0,0.0,0.0,0.0,0.0,0.0,0.0,0.0,0.0,0.0,0.0,0.0,0.0,0.0,0.0,0.0,0.0,0.0,0.0,0.0,0.0,0.0,0.0,0.0,0.0,0.0,0.0,0.0,0.0,0.0,0.0,0.0,0.0,0.0,0.0,0.0,0.0,0.0,0.0,0.0,0.0,0.0,0.0,0.0,0.0,0.0,0.0,0.0,0.0,0.0,0.0,0.0,0.0,0.0,0.0,0.0,0.0,0.0,0.0,0.0,0.0,0.0,0.0,0.0,0.0,0.0,0.0,0.0,0.0,0.0,0.0,0.0,0.0,0.0,0.0,0.0,0.0,0.0,0.0,0.0,0.0,0.0,0.0,0.0,0.0,0.0,0.0,0.0,0.0,0.0,0.0,0.0,0.0,0.0,0.0,0.0,0.0,0.0,0.0,0.0,0.0,0.0,0.0,0.0,0.0,0.0,0.0,0.0,0.0,0.0,0.0,0.0,0.0,0.0,0.0,0.0,0.0,0.0,0.0,0.0,0.0,0.0,0.0,0.0,0.0,0.0,0.0,0.0,0.0,0.0,0.0,0.0,0.0,0.0,0.0,0.0,0.0,0.0,0.0,0.0,0.0,0.0,0.0,0.0,0.0,0.0,0.0,0.0,0.0,0.0,0.0,0.0,0.0,0.0,0.0,0.0,0.0,0.0,0.0,0.0,0.0,0.0,0.0,0.0,0.0,0.0,0.0,0.0,0.0,0.0,0.0,0.0,0.0,0.0,0.0,0.0,0.0,0.0,0.0,0.0,0.0,0.0,0.0,0.0,0.0,0.0,0.0,0.0,0.0,0.0,0.0,0.0,0.0,0.0,0.0,0.0,0.0,0.0,0.0,0.0,0.0,0.0,0.0,0.0,0.0,0.0,0.0,0.0,0.0,0.0,0.0,0.0,0.0,0.0,0.0,0.0,0.0,0.0,0.0,0.0,0.0,0.0,0.0,0.0,0.0,0.0,0.0,0.0,0.0,0.0,0.0,0.0,0.0,0.0,0.0,0.0,0.0,0.0,0.0,0.0,0.0,0.0,0.0,0.0,0.0,0.0,0.0,0.0,0.0,0.0,0.0,0.0,0.0,0.0,0.0,0.0,0.0,0.0,0.0,0.0,0.0,0.0,0.0,0.0,0.0,0.0,0.0,0.0,0.0,0.0,0.0,0.0,0.0,0.0,0.0,0.0,0.0,0.0,0.0,0.0,0.0,0.0,0.0,0.0,0.0,0.0,0.0,0.0,0.0,0.0,0.0,0.0,0.0,0.0,0.0,0.0,0.0,0.0,0.0,0.0,0.0,0.0,0.0,0.0,0.0,0.0,0.0,0.0,0.0,0.0,0.0,0.0,0.0,0.0,0.0,0.0,0.0,0.0,0.0,0.0,0.0,0.0,0.0,0.0,0.0,0.0,0.0,0.0,0.0,0.0,0.0,0.0,0.0,0.0,0.0,0.0,0.0,0.0,0.0,0.0,0.0,0.0,0.0,0.0,0.0,0.0,0.0,0.0,0.0,0.0,0.0,0.0,0.0,0.0,0.0,0.0,0.0,0.0,0.0,0.0,0.0,0.0,0.0,0.0,0.0,0.0,0.0,0.0,0.0,0.0,0.0,0.0,0.0,0.0,0.0,0.0,0.0,0.0,0.0,0.0,0.0,0.0,0.0,0.0,0.0,0.0,0.0,0.0,0.0,0.0,0.0,0.0,0.0,0.0,0.0,0.0,0.0,0.0,0.0,0.0,0.0,0.0,0.0,-3.0769,-3.0847,0.0,0.0,0.0,0.0,0.0,0.0,0.0,0.0,0.0,0.0,0.0,0.0,0.0,0.0,0.0,0.0,0.0,0.0,0.0,0.0,0.0,0.0,0.0,0.0,0.0,0.0,0.0,0.0,0.0,0.0,0.0,0.0,0.0,0.0,0.0,0.0,0.0,0.0,0.0,0.0,0.0,0.0,0.0,0.0,0.0,0.0,0.0,0.0,0.0,0.0,0.0,0.0,0.0,0.0,0.0,0.0,0.0,0.0,0.0,0.0,0.0,0.0,0.0,0.0,0.0,0.0,0.0,0.0,0.0,0.0,0.0,0.0,0.0,0.0,0.0,0.0,0.0,0.0,0.0,0.0,0.0,0.0,0.0,0.0,0.0,0.0,0.0,0.0,0.0,0.0,0.0,0.0,0.0,0.0,0.0,0.0,0.0,0.0,0.0,0.0,0.0,0.0,0.0,0.0,0.0,0.0,0.0,0.0,0.0,0.0,0.0,0.0,0.0,0.0,-3.5451,-3.4288,0.0,0.0,0.0,0.0,0.0,0.0,0.0,0.0,0.0,0.0,0.0,0.0,0.0,0.0,0.0,0.0,0.0,0.0,0.0,0.0,0.0,0.0,0.0,0.0,0.0,0.0,0.0,0.0,0.0,0.0,0.0,0.0,0.0,0.0,0.0,0.0,0.0,0.0,0.0,0.0,0.0,0.0,0.0,0.0,0.0,0.0,0.0,0.0,0.0,0.0,0.0,0.0,0.0,0.0,0.0,0.0,0.0,0.0,0.0,0.0,0.0,0.0,0.0,0.0,0.0,0.0,0.0,0.0,0.0,0.0,0.0,0.0,0.0,0.0,0.0,0.0,0.0,0.0,0.0,0.0,0.0,0.0,0.0,0.0,0.0,0.0,0.0,0.0,0.0,0.0,0.0,0.0,0.0,0.0,0.0,0.0,0.0,0.0,0.0,0.0,0.0,0.0,0.0,0.0,0.0,0.0,0.0,0.0,-4.0133,-4.1593,-4.3423,-4.3509,-4.3949,-4.4519,-4.0762,-3.8486,-3.7434,-3.8203,0.0,0.0,0.0,0.0,0.0,0.0,0.0,0.0,0.0,0.0,0.0,0.0,0.0,0.0,0.0,0.0,0.0,0.0,0.0,0.0,0.0,0.0,0.0,0.0,0.0,0.0,0.0,0.0,0.0,0.0,0.0,0.0,0.0,0.0,0.0,0.0,0.0,0.0,0.0,0.0,0.0,0.0,0.0,0.0,0.0,0.0,0.0,0.0,0.0,0.0,0.0,0.0,0.0,0.0,0.0,0.0,0.0,0.0,0.0,0.0,0.0,0.0,0.0,0.0,0.0,0.0,0.0,0.0,0.0,0.0,0.0,0.0,0.0,0.0,0.0,0.0,0.0,0.0,0.0,0.0,0.0,0.0,0.0,0.0,0.0,0.0,-2.9109,-3.0857,0.0,0.0,0.0,0.0,0.0,0.0,0.0,0.0,0.0,0.0,0.0,0.0,0.0,-4.0807,-4.1046,-4.4325,-4.5584,-4.4818,-4.6324,-4.6544,-4.555,-4.6213,-4.6618,-4.6691,-4.6316,0.0,-4.2543,-4.002,0.0,0.0,0.0,0.0,0.0,0.0,0.0,0.0,0.0,0.0,0.0,0.0,0.0,0.0,0.0,0.0,0.0,0.0,0.0,0.0,0.0,0.0,0.0,0.0,0.0,0.0,0.0,0.0,0.0,0.0,0.0,0.0,0.0,0.0,0.0,0.0,0.0,0.0,0.0,0.0,0.0,0.0,0.0,0.0,-3.2845,-3.0797,0.0,0.0,0.0,0.0,0.0,0.0,0.0,0.0,0.0,0.0,0.0,0.0,0.0,0.0,0.0,0.0,0.0,0.0,0.0,0.0,0.0,0.0,0.0,0.0,0.0,0.0,0.0,0.0,0.0,0.0,0.0,0.0,0.0,0.0,0.0,0.0,0.0,0.0,0.0,-3.043,-3.3236,-3.2487,-3.4797,-3.6323,0.0,0.0,0.0,0.0,0.0,0.0,0.0,0.0,0.0,-4.1736,-4.4173,-4.5545,-4.5772,-4.8088,-4.9338,-4.9334,-5.0031,-5.0251,-5.0031,-5.0398,-5.0545,-5.0545,-5.0664,-4.982,-4.82,-4.5053,-4.3923,-4.3937,0.0,0.0,0.0,0.0,-4.0329,-4.1454,0.0,0.0,0.0,0.0,0.0,0.0,0.0,0.0,0.0,0.0,0.0,0.0,0.0,0.0,0.0,-2.3586,0.0,0.0,0.0,0.0,0.0,0.0,0.0,0.0,0.0,0.0,0.0,0.0,0.0,0.0,0.0,0.0,0.0,0.0,0.0,0.0,0.0,-3.4265,-3.19,0.0,0.0,0.0,0.0,0.0,0.0,0.0,0.0,0.0,0.0,0.0,0.0,0.0,0.0,0.0,0.0,0.0,0.0,0.0,0.0,0.0,0.0,0.0,0.0,0.0,0.0,0.0,0.0,0.0,0.0,0.0,0.0,0.0,0.0,0.0,0.0,0.0,0.0,-3.3168,-3.6087,-3.4365,-3.7634,-3.963,0.0,0.0,0.0,0.0,0.0,0.0,-4.2014,-4.3188,-4.4628,-4.6581,-4.864,-4.974,-4.9848,-5.1316,-5.2344,-5.2894,-5.2894,-5.3225,-5.3812,-5.3812,-5.3812,-5.3812,-5.3812,-5.3482,-5.2716,-4.9638,-4.7533,-4.6194,-4.5032,-4.4378,-4.3987,-4.3213,-4.3856,-4.5217,0.0,0.0,0.0,0.0,0.0,0.0,0.0,0.0,0.0,0.0,0.0,0.0,0.0,0.0,-2.6773,-2.9964,-2.9776,-2.9233,0.0,0.0,0.0,0.0,0.0,0.0,0.0,0.0,0.0,0.0,0.0,0.0,0.0,0.0,0.0,0.0,0.0,0.0,0.0,0.0,-3.5182,-3.2354,0.0,0.0,0.0,0.0,0.0,0.0,0.0,0.0,0.0,0.0,0.0,0.0,0.0,0.0,0.0,0.0,0.0,0.0,0.0,0.0,0.0,0.0,0.0,0.0,0.0,0.0,0.0,0.0,0.0,0.0,0.0,0.0,0.0,0.0,0.0,0.0,0.0,0.0,0.0,-3.7495,-4.0271,0.0,0.0,0.0,0.0,-4.2147,-4.4354,-4.6318,-4.7792,-4.9485,-5.0812,-5.161,-5.2491,-5.3335,-5.4106,-5.4913,-5.5354,-5.539,-5.539,-5.5427,-5.5464,-5.5464,-5.5464,-5.5464,-5.5464,-5.5464,-5.517,-5.194,-5.0108,-4.9301,-4.9599,-4.97,-4.9586,-4.88,-4.9023,-4.9514,0.0,0.0,0.0,0.0,0.0,0.0,0.0,0.0,0.0,0.0,0.0,0.0,0.0,-2.6779,-3.0655,-3.3394,-3.5243,-3.5541,-3.3869,0.0,0.0,0.0,0.0,0.0,0.0,0.0,0.0,0.0,0.0,0.0,0.0,0.0,0.0,0.0,0.0,0.0,0.0,0.0,-3.9356,-3.7313,-3.3821,-2.9996,0.0,0.0,0.0,0.0,0.0,0.0,0.0,0.0,0.0,0.0,0.0,0.0,0.0,0.0,0.0,0.0,0.0,0.0,0.0,0.0,0.0,0.0,0.0,0.0,0.0,0.0,0.0,0.0,0.0,0.0,0.0,0.0,0.0,0.0,0.0,0.0,0.0,-4.0896,-4.5094,0.0,-4.6465,-4.5685,-4.6052,-4.7831,-4.7758,-4.8713,-5.1316,-5.2055,-5.345,-5.5794,-5.6124,-5.6675,-5.7483,-5.7776,-5.7923,-5.7923,-5.7923,-5.818,-5.8694,-5.8694,-5.84,-5.7923,-5.7923,-5.7629,-5.7087,-5.6261,-5.4293,-5.183,-5.148,-5.1005,-5.0525,-5.023,-5.0636,-5.115,0.0,0.0,0.0,0.0,0.0,0.0,0.0,0.0,0.0,0.0,0.0,-2.2628,-2.5664,-3.0788,-3.4987,-3.7442,-3.9031,-3.8892,-3.6494,0.0,0.0,0.0,0.0,0.0,0.0,0.0,0.0,0.0,0.0,0.0,0.0,0.0,0.0,0.0,0.0,0.0,0.0,0.0,0.0,-4.0665,-3.7128,-3.3339,-2.9566,0.0,0.0,0.0,0.0,0.0,0.0,0.0,0.0,0.0,0.0,0.0,0.0,0.0,0.0,0.0,0.0,0.0,0.0,0.0,0.0,0.0,0.0,0.0,0.0,0.0,0.0,0.0,0.0,0.0,0.0,0.0,0.0,0.0,0.0,-4.09,-4.4451,-4.4235,-4.8494,-5.1115,-5.0227,-4.9455,-4.9787,-5.1627,-5.114,-5.194,-5.4693,-5.5097,-5.6345,-5.8731,-5.8804,-5.8951,-5.9208,-5.9615,-5.9751,-5.9493,-5.9937,-6.0395,-6.0914,-6.0914,-6.0617,-6.0098,-5.9838,-5.9393,-5.8916,-5.8908,-5.7488,-5.5201,-5.4223,-5.333,-5.2629,-5.25,-5.2747,-5.3157,0.0,0.0,0.0,0.0,0.0,0.0,0.0,0.0,0.0,0.0,-2.1845,-2.6199,-3.0282,-3.5547,-3.9748,-4.2173,-4.085,-3.8756,-3.6088,-3.2818,0.0,0.0,0.0,0.0,0.0,0.0,0.0,0.0,0.0,0.0,0.0,0.0,0.0,0.0,0.0,0.0,0.0,0.0,0.0,-4.2393,-4.0204,-3.6933,-3.303,0.0,0.0,0.0,0.0,0.0,0.0,0.0,0.0,0.0,0.0,0.0,0.0,0.0,0.0,0.0,0.0,0.0,0.0,0.0,0.0,0.0,0.0,0.0,0.0,0.0,0.0,0.0,0.0,0.0,0.0,0.0,0.0,0.0,-3.8587,-4.2337,-4.5864,-4.7492,-5.0374,-5.1867,-5.1096,-5.172,-5.2491,-5.3298,-5.4803,-5.6381,-5.796,-5.8804,-5.9612,-6.0419,-6.0456,-6.0052,-5.9281,-6.058,-6.0841,-6.0099,-6.1356,-6.1953,-6.1953,-6.1953,-6.1953,-6.1878,-6.1123,-6.0745,-6.0632,-5.9839,-5.9499,-5.9317,-5.8053,-5.7076,-5.6329,-5.5913,-5.5735,-5.5785,0.0,0.0,0.0,0.0,0.0,0.0,0.0,0.0,0.0,0.0,-2.2342,-2.7043,-3.1107,-3.6584,-4.0874,-4.3293,-4.1542,-3.9779,-3.8633,0.0,0.0,0.0,0.0,0.0,0.0,0.0,0.0,0.0,0.0,0.0,0.0,0.0,0.0,0.0,0.0,0.0,0.0,0.0,0.0,-4.8595,-4.5324,-4.2378,-3.9616,0.0,0.0,0.0,0.0,0.0,0.0,0.0,0.0,0.0,0.0,0.0,0.0,0.0,0.0,0.0,0.0,0.0,0.0,0.0,0.0,0.0,0.0,0.0,0.0,0.0,0.0,0.0,0.0,0.0,0.0,0.0,-4.151,-4.402,-4.3282,-4.7333,-5.0898,-5.2324,-5.4773,-5.6271,-5.6051,-5.6198,-5.6418,-5.6675,-5.7629,-5.84,-5.8877,-5.9648,-6.0456,-6.1227,-6.1263,-6.1356,-6.1515,-6.1911,-6.213,-6.2259,-6.2597,-6.3124,-6.3728,-6.3728,-6.3388,-6.2746,-6.2557,-6.1764,-6.0742,-6.1424,-6.1362,-6.0722,-5.9389,-5.8761,-5.8535,-5.839,-5.8015,-5.749,0.0,0.0,0.0,0.0,0.0,0.0,0.0,0.0,0.0,0.0,-2.3673,-2.8563,-3.2713,-3.7887,-4.1499,-4.2567,-4.0765,-3.8724,-3.6782,0.0,0.0,0.0,0.0,0.0,0.0,0.0,0.0,0.0,0.0,0.0,0.0,0.0,0.0,0.0,0.0,0.0,0.0,0.0,-5.3559,-5.3369,-5.0962,-4.8004,-4.4912,-4.3509,-4.1014,-3.8136,-3.733,-3.7277,-3.7106,-3.3785,0.0,0.0,0.0,0.0,0.0,0.0,0.0,0.0,0.0,0.0,0.0,0.0,0.0,0.0,0.0,0.0,0.0,0.0,0.0,0.0,0.0,0.0,0.0,0.0,-4.5583,-4.864,-4.9877,-5.2214,-5.4429,-5.6002,-5.7946,-5.9027,-5.8843,-5.9319,-5.9399,-5.8843,-5.9538,-6.0211,-6.0544,-6.0987,-6.1855,-6.3238,-6.3275,-6.3264,-6.3225,-6.3802,-6.3841,-6.3445,-6.3987,-6.4546,-6.5041,-6.5384,-6.5041,-6.4242,-6.4242,-6.355,-6.233,-6.2758,-6.2613,-6.2126,0.0,0.0,0.0,0.0,-5.9223,-5.9008,0.0,0.0,0.0,0.0,0.0,0.0,0.0,0.0,0.0,0.0,0.0,-2.9952,-3.4048,-3.8672,-4.1254,-4.0764,-3.8958,-3.6382,0.0,0.0,0.0,0.0,0.0,0.0,0.0,0.0,0.0,0.0,0.0,0.0,0.0,0.0,0.0,0.0,0.0,0.0,0.0,0.0,-5.6273,-5.6657,-5.6172,-5.3395,-4.9486,-4.9451,-4.759,-4.4966,-4.4135,-4.3278,-4.227,-4.0254,0.0,0.0,0.0,0.0,0.0,0.0,0.0,0.0,0.0,0.0,0.0,0.0,0.0,0.0,0.0,0.0,0.0,0.0,0.0,0.0,0.0,0.0,0.0,0.0,-5.004,-5.3391,-5.7036,-5.7043,-5.7272,-5.8835,-6.0116,-6.0641,-6.0177,-6.1206,-6.1394,-6.0214,-6.092,-6.1782,-6.2566,-6.2715,0.0,0.0,0.0,-6.5427,-6.4783,-6.5965,-6.5817,-6.439,-6.5613,-6.6167,-6.6205,-6.6898,-6.6859,-6.6167,-6.6167,-6.5705,-6.482,-6.4166,-6.3897,-6.3795,-6.2978,-6.2251,-6.1459,-6.0183,-5.9975,-6.0313,0.0,0.0,0.0,0.0,0.0,0.0,0.0,0.0,0.0,-1.9939,-2.4072,-2.802,-3.1466,-3.5741,-3.8859,-4.0055,-3.6854,-3.4159,0.0,0.0,0.0,0.0,0.0,0.0,0.0,0.0,0.0,0.0,0.0,0.0,0.0,0.0,0.0,0.0,0.0,0.0,0.0,0.0,-5.7634,-5.7425,-5.7634,-5.6398,-5.4425,-5.4425,-5.3214,-5.1541,-5.136,-5.2024,-5.2303,-4.8188,-4.7533,-4.7608,-4.2633,0.0,0.0,0.0,0.0,0.0,0.0,0.0,0.0,0.0,0.0,0.0,0.0,0.0,0.0,0.0,0.0,0.0,0.0,0.0,0.0,-5.1411,-5.4534,-5.7583,-6.0687,-6.1531,-6.1707,-6.1314,-6.154,-6.1615,-6.1506,-6.1766,-6.1804,-6.1506,-6.2259,-6.3088,-6.3992,-6.4632,-6.55,-6.6597,-6.6635,-6.6748,-6.6983,-6.724,-6.7424,-6.7522,-6.7795,0.0,-6.7936,-6.809,-6.8052,-6.7936,-6.7936,-6.7436,-6.6667,-6.7205,-6.7436,-6.7128,-6.4283,-6.3066,-6.2836,-6.1902,-6.1633,-6.1607,0.0,0.0,0.0,0.0,0.0,0.0,0.0,0.0,0.0,0.0,-2.2322,-2.5685,-2.8587,-3.1939,-3.4173,-3.4558,-3.2347,0.0,0.0,0.0,0.0,0.0,0.0,0.0,0.0,0.0,0.0,0.0,0.0,0.0,0.0,0.0,0.0,0.0,0.0,0.0,0.0,-5.955,-5.9418,-5.9217,-5.9422,-5.9037,-5.8262,-5.7807,-5.7116,-5.6398,-5.6582,-5.6936,-5.6861,-5.4112,-5.3339,-5.2855,-4.924,-4.5539,-4.2058,0.0,0.0,0.0,0.0,0.0,0.0,0.0,0.0,0.0,0.0,0.0,0.0,0.0,0.0,-4.5363,0.0,0.0,-5.3514,-5.6638,-5.905,-6.1326,-6.3666,-6.4705,-6.4792,-6.3617,-6.3746,-6.3969,-6.4153,-6.4737,-6.4845,-6.4229,-6.4917,-6.5524,-6.598,-6.6398,-6.711,-6.8297,-6.8679,-6.9005,-6.9229,-6.9681,-6.9616,-6.9052,-6.9052,-6.8821,-6.8398,-6.8859,-6.8821,-6.8436,-6.8859,-6.8552,-6.7782,-6.8244,-6.8398,-6.8244,-6.6513,-6.5359,-6.4436,-6.3166,-6.2704,-6.2627,0.0,0.0,0.0,0.0,0.0,0.0,0.0,0.0,0.0,0.0,0.0,-2.3322,-2.5464,-2.7857,-2.8946,0.0,0.0,0.0,0.0,0.0,0.0,0.0,0.0,0.0,0.0,0.0,0.0,0.0,0.0,0.0,0.0,0.0,0.0,0.0,0.0,0.0,-6.0781,-6.0781,-6.0781,-6.0781,-6.0781,-6.0781,-6.0734,-5.9946,-5.9658,-5.9696,-5.9772,-5.9117,-5.8181,-5.763,-5.6573,-5.5283,-5.4049,-5.1511,-4.8155,-4.433,-4.2148,0.0,0.0,0.0,0.0,0.0,0.0,0.0,0.0,0.0,-4.4075,-4.6287,-4.8403,-5.0979,-5.4768,-5.6943,-5.8935,-6.133,-6.3014,-6.4589,-6.6167,-6.6936,-6.7022,-6.6124,-6.6238,-6.6485,-6.6743,-6.7774,-6.7955,-6.6858,-6.74,-6.7821,-6.7973,-6.8012,-6.8663,-7.0167,-7.0821,-7.1245,-7.1398,-7.2091,-7.1783,-7.0437,-7.0437,-7.009,-6.9398,-7.0129,-7.0052,-6.9436,-7.0129,-6.9937,-6.9129,-6.9129,-6.9052,-6.8859,-6.8706,-6.7821,-6.6397,-6.4512,-6.3705,-6.3551,0.0,0.0,0.0,0.0,0.0,0.0,0.0,0.0,0.0,0.0,0.0,0.0,0.0,0.0,0.0,0.0,0.0,0.0,0.0,0.0,0.0,0.0,0.0,0.0,0.0,0.0,0.0,0.0,0.0,0.0,0.0,0.0,0.0,0.0,0.0,0.0,-6.0781,-6.0781,-6.0781,-6.0781,-6.0781,-6.0781,-6.0781,-6.0671,-6.0647,-6.057,-5.984,-5.8104,-5.6287,-5.6896,-5.6015,-5.4805,-5.5283,-5.3648,-5.1046,-4.8321,0.0,-4.1114,-3.7716,-3.6391,-3.6292,-3.7841,-3.9956,-4.283,0.0,0.0,-4.9777,-5.3664,-5.4685,-5.5493,-5.7516,-5.9903,-6.2136,-6.3883,-6.5615,-6.7013,-6.7975,-6.8205,-6.8487,-6.9113,-6.8564,-6.8141,-6.8191,-6.8294,-6.8333,-6.8191,-6.8268,-6.8652,-6.9421,-6.9459,-7.0217,-7.186,-7.2014,-7.2437,-7.3206,-7.3322,-7.3283,-7.3091,-7.3091,-7.3014,-7.2937,-7.3053,-7.3014,-7.2937,-7.3053,-7.2591,-7.1783,-7.1783,-7.1321,-7.0552,-6.9821,-6.9436,-6.8975,-6.6513,-6.5128,-6.4359,0.0,0.0,0.0,0.0,0.0,0.0,0.0,0.0,0.0,0.0,0.0,0.0,0.0,0.0,0.0,0.0,0.0,0.0,0.0,0.0,0.0,0.0,0.0,0.0,0.0,0.0,0.0,0.0,0.0,0.0,0.0,0.0,0.0,0.0,0.0,-6.155,-6.1589,-6.205,-6.2243,-6.2243,-6.2243,-6.1973,-6.1512,-6.0973,-5.9858,-5.8495,-5.7713,-5.6405,0.0,0.0,-5.3687,-5.3204,-5.3435,-5.2144,-5.0125,-4.8094,-4.5594,0.0,-4.1153,-4.0781,-4.1415,0.0,-4.5247,-4.7527,-5.1528,-5.3161,-5.4622,-5.7357,-5.9088,-6.0666,-6.2397,-6.3974,-6.5397,0.0,-6.7821,-6.8744,-6.9129,-6.9167,-6.909,-6.8975,-6.8629,-6.8783,-6.9744,-6.986,-6.986,-6.986,-6.986,-7.0014,-7.0398,-7.086,-7.1475,-7.2168,-7.3129,-7.3822,-7.4207,-7.4707,-7.4707,-7.4207,-7.4207,-7.3976,-7.3514,-7.3514,-7.3514,-7.3514,-7.3514,-7.3283,-7.2976,-7.2976,-7.2745,-7.2322,-7.1475,-7.0821,-7.0167,-6.8129,-6.7128,-6.6782,0.0,0.0,0.0,0.0,0.0,0.0,0.0,0.0,0.0,0.0,0.0,0.0,0.0,0.0,0.0,0.0,0.0,0.0,0.0,0.0,0.0,0.0,0.0,0.0,0.0,0.0,0.0,0.0,0.0,0.0,0.0,0.0,0.0,0.0,-6.182,-6.2204,-6.2474,-6.3051,-6.332,-6.3281,-6.3051,-6.2474,-6.155,-5.9973,-5.7973,-5.5934,-5.5384,-5.3896,0.0,0.0,-4.9962,-4.9444,-4.9795,-4.9239,-4.8218,-4.6746,-4.5032,-4.3582,-4.3588,-4.4099,0.0,-4.8145,-5.0066,-5.2085,-5.5203,-5.7357,-5.9165,-6.0627,-6.2589,-6.432,-6.5359,-6.6205,-6.6974,-6.7628,-6.8629,-6.936,-6.936,-6.936,-6.9013,-6.8167,-6.7628,-6.7936,-6.9398,-7.0167,-7.0552,-7.0552,-7.0783,-7.0898,-7.0898,-7.1514,-7.2052,-7.2552,-7.3745,-7.4591,-7.5053,-7.5938,-7.6053,-7.5438,-7.5438,-7.513,-7.4553,-7.4553,-7.4437,-7.4207,-7.4437,-7.4284,-7.3822,-7.3822,-7.3707,-7.3437,-7.2822,-7.2168,-7.1475,-7.0244,-6.9206,-6.8398,0.0,0.0,0.0,0.0,0.0,0.0,0.0,0.0,0.0,0.0,0.0,0.0,0.0,0.0,0.0,0.0,0.0,0.0,0.0,0.0,0.0,0.0,0.0,0.0,0.0,0.0,0.0,0.0,0.0,0.0,0.0,0.0,0.0,-6.205,-6.2089,-6.2512,-6.3281,-6.3281,-6.332,-6.3243,-6.2435,-6.1627,-6.0473,-5.7126,-5.4891,-5.3503,-5.3417,0.0,0.0,0.0,-4.4499,-4.2772,-4.433,-4.5349,0.0,-4.4944,-4.2961,-4.1622,-4.391,0.0,-4.558,-4.9683,-5.314,-5.6203,-5.8781,-6.132,-6.3358,-6.4243,-6.5166,-6.559,-6.4782,-6.5359,-6.5936,-6.5974,-6.7359,-6.8436,-6.8436,-6.8436,-6.8129,-6.7244,-6.5705,-6.5089,-6.5974,-6.8282,-6.9744,-6.9744,-7.0475,-7.0898,-7.0898,-7.0937,-7.1706,-7.3399,-7.3514,-7.4322,-7.5938,-7.6823,-7.7246,-7.7207,-7.7207,-7.7207,-7.7169,-7.7169,-7.6707,-7.5976,-7.6823,-7.6245,-7.4668,-7.4668,-7.4207,-7.3514,-7.3476,-7.3437,-7.3399,-7.336,-7.1245,-6.8398,0.0,0.0,0.0,0.0,0.0,0.0,0.0,0.0,0.0,0.0,0.0,0.0,0.0,0.0,0.0,0.0,0.0,0.0,0.0,0.0,0.0,0.0,0.0,0.0,0.0,0.0,0.0,0.0,0.0,0.0,0.0,0.0,0.0,-6.1243,-6.182,-6.2551,-6.332,-6.332,-6.3628,-6.3974,-6.2012,-6.0757,-5.9696,-5.6275,-5.3294,-5.0664,0.0,0.0,0.0,0.0,0.0,-4.0604,-4.1072,-4.108,-4.0886,-4.0574,-4.2271,-4.4423,-4.513,0.0,-5.045,-5.4028,-5.7027,-5.9896,-6.3012,-6.4397,-6.5128,-6.5397,-6.4871,-6.4229,-6.3941,-6.3282,-6.349,-6.5701,-6.6471,-6.7193,-6.827,-6.8898,-6.8321,-6.5743,-6.5436,-6.4897,-6.3512,-6.5166,-6.7013,-6.8706,-6.909,-6.9744,-7.0821,-7.2014,-7.2899,-7.3476,-7.4591,-7.5707,-7.6861,-7.713,-7.7553,-7.8092,-7.7553,-7.6976,-7.6476,-7.7053,-7.713,-7.6899,-7.7746,-7.7438,-7.6476,-7.7015,-7.6399,-7.5207,-7.5784,-7.5668,-7.5168,-7.5168,-7.4053,-7.2514,0.0,0.0,0.0,0.0,0.0,0.0,0.0,0.0,0.0,0.0,0.0,0.0,0.0,0.0,0.0,0.0,0.0,0.0,0.0,0.0,0.0,0.0,0.0,0.0,0.0,0.0,0.0,0.0,0.0,0.0,0.0,0.0,0.0,-5.9065,-5.9588,-6.0627,-6.195,-6.1373,-6.1813,-6.2639,-5.9474,-5.7892,-5.7043,-5.3011,-4.9809,0.0,0.0,0.0,0.0,0.0,0.0,-3.8463,-3.8937,-3.9217,-3.9434,-3.9985,-4.2917,-4.6336,-4.7991,-5.1105,-5.4688,-5.7995,-6.0512,-6.282,-6.532,-6.5897,-6.5653,-6.4771,-6.3766,-6.268,-6.1539,-6.0526,-6.0604,-6.2969,-6.3845,-6.4878,-6.6769,-6.7513,-6.7282,-6.5667,-6.5474,-6.4897,-6.3589,-6.4436,-6.5743,-6.7398,-6.8629,-6.9744,-7.0821,-7.2245,-7.3322,-7.3899,-7.4976,-7.6092,-7.7284,-7.7592,-7.813,-7.8977,-7.8438,-7.7746,-7.6899,-7.7784,-7.8015,-7.7746,-7.8592,-7.8477,-7.7746,-7.8284,-7.7861,-7.6938,-7.7515,-7.74,-7.6899,-7.6899,-7.6553,-7.5861,0.0,0.0,0.0,0.0,0.0,0.0,0.0,0.0,0.0,0.0,0.0,0.0,0.0,0.0,0.0,0.0,0.0,0.0,0.0,0.0,0.0,0.0,0.0,0.0,-4.2695,-4.2864,-4.4157,-4.6722,0.0,0.0,0.0,0.0,-5.3723,-5.5357,-5.5245,-5.6631,-5.8957,-5.7373,-5.768,-5.893,-5.4788,-5.3106,-5.2582,-4.7688,0.0,0.0,0.0,0.0,0.0,0.0,0.0,0.0,-3.8026,-3.973,-4.1423,-4.307,-4.4945,-4.7533,-5.2358,-5.546,-5.8123,-6.1427,-6.3397,-6.482,-6.5667,-6.5769,-6.5018,-6.2568,-6.1944,-6.0903,0.0,0.0,-5.7426,-5.8335,-5.9938,-6.1911,-6.4397,-6.4897,-6.5513,0.0,0.0,0.0,0.0,0.0,-6.6128,-6.609,-6.9052,-7.0898,-7.1014,-7.186,-7.3053,-7.4668,-7.4784,-7.5668,-7.7323,-7.8207,-7.9015,-7.9823,-7.9823,-7.9323,-7.8515,-7.94,-7.9361,-7.8631,-7.9477,-7.9361,-7.8554,-7.8592,-7.8592,-7.8515,-7.8592,-7.8592,-7.8554,-7.8631,-7.8592,-7.8207,0.0,0.0,0.0,0.0,0.0,0.0,0.0,0.0,0.0,0.0,0.0,0.0,0.0,0.0,0.0,0.0,0.0,0.0,0.0,0.0,0.0,0.0,0.0,0.0,0.0,-3.9647,-4.1195,-4.313,0.0,-4.578,0.0,0.0,-4.7815,0.0,-4.8243,-4.8971,-5.0148,-4.9759,-5.0218,-5.0966,0.0,-4.7774,-4.7684,0.0,0.0,0.0,0.0,0.0,0.0,0.0,0.0,0.0,0.0,-4.138,-4.3352,-4.6214,-4.9178,-5.2358,-5.6049,-5.888,-6.1334,-6.346,-6.4282,-6.4705,-6.5,-6.4062,-6.2644,-6.0864,-5.8501,-5.6528,0.0,0.0,0.0,-5.888,-6.0864,0.0,-6.6038,-6.8667,0.0,-6.8244,0.0,-6.8898,-6.7859,-6.8898,-6.9398,-6.8783,-6.9513,-7.0821,-7.2745,-7.363,-7.4245,-7.4707,-7.5976,-7.713,-7.8169,-7.9669,-8.0208,-7.9823,-7.9823,-7.9323,-7.8515,-7.94,-7.9669,-7.9515,-8.04,-8.0285,-7.9515,-8.0169,-7.9669,-7.8631,-7.9939,-8.0054,-7.9554,-8.0208,-8.0015,-7.94,0.0,0.0,0.0,0.0,0.0,0.0,0.0,0.0,0.0,0.0,0.0,0.0,0.0,0.0,0.0,0.0,0.0,0.0,0.0,0.0,0.0,0.0,0.0,0.0,0.0,0.0,0.0,0.0,0.0,0.0,0.0,0.0,-4.1423,-4.1804,-4.2192,-4.3061,-4.4192,0.0,0.0,0.0,0.0,0.0,0.0,0.0,0.0,0.0,0.0,0.0,0.0,0.0,0.0,-4.2388,-4.2808,-4.4921,-4.7728,-5.0279,0.0,-5.5668,-5.8588,-6.1243,-6.3397,-6.4359,-6.4589,-6.4345,-6.3306,-6.2046,-6.025,-5.7245,-5.54,0.0,-5.1992,-5.1796,0.0,0.0,0.0,0.0,-6.5422,-6.7975,-6.959,0.0,-7.0898,0.0,-7.0706,-7.1822,-7.2552,-7.2476,-7.1783,-7.2168,-7.3937,-7.4437,-7.5207,-7.6322,-7.6976,-7.7861,-7.9054,-8.0439,-8.0862,-8.0362,-8.0362,-8.0092,-7.9669,-8.0169,-8.0362,-8.04,-8.09,-8.0823,-8.04,-8.09,-8.0516,-7.9746,-8.0708,-8.0785,-8.0439,-8.0939,-8.0785,-8.0362,0.0,0.0,0.0,0.0,0.0,0.0,0.0,0.0,0.0,0.0,0.0,0.0,0.0,0.0,0.0,0.0,0.0,0.0,0.0,0.0,0.0,0.0,0.0,0.0,0.0,0.0,0.0,0.0,0.0,0.0,0.0,0.0,0.0,0.0,0.0,0.0,0.0,0.0,0.0,0.0,0.0,0.0,0.0,0.0,0.0,0.0,0.0,0.0,0.0,0.0,-4.4032,-4.609,-4.6422,-4.9241,-5.2759,-5.4629,-5.6308,-5.8104,-6.0635,-6.3012,-6.4743,-6.4628,-6.4359,-6.3453,-6.1,-5.9545,-5.7465,-5.3156,0.0,-5.1982,-4.8236,-4.9648,-5.1574,-5.2317,0.0,-5.9226,-6.4089,-6.5705,-6.7859,-7.1745,-7.2399,-7.286,-7.3745,-7.4476,-7.5245,-7.6092,-7.4822,-7.4361,-7.5168,-7.5207,-7.6284,-7.8592,-7.7977,-7.84,-7.9977,-8.0708,-8.1093,-8.1093,-8.1093,-8.1093,-8.1093,-8.1093,-8.1093,-8.1093,-8.1093,-8.1093,-8.1093,-8.1093,-8.1093,-8.1093,-8.1093,-8.1093,-8.1093,-8.1093,-8.1093,-8.1093,0.0,0.0,0.0,0.0,0.0,0.0,0.0,0.0,0.0,0.0,0.0,0.0,0.0,0.0,0.0,0.0,0.0,0.0,0.0,0.0,0.0,0.0,0.0,0.0,0.0,-2.5158,-2.5774,0.0,0.0,0.0,0.0,0.0,0.0,0.0,0.0,0.0,0.0,0.0,0.0,0.0,0.0,0.0,0.0,0.0,0.0,0.0,0.0,0.0,0.0,0.0,-4.5606,-4.8221,-5.0182,-5.2319,-5.4667,-5.7742,-5.9342,-6.0712,-6.3243,-6.4782,-6.5513,-6.4782,-6.3012,-6.0856,-5.8529,-5.5675,0.0,0.0,-5.0984,-5.0101,-4.8672,-5.045,-5.2576,-5.4032,0.0,0.0,0.0,0.0,-6.9821,0.0,-7.3437,-7.463,-7.5476,-7.5707,-7.613,-7.7015,-7.6823,-7.6976,-7.7784,-7.7823,-7.8361,-7.9554,-7.9438,-7.9862,-8.0862,-8.1016,-8.1093,-8.1093,-8.1093,-8.1093,-8.1093,-8.1093,-8.1093,-8.1093,-8.1093,-8.1093,-8.1093,-8.1093,-8.1093,-8.1093,-8.1093,-8.1093,-8.1093,-8.1093,-8.1093,-8.1093,0.0,0.0,0.0,0.0,0.0,0.0,0.0,0.0,0.0,0.0,0.0,0.0,0.0,0.0,0.0,0.0,0.0,0.0,0.0,0.0,0.0,0.0,0.0,0.0,0.0,-2.3525,-2.3937,-2.3957,0.0,0.0,0.0,-2.5457,-2.5871,0.0,0.0,0.0,0.0,0.0,0.0,0.0,0.0,0.0,0.0,0.0,0.0,0.0,0.0,0.0,0.0,0.0,-4.4505,-4.7722,-5.147,-5.4836,-5.7379,-5.7583,-5.9507,-6.1651,-6.1962,-6.3939,-6.5705,-6.482,-6.2358,-5.9395,-5.6615,0.0,0.0,0.0,-4.8914,-4.8691,-4.6902,0.0,0.0,0.0,0.0,0.0,0.0,0.0,0.0,0.0,-7.2783,-7.4399,-7.5245,-7.5745,-7.6553,-7.7823,-7.79,-7.8284,-7.9131,-7.9592,-7.9823,-7.9823,-8.0246,-8.0669,-8.1093,-8.1093,-8.1093,-8.1093,-8.1093,-8.1093,-8.1093,-8.1093,-8.1093,-8.1093,-8.1093,-8.1093,-8.1093,-8.1093,-8.1093,-8.1093,-8.1093,-8.1093,-8.1093,-8.1093,-8.1093,-8.1093,0.0,0.0,0.0,0.0,0.0,0.0,0.0,0.0,0.0,0.0,0.0,0.0,0.0,0.0,0.0,0.0,0.0,0.0,0.0,0.0,0.0,0.0,0.0,0.0,0.0,0.0,0.0,-2.2661,-2.2651,0.0,0.0,0.0,0.0,0.0,-2.5365,-2.6086,0.0,0.0,0.0,0.0,0.0,-3.0714,0.0,0.0,0.0,0.0,0.0,0.0,0.0,0.0,-4.2818,-4.5924,-5.04,-5.4805,-5.8008,-5.6427,-5.8587,-6.1395,-6.0771,-6.3119,-6.5513,-6.4666,-6.1719,-5.8256,-5.518,-5.2239,0.0,0.0,-4.7377,-4.7631,-4.539,0.0,0.0,0.0,0.0,0.0,0.0,0.0,0.0,0.0,-7.1514,0.0,-7.4591,-7.5322,-7.6476,-7.8361,-7.8861,-7.9361,-8.0054,-8.0746,-8.0785,-8.0092,-8.0746,-8.1093,-8.1093,-8.1093,-8.1093,-8.1093,-8.1093,-8.1093,-8.1093,-8.1093,-8.1208,-8.1362,-8.1362,-8.1362,-8.1362,-8.1362,-8.1246,-8.1093,-8.1093,-8.1093,-8.1093,-8.1093,-8.1093,-8.1093,0.0,0.0,0.0,0.0,0.0,0.0,0.0,0.0,0.0,0.0,0.0,0.0,0.0,0.0,0.0,0.0,0.0,0.0,0.0,0.0,0.0,0.0,0.0,0.0,0.0,0.0,0.0,-2.2765,-2.2785,0.0,0.0,0.0,0.0,0.0,0.0,-2.4138,-2.5553,0.0,0.0,0.0,0.0,0.0,0.0,0.0,0.0,0.0,0.0,0.0,0.0,0.0,0.0,-4.3199,-4.5902,-4.9582,-5.3324,-5.5458,0.0,0.0,-6.2644,-6.4257,-6.4949,-6.4078,-6.0699,-5.6956,-5.4373,0.0,0.0,-4.7232,-4.7295,-4.7078,-4.6069,-4.8088,-4.9861,0.0,0.0,-5.5923,0.0,0.0,0.0,0.0,0.0,0.0,-7.4476,-7.4784,-7.5822,-7.8284,-7.9977,-8.09,-8.0977,-8.1054,-8.1054,-8.0977,-8.1054,-8.1093,-8.1093,-8.1093,-8.1093,-8.1093,-8.1093,-8.1093,-8.1093,-8.1093,-8.1516,-8.217,-8.217,-8.217,-8.217,-8.217,-8.1747,-8.1093,-8.1093,-8.1093,-8.1093,-8.1093,-8.1093,-8.1093,0.0,0.0,0.0,0.0,0.0,0.0,0.0,0.0,0.0,0.0,0.0,0.0,0.0,0.0,0.0,0.0,0.0,0.0,0.0,0.0,0.0,0.0,0.0,0.0,0.0,0.0,-2.0907,-2.1252,-2.1222,0.0,0.0,0.0,0.0,0.0,0.0,-2.3596,-2.4747,-2.4994,0.0,0.0,0.0,0.0,0.0,0.0,0.0,0.0,0.0,0.0,0.0,0.0,0.0,0.0,-4.0652,-4.3085,0.0,0.0,-5.3476,-5.7325,-5.7651,-6.1337,-6.4769,-6.3356,-5.9818,-5.6126,-5.411,0.0,0.0,-4.7134,-4.6822,-4.6511,-4.6744,-4.8055,-4.9283,0.0,0.0,0.0,0.0,0.0,0.0,0.0,-6.6974,0.0,0.0,-7.5361,-7.7092,-7.9131,-8.04,-8.1093,-8.1093,-8.1093,-8.1093,-8.1093,-8.1093,-8.1093,-8.1093,-8.1093,-8.1093,-8.1093,-8.1093,-8.1093,-8.1093,-8.1093,-8.1554,-8.2285,-8.2285,-8.2593,-8.3016,-8.2516,-8.2093,-8.1785,-8.1285,-8.1093,-8.1093,-8.1093,-8.1093,-8.1093,0.0,0.0,0.0,0.0,0.0,0.0,0.0,0.0,0.0,0.0,0.0,0.0,0.0,0.0,0.0,0.0,0.0,0.0,0.0,0.0,0.0,0.0,0.0,0.0,0.0,0.0,-2.0199,-2.0246,-2.0225,-2.0225,0.0,0.0,-2.1304,-2.1621,0.0,0.0,0.0,0.0,0.0,0.0,0.0,0.0,0.0,0.0,0.0,0.0,0.0,0.0,0.0,0.0,0.0,0.0,0.0,0.0,0.0,0.0,-4.9332,-5.4142,-5.4434,-5.8649,-6.2717,-6.1781,-5.8506,-5.5049,0.0,0.0,0.0,-4.6701,-4.6344,-4.6123,-4.6779,-4.7833,-4.8924,0.0,0.0,-5.1789,-5.375,0.0,0.0,0.0,0.0,-6.7204,-7.1986,-7.563,-7.8246,-7.9708,-8.0592,-8.1093,-8.1093,-8.1093,-8.1093,-8.1093,-8.1093,-8.1093,-8.1093,-8.1093,-8.1093,-8.1093,-8.1093,-8.1093,-8.1093,-8.1093,-8.167,-8.267,-8.2401,-8.2939,-8.3901,-8.2785,-8.2285,-8.2208,-8.14,-8.1093,-8.1093,-8.1093,-8.1093,-8.1093,0.0,0.0,0.0,0.0,0.0,0.0,0.0,0.0,0.0,0.0,0.0,0.0,0.0,0.0,0.0,0.0,0.0,0.0,0.0,0.0,0.0,0.0,0.0,0.0,0.0,0.0,0.0,-2.0304,-2.0289,-2.0289,-2.0312,-2.0311,-2.0788,-2.1583,0.0,0.0,0.0,0.0,0.0,0.0,0.0,0.0,0.0,0.0,0.0,0.0,0.0,0.0,0.0,0.0,0.0,0.0,0.0,0.0,0.0,0.0,-4.5644,-4.997,-5.5076,-5.7148,-5.8086,-5.9023,-5.6556,-5.3482,0.0,0.0,-4.6096,-4.603,-4.5991,-4.6003,-4.5997,-4.7427,-4.8924,-4.9839,-5.2177,-5.4117,-5.4864,-5.566,0.0,0.0,0.0,-6.3394,-6.9365,-7.511,-7.8861,-7.9746,-8.0592,-8.1093,-8.1093,-8.1093,-8.1093,-8.1093,-8.1093,-8.1093,-8.1093,-8.1093,-8.1093,-8.1093,-8.1093,-8.1093,-8.1093,-8.1093,-8.2016,-8.3516,-8.267,-8.3285,-8.4747,-8.3016,-8.2285,-8.2208,-8.14,-8.1093,-8.1093,-8.1093,-8.1093,-8.1093,0.0,0.0,0.0,0.0,0.0,0.0,0.0,0.0,0.0,0.0,0.0,0.0,0.0,0.0,0.0,0.0,0.0,0.0,0.0,0.0,0.0,0.0,0.0,0.0,0.0,0.0,0.0,0.0,0.0,-2.1459,-2.1991,-2.1459,-2.1357,-2.1582,-2.1378,-2.1945,0.0,0.0,0.0,0.0,0.0,0.0,-2.861,0.0,0.0,0.0,0.0,0.0,0.0,0.0,0.0,0.0,0.0,0.0,0.0,-4.0982,-4.4033,-4.7337,-4.8996,-5.22,-5.4997,-5.4684,-5.3338,-5.1726,-5.0553,0.0,0.0,-4.6707,-4.6332,-4.6123,-4.6779,-4.7833,-4.909,-5.0646,-5.2575,-5.3982,-5.4137,0.0,0.0,-6.0226,-6.5897,-7.121,-7.537,-7.7438,-7.9092,-8.0592,-8.0939,-8.1093,-8.1093,-8.1093,-8.1093,-8.1093,-8.1093,-8.1093,-8.1093,-8.1093,-8.1093,-8.1093,-8.1093,-8.1093,-8.1093,-8.1093,-8.1708,-8.2708,-8.2401,-8.2939,-8.3901,-8.2785,-8.2285,-8.2208,-8.14,-8.1093,-8.1093,-8.1093,-8.1093,-8.1093,0.0,0.0,0.0,0.0,0.0,0.0,0.0,0.0,0.0,0.0,0.0,0.0,0.0,0.0,0.0,0.0,0.0,0.0,0.0,0.0,0.0,0.0,0.0,0.0,0.0,0.0,0.0,0.0,0.0,0.0,0.0,0.0,-2.2126,-2.2126,-2.2171,-2.2499,0.0,0.0,0.0,0.0,0.0,0.0,-2.8189,0.0,0.0,0.0,0.0,0.0,0.0,0.0,0.0,0.0,0.0,0.0,0.0,0.0,-4.2121,-4.4411,0.0,-4.8429,-5.081,-5.0607,-5.0169,0.0,0.0,0.0,0.0,0.0,-4.6329,-4.6236,-4.719,-4.8088,-4.9231,-5.1014,-5.2489,-5.3465,-5.3513,0.0,0.0,-6.0544,0.0,0.0,-7.6927,-7.7959,-7.9092,-8.0516,-8.0285,-8.0246,-8.0592,-8.0285,-8.04,-8.1093,-8.1093,-8.1093,-8.1093,-8.1093,-8.1093,-8.1093,-8.1093,-8.1093,-8.1093,-8.1093,-8.1554,-8.2285,-8.1977,-8.2516,0.0,-8.2324,-8.2016,-8.2208,-8.14,-8.1093,-8.1093,-8.1093,-8.1093,-8.1131,0.0,0.0,0.0,0.0,0.0,0.0,0.0,0.0,0.0,0.0,0.0,0.0,0.0,0.0,0.0,0.0,0.0,0.0,0.0,0.0,0.0,0.0,0.0,0.0,0.0,0.0,0.0,-2.0496,-2.129,-2.1736,-2.1912,0.0,0.0,-2.3011,-2.3048,0.0,0.0,0.0,0.0,0.0,0.0,0.0,0.0,0.0,0.0,0.0,0.0,0.0,0.0,0.0,0.0,0.0,0.0,0.0,0.0,0.0,0.0,0.0,0.0,0.0,0.0,0.0,0.0,0.0,0.0,0.0,0.0,0.0,0.0,0.0,0.0,-4.821,-4.9424,-5.1031,-5.213,-5.2922,-5.3307,-5.413,0.0,0.0,-6.8073,-7.3178,-7.4808,-7.7081,-7.8784,-7.9631,-7.8977,-7.8861,-7.9669,-7.8938,-7.9246,-8.0939,-8.1016,-8.1054,-8.1093,-8.1093,-8.1093,-8.1093,-8.1093,-8.1093,-8.1093,-8.1093,-8.1516,-8.217,-8.14,-8.1977,-8.3285,-8.1747,-8.1554,-8.2131,-8.14,-8.1093,-8.1093,-8.1093,-8.1093,-8.1208,0.0,0.0,0.0,0.0,0.0,0.0,0.0,0.0,0.0,0.0,0.0,0.0,0.0,0.0,0.0,0.0,0.0,0.0,0.0,0.0,0.0,0.0,0.0,0.0,0.0,0.0,0.0,-2.2191,-2.2431,-2.3234,-2.4556,-2.418,0.0,0.0,0.0,0.0,0.0,0.0,0.0,0.0,0.0,0.0,0.0,0.0,0.0,0.0,-2.9969,-3.1236,0.0,0.0,0.0,0.0,0.0,0.0,0.0,0.0,-4.0614,-4.0887,-4.1725,0.0,-4.3001,-4.322,-4.4225,0.0,0.0,0.0,0.0,0.0,0.0,0.0,0.0,0.0,-5.0069,-5.1139,-5.2653,-5.4144,-5.5521,0.0,0.0,-6.4817,-7.0387,-7.4322,-7.4753,-7.6467,-7.79,-7.8746,-7.8631,-7.8592,-7.8784,-7.8592,-7.8977,-8.0092,-8.0131,-8.0439,-8.1093,-8.1093,-8.1093,-8.1093,-8.1093,-8.1093,-8.1093,-8.1093,-8.1208,-8.1362,-8.117,-8.1323,-8.167,-8.1246,-8.1208,-8.1362,-8.117,-8.1093,-8.1093,-8.1093,-8.1093,-8.1131,0.0,0.0,0.0,0.0,0.0,0.0,0.0,0.0,0.0,0.0,0.0,0.0,0.0,0.0,0.0,0.0,0.0,0.0,0.0,0.0,0.0,0.0,0.0,0.0,0.0,0.0,0.0,0.0,0.0,-2.3358,0.0,0.0,0.0,0.0,0.0,0.0,0.0,0.0,0.0,0.0,-2.5624,0.0,0.0,0.0,0.0,0.0,-3.0191,-3.1138,0.0,-3.3153,-3.5049,-3.7402,0.0,0.0,0.0,0.0,-4.072,-4.0783,-4.1114,-4.1605,-4.1994,-4.1994,-4.3283,-4.4548,0.0,0.0,0.0,0.0,0.0,0.0,0.0,0.0,0.0,-5.2161,-5.295,-5.4138,0.0,0.0,-6.6394,-6.7186,-7.1645,-7.5014,-7.5822,-7.6746,-7.7476,-7.79,-7.7592,-7.7515,-7.7938,-7.7553,-7.79,-7.9169,-7.9208,-7.9823,-8.1093,-8.1093,-8.1093,-8.1093,-8.1093,-8.1093,-8.1093,-8.1093,-8.1093,-8.1093,-8.1093,-8.1093,-8.1093,-8.1093,-8.1093,-8.1093,-8.1093,-8.1093,-8.1093,-8.1093,-8.1093,-8.1131,0.0,0.0,0.0,0.0,0.0,0.0,0.0,0.0,0.0,0.0,0.0,0.0,0.0,0.0,0.0,0.0,0.0,0.0,0.0,0.0,0.0,0.0,0.0,0.0,0.0,0.0,0.0,0.0,0.0,0.0,0.0,0.0,-2.5848,0.0,0.0,0.0,0.0,0.0,-2.5632,-2.5691,-2.5636,0.0,0.0,0.0,0.0,0.0,0.0,0.0,0.0,-3.2975,-3.4412,-3.6065,-3.7647,0.0,0.0,0.0,0.0,0.0,-4.1609,-4.2001,-4.2201,-4.2201,-4.3427,-4.4614,0.0,0.0,0.0,0.0,0.0,0.0,0.0,0.0,0.0,0.0,0.0,0.0,-5.7943,-6.3187,-6.7253,-6.8629,-7.2392,-7.5399,-7.6592,-7.6938,-7.7092,-7.7092,-7.6399,-7.6322,-7.7053,-7.6399,-7.6707,-7.8246,-7.8323,-7.9092,-8.0669,-8.0977,-8.1093,-8.1093,-8.1093,-8.1093,-8.1093,-8.1093,-8.1093,-8.1093,-8.1093,-8.1093,-8.1093,-8.1093,-8.1093,-8.1093,-8.1093,-8.1093,-8.1093,-8.1093,-8.1093,-8.1208,0.0,0.0,0.0,0.0,0.0,0.0,0.0,0.0,0.0,0.0,0.0,0.0,0.0,0.0,0.0,0.0,0.0,0.0,0.0,0.0,0.0,0.0,0.0,0.0,0.0,0.0,0.0,0.0,0.0,0.0,-2.5163,-2.6896,-2.7355,0.0,0.0,0.0,-2.558,-2.5671,-2.5683,-2.5691,-2.5683,0.0,0.0,0.0,0.0,0.0,0.0,0.0,0.0,-3.2975,-3.442,-3.5974,-3.6957,0.0,0.0,0.0,0.0,0.0,-4.1738,-4.2537,-4.3092,-4.3092,-4.3853,-4.464,0.0,0.0,0.0,0.0,0.0,0.0,0.0,0.0,0.0,0.0,0.0,-5.9785,0.0,0.0,-7.0242,-6.9771,-7.3322,-7.5361,-7.4207,-7.5361,-7.6207,-7.6207,-7.6092,-7.6053,-7.6207,-7.6053,-7.6476,-7.7438,-7.7476,-7.7938,-7.89,-8.0362,-8.1093,-8.1093,-8.1093,-8.1093,-8.1093,-8.1093,-8.1093,-8.1093,-8.1093,-8.1093,-8.1093,-8.1093,-8.1093,-8.1093,-8.1093,-8.1093,-8.1093,-8.1093,-8.1093,-8.1131,0.0,0.0,0.0,0.0,0.0,0.0,0.0,0.0,0.0,0.0,0.0,0.0,0.0,0.0,0.0,0.0,0.0,0.0,0.0,0.0,0.0,0.0,0.0,0.0,0.0,0.0,0.0,0.0,0.0,-2.5298,-2.618,-2.6992,-2.7213,-2.6811,0.0,0.0,-2.5624,-2.6143,-2.608,-2.5785,0.0,0.0,0.0,0.0,0.0,0.0,0.0,0.0,0.0,0.0,-3.3169,-3.4209,-3.5862,0.0,0.0,0.0,0.0,0.0,-4.1751,-4.2667,-4.3479,-4.3944,-4.5079,0.0,0.0,0.0,0.0,0.0,0.0,0.0,0.0,0.0,-5.3752,-5.552,0.0,-6.2665,-6.4655,-6.7271,-6.9527,-7.0948,-7.2909,-7.4361,-7.4822,-7.5553,-7.6015,-7.6015,-7.6015,-7.6015,-7.6015,-7.6015,-7.6169,-7.6592,-7.7053,-7.7476,-7.7861,-7.9092,-7.9939,-8.04,-8.0862,-8.1093,-8.1093,-8.1093,-8.1093,-8.1093,-8.1093,-8.1093,-8.1093,-8.1093,-8.1093,-8.1093,-8.1093,-8.1093,-8.1093,-8.1093,-8.1093,-8.1093,0.0,0.0,0.0,0.0,0.0,0.0,0.0,0.0,0.0,0.0,0.0,0.0,0.0,0.0,0.0,0.0,0.0,0.0,0.0,0.0,0.0,0.0,0.0,0.0,0.0,0.0,-2.2401,-2.3685,-2.5249,-2.6566,-2.7605,-2.7466,-2.7179,0.0,0.0,0.0,-2.5394,-2.6264,-2.6247,-2.5796,0.0,0.0,0.0,0.0,0.0,0.0,0.0,0.0,0.0,0.0,0.0,0.0,0.0,0.0,0.0,-3.8838,-3.9813,-4.068,-4.1751,-4.2705,-4.3671,-4.4754,0.0,0.0,0.0,0.0,0.0,0.0,0.0,0.0,0.0,0.0,0.0,-6.0123,-6.2557,-6.4608,-6.6769,-6.7936,-6.9552,-7.2206,-7.3024,-7.3909,-7.5284,-7.5784,-7.5938,-7.5707,-7.5861,-7.6015,-7.6015,-7.6015,-7.6015,-7.6015,-7.663,-7.6976,-7.6976,-7.7823,-7.8746,-7.9823,-8.0477,-8.09,-8.1093,-8.1093,-8.1093,-8.1093,-8.1093,-8.1093,-8.1093,-8.1093,-8.1093,-8.1093,-8.1093,-8.1093,-8.1093,-8.1093,-8.1093,-8.1093,0.0,0.0,0.0,0.0,0.0,0.0,0.0,0.0,0.0,0.0,0.0,0.0,0.0,0.0,0.0,0.0,0.0,0.0,0.0,0.0,0.0,0.0,0.0,0.0,0.0,-2.2547,-2.3813,-2.6343,-2.7334,-2.8672,-3.0311,-2.9502,-2.8272,-2.6812,0.0,0.0,-2.4538,-2.5425,-2.5752,-2.5718,-2.5827,0.0,0.0,0.0,0.0,0.0,0.0,0.0,0.0,0.0,0.0,0.0,0.0,0.0,-3.7272,-3.8122,-3.8996,-4.0043,-4.1743,-4.2819,-4.3896,-4.559,0.0,0.0,0.0,0.0,0.0,0.0,0.0,0.0,0.0,-5.2356,-5.5825,-6.3225,-6.4486,-6.5961,-6.9975,-7.1975,-7.3129,-7.3399,-7.4822,-7.5207,-7.3822,-7.5091,-7.5668,-7.4861,-7.5553,-7.6015,-7.6015,-7.6015,-7.6015,-7.6015,-7.6053,-7.6092,-7.6092,-7.6938,-7.8207,-7.9823,-7.9862,-8.0323,-8.1093,-8.1093,-8.1093,-8.1093,-8.1093,-8.1093,-8.1093,-8.1093,-8.1093,-8.1093,-8.1093,-8.1093,-8.1093,-8.1093,-8.1093,-8.1093,0.0,0.0,0.0,0.0,0.0,0.0,0.0,0.0,0.0,0.0,0.0,0.0,0.0,0.0,0.0,0.0,0.0,0.0,0.0,0.0,0.0,0.0,0.0,-2.1124,-2.1895,-2.3495,-2.5081,-2.6583,-2.8589,-2.966,-2.9815,-2.8904,0.0,0.0,0.0,0.0,-2.597,-2.6307,-2.6481,-2.6568,-2.7062,-2.7328,0.0,0.0,0.0,0.0,0.0,0.0,0.0,0.0,-3.2421,-3.3828,-3.4156,-3.5733,-3.7545,-3.8197,-3.8965,-3.9936,-4.1063,-4.2413,-4.3559,-4.3716,0.0,0.0,0.0,0.0,0.0,0.0,0.0,0.0,0.0,0.0,-6.0564,-6.2767,-6.4817,-6.7282,-7.0437,-7.1937,-7.2899,-7.3437,-7.3716,-7.3755,-7.3553,-7.4399,-7.4668,-7.4014,-7.4707,-7.4976,-7.4476,-7.4938,-7.5207,-7.5207,-7.5707,-7.6015,-7.6015,-7.6322,-7.7092,-7.8246,-7.8746,-7.9169,-7.9477,-8.0054,-8.0285,-8.0323,-8.0862,-8.1093,-8.1093,-8.1093,-8.1093,-8.1093,-8.1093,-8.1093,-8.1093,-8.1093,-8.1093,-8.1093,0.0,0.0,0.0,0.0,0.0,0.0,0.0,0.0,0.0,0.0,0.0,0.0,0.0,0.0,0.0,0.0,0.0,0.0,0.0,0.0,0.0,0.0,0.0,-2.1244,-2.1377,-2.3934,-2.5849,-2.7007,-2.962,-3.0211,-2.893,0.0,0.0,0.0,0.0,0.0,0.0,-2.6684,-2.6782,-2.6643,-2.7172,-2.7402,0.0,0.0,0.0,0.0,0.0,0.0,0.0,0.0,-3.1929,-3.3459,-3.3517,-3.497,-3.6865,-3.8066,-3.9015,-3.9894,-4.0727,-4.2226,-4.3419,0.0,0.0,0.0,0.0,0.0,0.0,0.0,0.0,0.0,0.0,0.0,0.0,0.0,-6.5447,-6.7898,-7.0206,-7.1475,-7.2322,-7.2629,-7.2794,-7.2832,-7.2706,-7.3514,-7.3783,-7.3129,-7.386,-7.4091,-7.3553,-7.4014,-7.4437,-7.4707,-7.5284,-7.5707,-7.6015,-7.6015,-7.6284,-7.6899,-7.7438,-7.7977,-7.8515,-7.9131,-7.9554,-7.9823,-8.0439,-8.0862,-8.1093,-8.1093,-8.1093,-8.1093,-8.1093,-8.1093,-8.1093,-8.1093,-8.1093,-8.1093,0.0,0.0,0.0,0.0,0.0,0.0,0.0,0.0,0.0,0.0,0.0,0.0,0.0,0.0,0.0,0.0,0.0,0.0,0.0,0.0,0.0,0.0,0.0,-2.1233,-2.1276,-2.3826,-2.6058,-2.7911,-3.0409,-3.0402,-2.8009,-2.7971,0.0,0.0,0.0,0.0,0.0,0.0,-2.6509,-2.5707,-2.5697,-2.6708,-2.8189,0.0,0.0,0.0,0.0,0.0,0.0,0.0,-3.1346,-3.2234,-3.3654,-3.4322,-3.5107,-3.7637,-3.9,-3.9897,-4.0727,-4.2298,0.0,0.0,0.0,0.0,0.0,0.0,0.0,0.0,0.0,-5.7153,-5.7371,-5.7253,0.0,-6.5062,-6.6646,-6.7705,-6.9436,-7.1129,-7.186,-7.1014,-7.2437,-7.2822,-7.1052,-7.2476,-7.3129,-7.2245,-7.3014,-7.3476,-7.3476,-7.3476,-7.386,-7.4668,-7.4668,-7.513,-7.5976,-7.5976,-7.5976,-7.5976,-7.6015,-7.6861,-7.8477,-7.8477,-7.8977,-7.9785,-7.9785,-8.0285,-8.1093,-8.1093,-8.1093,-8.1093,-8.1093,-8.1093,-8.1093,-8.1093,-8.1093,-8.1093,0.0,0.0,0.0,0.0,0.0,0.0,0.0,0.0,0.0,0.0,0.0,0.0,0.0,0.0,0.0,0.0,0.0,0.0,0.0,0.0,0.0,0.0,0.0,0.0,0.0,0.0,-2.4896,-2.783,-2.8016,-2.7749,0.0,0.0,0.0,-2.6449,0.0,0.0,0.0,0.0,-2.6813,-2.6545,-2.6541,-2.7203,-2.8256,0.0,0.0,0.0,0.0,0.0,0.0,0.0,0.0,0.0,-3.3226,-3.4458,-3.5766,-3.7092,-3.8137,-3.8887,-3.9068,-3.9955,0.0,0.0,0.0,0.0,0.0,0.0,0.0,0.0,0.0,-6.1142,-6.0132,-6.1092,-6.2352,-6.3168,-6.5408,-6.7475,-6.8629,-7.0244,-7.1206,-7.0937,-7.136,-7.1475,-7.0937,-7.1937,-7.2206,-7.136,-7.2091,-7.2322,-7.1706,-7.2245,-7.2706,-7.2937,-7.3553,-7.4245,-7.5091,-7.5091,-7.5091,-7.5091,-7.5707,-7.6245,-7.6746,-7.7361,-7.7784,-7.8092,-7.9285,-7.9939,-8.0246,-8.0862,-8.1093,-8.1093,-8.1093,-8.1093,-8.1093,-8.1093,-8.1093,-8.1093,0.0,0.0,0.0,0.0,0.0,0.0,0.0,0.0,0.0,0.0,0.0,0.0,0.0,0.0,0.0,0.0,0.0,0.0,0.0,0.0,0.0,0.0,0.0,0.0,0.0,-2.1911,-2.3666,0.0,0.0,0.0,0.0,0.0,0.0,-2.6805,0.0,-2.7529,0.0,0.0,-2.7242,-2.6887,-2.6887,-2.7628,-2.8762,0.0,0.0,0.0,0.0,0.0,0.0,0.0,0.0,0.0,-3.2927,0.0,-3.5226,-3.7105,-3.7781,-3.8065,-3.8703,0.0,0.0,0.0,0.0,0.0,0.0,0.0,0.0,0.0,0.0,-6.2714,-6.2365,-6.2876,-6.333,-6.3128,-6.5359,-6.7282,-6.7821,-6.9052,-6.9898,-6.9898,-6.9898,-7.0052,-7.0398,-7.0898,-7.1129,-7.0937,-7.1398,-7.1437,-7.0937,-7.1398,-7.1822,-7.2168,-7.2706,-7.3399,-7.4207,-7.4207,-7.4207,-7.4245,-7.4745,-7.5168,-7.5515,-7.6399,-7.6976,-7.74,-7.9054,-7.9823,-7.9862,-8.0746,-8.1093,-8.1093,-8.1093,-8.1093,-8.1093,-8.1093,-8.1093,-8.1093,0.0,0.0,0.0,0.0,0.0,0.0,0.0,0.0,0.0,0.0,-1.8,0.0,0.0,0.0,0.0,0.0,0.0,0.0,0.0,0.0,0.0,0.0,0.0,0.0,0.0,0.0,0.0,0.0,0.0,0.0,0.0,0.0,-2.5956,-2.6981,0.0,-2.7768,-2.7084,-2.7775,-2.7593,-2.6813,-2.6887,-2.7909,-2.9398,-2.9425,0.0,0.0,0.0,0.0,0.0,0.0,0.0,0.0,-3.2795,-3.3418,-3.4158,-3.7313,-3.778,-3.7539,0.0,0.0,0.0,0.0,0.0,0.0,0.0,0.0,0.0,-6.4173,0.0,-6.2589,-6.4114,-6.3243,-6.2858,-6.4474,-6.6051,-6.709,-6.709,-6.7859,-6.8398,-6.8398,-6.8398,-6.8706,-6.9513,-6.959,-6.9898,-7.0629,-7.0667,-7.0706,-7.0783,-7.0783,-7.1206,-7.2052,-7.2091,-7.2514,-7.336,-7.3399,-7.3399,-7.3399,-7.3476,-7.386,-7.4514,-7.5438,-7.6399,-7.7361,-7.89,-7.9631,-7.9746,-8.0631,-8.0977,-8.0977,-8.1054,-8.1093,-8.1093,-8.1093,-8.1093,-8.1093,0.0,0.0,0.0,0.0,0.0,0.0,0.0,0.0,0.0,0.0,0.0,0.0,0.0,0.0,0.0,0.0,0.0,0.0,0.0,0.0,0.0,0.0,0.0,0.0,0.0,0.0,0.0,0.0,0.0,0.0,0.0,0.0,0.0,-2.7845,0.0,-2.809,-2.7906,-2.7468,-2.6736,-2.5991,-2.6654,-2.7519,-2.854,-2.9004,-2.9862,0.0,0.0,0.0,0.0,0.0,0.0,0.0,-3.2995,-3.4247,-3.5471,-3.624,-3.7288,-3.8107,0.0,0.0,0.0,0.0,0.0,0.0,0.0,0.0,0.0,-6.3723,-6.3106,-6.3075,-6.528,-6.4802,-6.4397,-6.5436,-6.6436,-6.709,-6.709,-6.7859,-6.8398,-6.8398,-6.8398,-6.8475,-6.8667,-6.8667,-6.8744,-6.8936,-6.8936,-6.9244,-6.9937,-6.9975,-7.0321,-7.1168,-7.1168,-7.1591,-7.2476,-7.2476,-7.2476,-7.2476,-7.3168,-7.3245,-7.2783,-7.4284,-7.5822,-7.7323,-7.7669,-7.8207,-7.8861,-7.9708,-8.0092,-8.0169,-8.0823,-8.1093,-8.1093,-8.1093,-8.1093,-8.1093,0.0,0.0,0.0,0.0,0.0,0.0,0.0,0.0,0.0,0.0,0.0,0.0,0.0,0.0,0.0,0.0,0.0,0.0,0.0,0.0,0.0,0.0,0.0,0.0,0.0,0.0,0.0,0.0,0.0,0.0,0.0,0.0,0.0,-2.8152,0.0,-2.8607,-2.8179,-2.7731,-2.7082,-2.6346,-2.7207,-2.8033,-2.8899,-2.9632,-3.0295,-3.0802,-3.0806,0.0,0.0,0.0,0.0,0.0,0.0,0.0,-3.4944,-3.6143,-3.6875,-3.7219,0.0,0.0,0.0,0.0,0.0,0.0,0.0,0.0,0.0,-6.2799,-6.2982,-6.3267,-6.4517,-6.4354,-6.4128,-6.4589,-6.5013,-6.5282,-6.5282,-6.6051,-6.659,-6.659,-6.6936,-6.7359,-6.7744,-6.7782,-6.7936,-6.8359,-6.8398,-6.859,-6.9052,-6.909,-6.9283,-6.9706,-6.9706,-7.0129,-7.0975,-7.1014,-7.1206,-7.1591,-7.2052,-7.2245,-7.2245,-7.3937,-7.5438,-7.6707,-7.713,-7.7553,-7.8015,-7.9285,-7.9823,-7.99,-8.0746,-8.1093,-8.1093,-8.1093,-8.1093,-8.1093,0.0,0.0,0.0,0.0,0.0,0.0,0.0,0.0,0.0,0.0,0.0,0.0,0.0,0.0,0.0,0.0,0.0,0.0,0.0,0.0,0.0,0.0,0.0,0.0,0.0,0.0,0.0,0.0,0.0,0.0,0.0,0.0,0.0,-2.844,0.0,0.0,-2.8412,-2.8277,-2.7784,-2.7203,-2.7913,-2.87,-2.9569,-3.026,-3.0646,-3.0806,-3.0813,-3.0813,-3.081,-3.0785,0.0,0.0,0.0,0.0,-3.4059,-3.6313,-3.6699,-3.6523,0.0,0.0,0.0,0.0,0.0,0.0,0.0,0.0,-5.9873,-6.1343,-6.2305,-6.2974,-6.3243,-6.3205,-6.3128,-6.3281,-6.332,-6.332,-6.332,-6.3935,-6.4397,-6.4397,-6.5013,-6.5705,-6.6359,-6.659,-6.6898,-6.7475,-6.7821,-6.7975,-6.7975,-6.809,-6.8244,-6.8398,-6.8398,-6.8744,-6.9475,-6.9475,-6.9821,-7.0475,-7.0629,-7.1206,-7.2245,-7.363,-7.4822,-7.5822,-7.6553,-7.6938,-7.7169,-7.8746,-7.9361,-7.9477,-8.0477,-8.09,-8.09,-8.1054,-8.1093,-8.1093,0.0,0.0,0.0,0.0,0.0,0.0,0.0,0.0,0.0,0.0,0.0,0.0,0.0,0.0,0.0,0.0,0.0,0.0,0.0,0.0,0.0,0.0,0.0,0.0,0.0,0.0,0.0,0.0,0.0,0.0,0.0,0.0,0.0,-2.9347,0.0,0.0,0.0,-2.8512,-2.8119,-2.8056,-2.8134,-2.8727,-2.948,-2.9359,-2.9948,-3.0817,-3.0817,-3.0781,-3.0785,-3.0813,-3.1292,0.0,0.0,0.0,-3.4736,-3.5861,-3.7148,-3.8255,0.0,0.0,0.0,0.0,0.0,0.0,0.0,0.0,-5.8588,0.0,-6.0127,-6.1589,-6.3051,-6.2743,-6.2474,-6.3205,-6.332,-6.332,-6.332,-6.3397,-6.3474,-6.3474,-6.3589,-6.3705,-6.382,-6.4474,-6.4666,-6.4051,-6.5397,-6.6244,-6.6244,-6.6898,-6.7628,-6.8398,-6.8398,-6.8475,-6.859,-6.859,-6.8629,-6.8744,-6.9513,-7.0667,-7.2206,-7.2437,-7.3399,-7.4899,-7.5014,-7.5476,-7.6245,-7.7246,-7.763,-7.7784,-7.9361,-7.9977,-8.0092,-8.0823,-8.1093,-8.1093,0.0,0.0,0.0,0.0,0.0,0.0,0.0,0.0,0.0,0.0,0.0,0.0,0.0,0.0,0.0,0.0,0.0,0.0,0.0,0.0,0.0,0.0,0.0,0.0,0.0,0.0,0.0,0.0,0.0,0.0,0.0,-2.6798,-2.8124,0.0,0.0,0.0,0.0,0.0,0.0,-2.831,-2.8774,-2.9207,-2.9608,-2.992,-3.0352,-3.0866,-3.1352,-3.1667,-3.1782,-3.175,-3.2223,-3.2848,-3.2918,0.0,0.0,0.0,-3.729,0.0,0.0,0.0,0.0,0.0,0.0,0.0,0.0,0.0,-5.7088,-5.7649,-5.8627,-5.9742,-6.0935,-6.1281,-6.1473,-6.1858,-6.1897,-6.1897,-6.1897,-6.232,-6.2627,-6.2627,-6.3051,-6.332,-6.332,-6.3666,-6.3705,-6.332,-6.4012,-6.4436,-6.4436,-6.5243,-6.5859,-6.6244,-6.6744,-6.7205,-6.7667,-6.7667,-6.7936,-6.8398,-6.8783,-6.936,-7.009,-7.0591,-7.1975,-7.4053,-7.4514,-7.4938,-7.5399,-7.6746,-7.7284,-7.74,-7.8592,-7.9054,-7.9131,-7.9515,-7.9631,-7.9708,0.0,0.0,0.0,0.0,0.0,0.0,0.0,0.0,0.0,0.0,0.0,0.0,0.0,0.0,0.0,0.0,0.0,0.0,0.0,0.0,0.0,0.0,0.0,0.0,0.0,0.0,0.0,0.0,0.0,0.0,-2.6729,-2.7045,-2.8145,0.0,-3.054,0.0,0.0,0.0,0.0,0.0,0.0,-3.0411,-3.0374,-3.1592,-3.1827,-3.1552,-3.2422,-3.2773,-3.2812,-3.2733,-3.3043,-3.3356,-3.3203,-3.3867,0.0,0.0,0.0,-3.8202,0.0,0.0,0.0,0.0,0.0,0.0,0.0,0.0,-5.4857,0.0,-5.6686,-5.7588,-5.8396,-5.9588,-6.055,-6.0742,-6.0781,-6.0781,-6.0781,-6.1358,-6.1781,-6.1781,-6.2281,-6.2666,-6.2666,-6.2858,-6.2897,-6.2666,-6.3051,-6.3205,-6.3012,-6.4012,-6.4512,-6.4282,-6.5128,-6.5743,-6.6128,-6.6128,-6.6667,-6.7782,-6.7782,-6.8013,-6.8436,-6.909,-7.0552,-7.2591,-7.363,-7.4322,-7.4822,-7.6092,-7.6784,-7.7053,-7.7861,-7.8207,-7.8207,-7.84,-7.8477,-7.8592,0.0,0.0,0.0,0.0,0.0,0.0,0.0,0.0,0.0,0.0,0.0,0.0,0.0,0.0,-1.9282,-1.9282,-1.9282,-1.936,-1.9485,-1.9633,-1.9725,-1.9776,-1.9813,0.0,-2.0012,0.0,0.0,0.0,0.0,0.0,-2.6738,-2.7605,-2.9007,-3.0733,-3.0853,-3.0811,-3.0726,0.0,0.0,0.0,0.0,0.0,0.0,-3.4638,-3.4599,-3.3356,-3.4198,-3.3988,-3.3367,-3.3351,-3.3383,-3.3551,-3.4348,-3.4638,-3.4881,0.0,0.0,0.0,0.0,0.0,0.0,0.0,0.0,0.0,0.0,0.0,-5.1298,-5.2204,-5.3608,-5.4934,-5.5742,-5.7896,-5.9858,-6.0666,-6.0781,-6.0781,-6.0781,-6.0819,-6.0858,-6.0858,-6.0896,-6.0935,-6.0935,-6.1666,-6.182,-6.0973,-6.2397,-6.2974,-6.2204,-6.3705,-6.4205,-6.3397,-6.4205,-6.4282,-6.3512,-6.3512,-6.4359,-6.6013,-6.6013,-6.6859,-6.8398,-6.8475,-6.9013,-6.9975,-7.1629,-7.3245,-7.4707,-7.4822,-7.5322,-7.613,-7.7015,-7.7361,-7.7438,-7.8207,-7.8477,-7.8515,0.0,0.0,0.0,0.0,0.0,0.0,0.0,0.0,0.0,0.0,0.0,0.0,0.0,-1.9166,-1.9251,-1.9282,-1.936,-1.9398,-1.9485,-1.9606,-1.9686,-1.9713,-1.9837,-1.9919,-1.999,-2.0007,0.0,0.0,0.0,-2.3256,-2.5854,-2.6265,-2.7679,-3.0009,-3.1163,-3.1678,-3.1676,-3.222,0.0,0.0,0.0,0.0,0.0,0.0,-3.4683,-3.4211,-3.4452,-3.4704,-3.5035,-3.5749,-3.6261,-3.6729,-3.7391,-3.7366,-3.7219,-3.75,-3.877,-4.0181,-4.05,0.0,0.0,0.0,0.0,0.0,-4.8307,-4.9693,-5.0874,-5.12,-5.2107,-5.3087,-5.3933,-5.6165,-5.8165,-5.905,-5.9627,-5.9781,-5.9281,-6.0127,-6.0589,-6.0012,-6.0473,-6.0781,-6.0781,-6.1089,-6.1127,-6.0819,-6.1358,-6.155,-6.1281,-6.2358,-6.2935,-6.2781,-6.3782,-6.382,-6.2796,-6.3128,-6.3628,-6.4243,-6.4782,-6.5397,-6.6013,-6.709,-6.7744,-6.8129,-6.986,-7.1552,-7.3168,-7.4245,-7.4899,-7.5245,-7.613,-7.6476,-7.6515,-7.6784,-7.6899,-7.6976,0.0,0.0,0.0,0.0,0.0,0.0,0.0,0.0,0.0,0.0,0.0,0.0,0.0,0.0,-1.9329,-1.9344,-1.9398,-1.9485,-1.9527,-1.9633,-1.9675,-1.9738,-1.9873,-1.9952,-1.999,-1.999,0.0,0.0,0.0,0.0,0.0,-2.5751,-2.7187,-2.9551,-3.098,-3.1636,0.0,0.0,0.0,-3.2225,0.0,0.0,-3.4439,-3.6391,-3.6586,-3.5833,-3.5727,-3.5902,-3.6181,-3.6336,-3.7286,-3.8369,-3.8475,-3.8488,-3.852,-3.8832,-3.9675,-4.0587,-4.0874,-4.1824,0.0,0.0,0.0,0.0,-4.7829,-4.8671,-4.9324,-4.9864,-5.0354,-5.0933,-5.1779,-5.3549,-5.5549,-5.755,-5.855,-5.8896,-5.8396,-5.9242,-5.9858,-5.955,-6.0012,-6.0473,-6.0781,-6.0781,-6.0781,-6.0781,-6.0781,-6.0781,-6.0781,-6.1627,-6.2166,-6.2382,-6.2844,-6.2704,-6.195,-6.2281,-6.2627,-6.2897,-6.3474,-6.4051,-6.4628,-6.5743,-6.6551,-6.7167,-6.8629,-7.0206,-7.186,-7.3283,-7.4014,-7.4399,-7.5245,-7.5553,-7.5592,-7.5899,-7.6015,-7.6092,0.0,0.0,0.0,0.0,0.0,0.0,0.0,0.0,0.0,0.0,0.0,0.0,0.0,0.0,0.0,-1.9479,-1.961,-1.9667,-1.9633,-1.9763,-1.9826,-1.98,-1.9919,-2.0012,-2.0012,-1.999,-2.0431,0.0,0.0,0.0,0.0,0.0,-2.7636,0.0,-3.0236,-3.0671,-3.0817,0.0,-3.1395,-3.2394,0.0,-3.5892,-3.6357,-4.0444,-4.0416,-3.82,-3.8052,-3.7549,-3.6637,-3.4953,-3.6174,-3.8249,-3.7483,-3.7831,-3.8688,-3.9479,-3.9664,-3.9807,0.0,0.0,0.0,0.0,0.0,0.0,-4.6926,-4.6636,-4.6499,-4.7951,-4.8291,-4.8508,-4.9202,-5.0048,-5.201,-5.6088,-5.755,-5.8204,-5.8204,-5.8242,-5.855,-5.9319,-5.9435,-5.9819,-6.0627,-6.0742,-6.0742,-6.0742,-6.0742,-6.0781,-6.0781,-6.1589,-6.205,-6.205,-6.1243,-6.0781,-6.0781,-6.0781,-6.1204,-6.205,-6.2089,-6.2935,-6.4551,-6.4589,-6.5474,-6.709,-6.8013,-6.9321,-7.0898,-7.1822,-7.2706,-7.3553,-7.4361,-7.4668,-7.4822,-7.5668,-7.5976,-7.6015,0.0,0.0,0.0,0.0,0.0,0.0,0.0,0.0,0.0,0.0,0.0,0.0,0.0,0.0,-2.1384,-2.1442,-2.139,-2.1181,-2.0648,-2.0546,-2.0298,-1.9826,-1.9873,-1.9952,-2.0,-1.999,-2.0164,0.0,0.0,0.0,0.0,0.0,0.0,0.0,-2.874,-2.9589,-3.0882,-3.2146,0.0,-3.4094,-3.5349,-3.5818,-3.6076,-3.8418,-3.8081,-3.6425,-3.6327,-3.6509,-3.652,-3.4622,-3.6651,-4.0122,-4.0635,-4.0917,-4.1003,-4.0621,-4.0455,-4.0599,-4.1463,0.0,0.0,0.0,0.0,0.0,-4.7198,-4.7502,-4.7642,-4.752,-4.7844,-4.8048,-4.7663,-4.8779,-5.0125,-5.1318,-5.378,-5.5549,-5.5549,-5.6588,-5.7434,-5.7665,-5.8242,-5.8742,-5.8973,-5.8973,-5.9242,-5.9819,-5.9858,-6.0127,-6.0781,-6.1012,-6.1166,-6.1166,-6.0935,-6.0781,-6.0781,-6.0781,-6.0935,-6.1166,-6.1781,-6.232,-6.282,-6.4051,-6.4859,-6.5397,-6.7513,-6.8667,-6.9244,-7.1321,-7.2322,-7.2629,-7.3514,-7.4207,-7.4745,-7.4976,-7.5476,-7.6015,0.0,0.0,0.0,0.0,0.0,0.0,0.0,0.0,0.0,0.0,0.0,0.0,0.0,0.0,0.0,-2.2318,-2.2544,-2.2243,-2.1129,-2.0977,-2.0652,-1.9936,-2.0259,-2.0327,-2.002,-2.0705,-2.0975,-2.0679,0.0,0.0,0.0,0.0,0.0,0.0,0.0,0.0,0.0,0.0,0.0,0.0,-3.6162,-3.69,-3.7063,-3.9015,-3.8744,-3.7196,-3.6356,-3.682,-3.7436,-3.4853,-3.6459,-4.0101,-4.2869,-4.3182,-4.2421,-4.1932,-4.2008,-4.229,-4.2458,-4.3129,-4.3968,-4.4843,0.0,0.0,-4.7583,-4.7533,-4.7288,-4.7197,-4.7442,-4.7625,-4.7509,-4.8836,-4.9836,-4.9548,-5.1414,-5.3031,-5.3356,-5.4587,-5.5665,-5.6357,-5.6896,-5.7511,-5.8242,-5.8319,-5.8511,-5.8973,-5.9011,-5.9358,-6.0204,-6.0242,-6.0435,-6.0781,-6.0781,-6.0781,-6.0781,-6.0781,-6.0781,-6.0819,-6.132,-6.155,-6.1627,-6.3089,-6.4051,-6.4705,-6.6898,-6.7859,-6.8013,-6.986,-7.1014,-7.1745,-7.2629,-7.3245,-7.3745,-7.4437,-7.5014,-7.5515,0.0,0.0,0.0,0.0,0.0,0.0,0.0,0.0,0.0,0.0,0.0,0.0,0.0,0.0,0.0,0.0,-2.3345,-2.3056,-2.1494,-2.1355,-2.0989,-2.0304,-2.0918,-2.0988,-2.0287,-2.1803,-2.2255,-2.1521,0.0,0.0,0.0,0.0,0.0,0.0,0.0,0.0,0.0,0.0,0.0,-3.3561,-3.6657,-3.7933,-3.8252,-4.0462,-4.0294,-3.8697,-3.7126,-3.7623,-3.8623,-3.6073,-3.6614,-3.9264,-4.4318,-4.4675,-4.322,-4.3202,-4.3813,-4.4366,-4.3528,-4.4006,-4.487,-4.5596,-4.592,0.0,-4.7781,-4.7107,-4.6313,-4.6901,-4.7003,-4.7183,-4.7875,-4.9239,-5.0028,-4.926,-4.9836,-5.076,-5.1664,-5.2433,-5.3549,-5.5203,-5.5434,-5.6011,-5.7588,-5.7819,-5.7934,-5.8011,-5.8204,-5.8627,-5.9319,-5.9358,-5.9704,-6.0512,-6.0589,-6.0666,-6.0666,-6.0742,-6.0781,-6.0781,-6.0781,-6.0819,-6.0834,-6.195,-6.318,-6.4551,-6.6244,-6.7013,-6.7167,-6.8052,-6.9283,-7.0706,-7.1591,-7.1975,-7.2245,-7.386,-7.4553,-7.4822,-1.8788,0.0,0.0,0.0,0.0,0.0,0.0,0.0,0.0,0.0,0.0,0.0,0.0,0.0,0.0,0.0,-2.4991,-2.4244,-2.3259,-2.2489,0.0,-2.1935,-2.1525,-2.157,-2.2076,-2.2446,-2.2515,-2.2352,0.0,0.0,0.0,0.0,0.0,0.0,0.0,0.0,0.0,0.0,0.0,-3.335,-3.399,-3.5013,-3.6234,-3.6627,-3.6125,-3.529,-3.5597,-3.6392,-3.7637,-4.0486,-4.0833,-4.0766,-4.4626,-4.5017,-4.3948,-4.332,-4.4141,-4.5127,-4.4295,-4.5214,-4.6309,-4.5753,-4.6728,0.0,-4.6488,-4.702,-4.7417,-4.624,-4.6454,-4.6685,-4.6147,-4.6877,-4.7261,-4.6359,-4.7645,-4.9279,-5.0779,-5.1087,-5.1818,-5.351,-5.3703,-5.3818,-5.4164,-5.4818,-5.5511,-5.6165,-5.7511,-5.8357,-5.855,-5.855,-5.8627,-5.8781,-5.9435,-5.9742,-5.9742,-6.0435,-6.0781,-6.0781,-6.0781,-6.0781,-6.0819,-6.1743,-6.2666,-6.3666,-6.5397,-6.6513,-6.7167,-6.8052,-6.859,-6.8975,-6.986,-7.0591,-7.1283,-7.2322,-7.3553,-7.4707,-1.8931,0.0,0.0,0.0,0.0,0.0,0.0,0.0,0.0,0.0,0.0,0.0,0.0,0.0,0.0,0.0,0.0,0.0,0.0,-2.4395,-2.4003,-2.3182,-2.2737,-2.2772,-2.3236,-2.3662,-2.3896,-2.3955,0.0,0.0,0.0,0.0,0.0,0.0,0.0,0.0,0.0,0.0,-3.412,-3.5312,-3.5689,-3.6044,-3.6433,-3.7205,-3.6935,-3.6203,-3.6598,-3.7007,-3.8022,-4.2377,-4.2671,-4.1724,-4.4815,-4.5973,-4.5973,-4.5214,-4.5817,-4.6589,-4.5799,-4.6219,-4.6796,-4.6355,-4.7219,0.0,0.0,-4.7184,-4.7338,-4.6973,-4.6839,-4.6877,-4.7356,-4.776,-4.776,-4.6934,-4.7914,-4.8952,-4.9411,-4.9836,-5.0625,-5.1818,-5.2356,-5.2818,-5.3164,-5.3685,-5.4262,-5.5049,-5.5895,-5.678,-5.7588,-5.7665,-5.7857,-5.828,-5.8704,-5.9088,-5.9511,-5.9935,-6.0358,-6.0781,-6.0781,-6.0781,-6.0819,-6.182,-6.2512,-6.2988,-6.4589,-6.5743,-6.6551,-6.6974,-6.7167,-6.7321,-6.9013,-6.9937,-7.0475,-7.1745,-7.2745,-7.3553,-1.9048,0.0,0.0,0.0,0.0,0.0,0.0,0.0,0.0,0.0,0.0,0.0,0.0,0.0,0.0,0.0,0.0,0.0,-2.6343,-2.6589,-2.6194,-2.4946,-2.4366,-2.4202,-2.4411,-2.4941,-2.5329,-2.5552,0.0,0.0,0.0,0.0,0.0,0.0,0.0,0.0,0.0,0.0,0.0,-3.7383,-3.8203,-3.8128,-3.7656,-3.8825,-3.8891,-3.835,-3.8281,-3.8238,-3.8907,-4.3081,-4.3281,-4.2332,-4.5295,-4.6947,-4.7665,-4.7258,-4.776,-4.8279,-4.7357,-4.7375,-4.7568,-4.7395,-4.7914,-4.8413,0.0,0.0,0.0,-4.7933,-4.7432,-4.7315,-4.8635,-4.8928,-4.87,-4.7775,-4.8429,-4.8698,-4.7673,-4.8562,-4.9624,-5.0547,-5.1336,-5.2067,-5.2682,-5.3031,-5.3492,-5.4241,-5.428,-5.4895,-5.6242,-5.6434,-5.6819,-5.755,-5.7896,-5.8357,-5.9011,-5.9511,-6.0012,-6.055,-6.0704,-6.0781,-6.0819,-6.1766,-6.2243,-6.2488,-6.3782,-6.4859,-6.5667,-6.582,-6.5897,-6.6128,-6.8321,-6.9283,-6.9629,-7.1168,-7.1898,-7.2399,-1.9053,-1.9805,0.0,0.0,0.0,0.0,0.0,0.0,0.0,0.0,0.0,0.0,0.0,0.0,0.0,0.0,-3.0622,-3.022,-2.9931,-2.8522,-2.7962,-2.8499,-2.6331,-2.5482,-2.6189,-2.5649,-2.5746,-2.6436,0.0,0.0,0.0,0.0,0.0,0.0,-3.0273,0.0,0.0,0.0,-3.6303,-3.7382,-3.8248,-3.8912,-3.9312,-3.8701,-3.8775,-3.9251,-3.9167,-3.9161,-3.9677,-4.3227,-4.325,-4.2508,-4.6565,-4.7376,-4.6992,-4.7665,-4.8989,-4.9869,-4.8318,-4.9009,-4.9969,-4.914,-4.9601,-5.0002,-4.9133,0.0,-4.8652,-4.8039,0.0,-4.7515,-4.6985,0.0,0.0,-4.5808,-4.7013,-4.7532,-4.5786,-4.706,-4.8732,-5.0347,-5.0636,-5.0773,-5.1045,-5.1895,-5.2743,-5.3472,-5.3528,-5.3605,-5.3797,-5.4434,-5.4818,-5.4934,-5.6357,-5.7165,-5.728,-5.9534,-6.0304,-5.9665,-6.0435,-6.0781,-6.0781,-6.0935,-6.1396,-6.2204,-6.3089,-6.3935,-6.482,-6.559,-6.5897,-6.6013,-6.7013,-6.7859,-6.8667,-6.9629,-7.0937,-7.2206,-1.9259,-2.029,0.0,0.0,0.0,0.0,0.0,0.0,0.0,0.0,0.0,0.0,0.0,0.0,-3.2307,0.0,-3.3457,-3.3177,-3.215,-3.139,0.0,-3.2192,-2.9226,-2.8203,-2.9602,-2.7845,-2.7314,0.0,-2.7357,0.0,0.0,0.0,0.0,0.0,-3.1159,0.0,-3.502,0.0,-3.7999,-3.8997,-4.1855,-4.2265,-4.1012,-3.9596,-3.9469,-4.0029,-4.0023,-4.0008,-4.0331,-4.2425,-4.3179,-4.3547,-4.5355,-4.6972,-4.826,-4.8087,-4.8913,-4.9605,-4.8395,-4.8587,-4.9029,-4.8605,-4.912,-4.9707,-4.9794,-4.9381,-4.9029,-4.9143,0.0,0.0,0.0,0.0,0.0,0.0,-4.6877,-4.7472,-4.6663,-4.7234,-4.7861,-4.8133,-4.8711,-4.9175,-4.9391,-5.0545,-5.1645,-5.2507,-5.2589,-5.2986,-5.3909,-5.3895,-5.3839,-5.3741,-5.4934,-5.578,-5.6242,-5.828,-5.965,-6.0265,-6.0627,-6.0781,-6.0781,-6.0781,-6.1012,-6.1373,-6.2243,-6.3281,-6.4436,-6.4936,-6.5436,-6.5936,-6.6282,-6.6628,-6.7218,-6.9513,-7.0552,-7.0898,-1.9455,0.0,0.0,0.0,0.0,0.0,0.0,0.0,0.0,0.0,0.0,0.0,-3.493,-3.4834,-3.4982,-3.6055,-3.6651,-3.6312,-3.475,-3.4191,-3.4127,-3.4497,-3.2046,-3.1172,-3.226,-3.0397,-2.9738,0.0,0.0,0.0,0.0,0.0,0.0,0.0,0.0,-3.4354,-3.647,0.0,-3.9384,-4.0385,-4.3479,-4.3528,-4.1659,-4.0617,-4.0521,-4.0893,-4.0854,-4.1008,-4.1354,-4.2431,-4.3431,-4.4393,-4.4837,-4.6683,-4.8606,-4.8183,-4.8529,-4.8875,-4.826,-4.8395,-4.876,-4.8682,-4.9252,-4.9947,-5.0512,-5.0111,-4.9695,-5.0051,-4.9327,0.0,0.0,0.0,-4.7642,-4.6719,0.0,-4.7403,-4.7163,-4.715,-4.7058,-4.6838,-4.7554,-4.8094,-4.8154,-4.9413,-5.0527,-5.1211,-5.151,-5.2154,-5.3349,-5.3144,-5.2933,-5.2856,-5.3933,-5.478,-5.5357,-5.7088,-5.8665,-6.0111,-6.0319,-6.055,-6.0781,-6.0781,-6.0819,-6.0834,-6.1704,-6.2666,-6.3705,-6.432,-6.5089,-6.5897,-6.5897,-6.5897,-6.6256,-6.9129,-6.9975,-6.9898,-1.9508,-2.0788,0.0,0.0,0.0,0.0,0.0,0.0,-2.8645,-3.1225,-3.2353,-3.4248,-3.7789,-3.8215,-3.8908,-4.066,-4.0117,-3.9306,-3.8389,-3.6762,-3.5459,-3.4627,-3.4418,-3.3984,-3.3271,-3.3096,-3.3082,-3.3171,0.0,0.0,0.0,0.0,0.0,0.0,0.0,-3.6399,-3.7376,-3.8996,-4.0169,-4.0954,-4.0951,-4.0875,-4.0808,-4.1538,-4.1894,-4.1931,-4.1816,-4.2316,-4.3124,-4.397,-4.4239,-4.4586,-4.6224,-4.682,-4.705,-4.778,-4.801,-4.8049,-4.801,-4.9199,-5.0423,-5.0402,-5.0987,-5.1544,-5.1544,-5.1495,-5.1154,-5.0279,-5.0736,-5.0774,-4.9175,-4.8821,-4.8466,-4.7593,-4.7378,0.0,0.0,-4.6086,-4.6429,-4.7462,-4.7785,-4.7823,-4.7662,-4.8784,-4.9504,-4.9405,-5.0205,-5.0807,-5.0909,-5.1506,-5.1872,-5.1933,-5.3626,-5.4511,-5.4549,-5.6203,-5.7473,-5.8396,-5.9165,-5.9973,-6.0781,-6.0781,-6.0781,-6.0858,-6.1704,-6.2127,-6.2281,-6.3935,-6.5114,-6.5884,-6.5897,-6.5897,-6.609,-6.7859,-6.9013,-6.9821,0.0,0.0,0.0,0.0,0.0,0.0,-2.6871,-2.8492,-3.0444,-3.3045,-3.3693,-3.5679,-4.0298,-4.0939,-4.1484,-4.2601,-4.2516,-4.1777,-4.0384,-3.9684,-3.8975,-3.8159,-3.802,-3.762,-3.6758,-3.6157,-3.5861,-3.5892,-3.415,0.0,0.0,0.0,0.0,0.0,0.0,-3.6484,0.0,0.0,0.0,-4.0177,-4.0565,-4.2085,-4.3921,-4.251,-4.1925,-4.197,-4.2871,-4.3124,-4.3316,-4.468,-4.4795,-4.4509,-4.5645,-4.6414,-4.6896,-4.7165,-4.7626,-4.7952,-4.7395,-4.7703,-4.8241,-4.872,-4.9379,-5.0159,-5.1154,-5.1749,-5.1916,-5.1623,-5.1784,-5.1443,-4.9857,-4.9944,-4.9787,-4.8332,-4.7624,-4.7116,0.0,-4.5337,-4.4584,-4.5375,-4.6253,-4.6567,-4.6074,-4.7881,-4.9094,-4.9112,-4.9973,-5.0779,-5.1446,-5.1185,-5.1139,-5.1241,-5.2241,-5.3241,-5.4185,-5.5472,-5.6665,-5.7726,-5.8934,-5.9665,-5.9973,-6.055,-6.0781,-6.0819,-6.1089,-6.155,-6.2127,-6.2704,-6.3743,-6.5013,-6.5051,-6.5397,-6.609,-6.7782,-6.8359,-6.8564,-2.3454,0.0,0.0,0.0,-2.4643,-2.6453,-2.8262,-3.0417,-3.2767,-3.54,-3.6309,-3.8369,-4.2643,-4.3266,-4.3672,-4.4471,-4.4315,-4.3587,-4.2187,-4.1758,-4.1054,-3.9953,-4.0444,-4.0184,-3.902,-3.9334,-3.9219,-3.8588,-3.7432,-3.6777,0.0,0.0,0.0,0.0,0.0,-3.7209,-3.7884,-4.0011,-4.0576,-4.0159,-4.1166,-4.3048,-4.5186,-4.3805,-4.3272,-4.3256,-4.3833,-4.4025,-4.4162,-4.5218,-4.5218,-4.4855,-4.5432,-4.597,-4.6432,-4.6432,-4.6817,-4.7086,-4.6586,-4.6876,-4.7395,-4.7914,-4.8792,-4.9809,-5.0808,-5.1561,-5.1988,-5.163,-5.1935,-5.1878,-5.0572,-5.061,-5.0417,-4.8964,-4.7805,-4.6694,0.0,-4.4477,-4.3587,-4.3493,-4.4482,-4.5155,-4.4978,-4.6733,-4.7922,-4.7969,-4.9074,-5.01,-5.0832,-5.0673,-5.0653,-5.0894,-5.1548,-5.2472,-5.3723,-5.4741,-5.5934,-5.7264,-5.8473,-5.9204,-5.9511,-6.0396,-6.0781,-6.0781,-6.0781,-6.1127,-6.1666,-6.1973,-6.2897,-6.4166,-6.4474,-6.5128,-6.6051,-6.7436,-6.8129,-6.8564,0.0,-2.3699,-2.3997,-2.4798,-2.6555,-2.8399,-3.011,-3.2662,-3.5379,-3.8097,-3.9922,-4.2042,-4.4781,-4.5057,-4.5419,-4.6211,-4.5547,-4.4687,-4.3828,-4.3047,-4.1836,-4.0117,-4.1633,-4.175,-4.0078,-4.2407,-4.2864,-4.1277,-4.1045,0.0,0.0,0.0,0.0,0.0,-3.8219,0.0,-3.858,-4.0195,-4.0898,-4.1029,-4.2517,-4.3698,-4.4654,-4.5379,-4.5693,-4.5654,-4.468,-4.4893,-4.5586,-4.5586,-4.5586,-4.5586,-4.5586,-4.5586,-4.5586,-4.5586,-4.5586,-4.5586,-4.5586,-4.6742,-4.7895,-4.7991,-4.9258,-5.044,-5.05,-5.113,-5.1491,-5.0612,-5.1485,-5.2134,-5.1319,-5.0907,-5.0429,-4.9602,-4.7903,-4.5805,-4.329,-4.3497,-4.3453,-4.2072,-4.2779,-4.3611,-4.4308,-4.544,-4.6138,-4.5999,-4.7629,-4.8745,-4.9134,-4.9854,-5.0435,-5.0875,-5.1548,-5.2318,-5.3203,-5.4087,-5.5318,-5.6934,-5.7857,-5.8704,-5.9473,-6.0396,-6.0781,-6.0781,-6.0781,-6.0781,-6.0858,-6.1666,-6.2512,-6.332,-6.4205,-6.5128,-6.6051,-6.6821,-6.8244,-6.986,-2.4788,-2.5156,-2.5907,-2.6848,-2.8452,-3.0006,-3.1163,-3.3103,-3.5865,-3.9786,-4.076,-4.232,-4.5622,-4.5975,-4.6054,-4.6289,-4.6094,-4.5586,-4.4726,-4.5078,-4.4258,-4.1875,-4.3398,-4.3515,-4.1797,-4.2412,-4.3138,-4.3997,-4.1443,0.0,-4.1679,0.0,0.0,0.0,0.0,0.0,-3.8649,-4.0903,-4.2141,-4.2626,-4.2973,-4.402,-4.5324,-4.485,-4.5483,-4.6463,-4.5603,-4.5393,-4.5586,-4.5586,-4.5586,-4.5586,-4.5586,-4.5586,-4.5586,-4.5586,-4.5586,-4.5586,-4.5586,-4.5893,-4.6376,-4.7048,-4.8375,-4.969,-5.0221,-5.1453,-5.2373,-5.2133,-5.2284,-5.2379,-5.204,-5.1857,-5.1443,-5.0403,-4.8221,-4.5935,-4.3918,-4.3262,-4.3144,-4.3324,-4.3111,-4.2855,-4.253,-4.517,-4.6345,-4.4937,-4.7192,-4.8672,-4.8805,-4.9087,-4.9739,-5.0794,-5.154,-5.2356,-5.3338,-5.4087,-5.5011,-5.6049,-5.7588,-5.8396,-5.8665,-6.0127,-6.0781,-6.0781,-6.0781,-6.0781,-6.0819,-6.105,-6.1627,-6.2474,-6.332,-6.4936,-6.6859,-6.7295,-6.8821,-7.0629,-2.6339,-2.7166,-2.8071,-2.8334,-3.0755,-3.2849,-3.3421,-3.5706,-3.8525,-4.174,-4.2894,-4.4138,-4.6087,-4.6288,-4.6289,-4.6289,-4.6289,-4.6094,-4.5586,-4.6016,-4.5469,-4.3633,-4.4101,-4.3789,-4.2422,-4.277,-4.3462,-4.445,-4.2519,-4.2023,-4.2886,0.0,0.0,0.0,0.0,-3.9345,-3.9759,-4.1855,-4.3352,-4.4341,-4.4245,-4.5038,0.0,-4.5637,-4.5813,-4.6292,-4.5796,-4.5586,-4.5586,-4.5586,-4.5586,-4.5586,-4.5586,-4.5586,-4.5586,-4.5586,-4.5586,-4.5586,-4.5586,-4.5586,-4.5817,-4.6701,-4.753,-4.8393,-4.9179,-5.0342,-5.1255,-5.1255,-5.1711,-5.2018,-5.1965,-5.1991,-5.1506,-4.9986,-4.762,-4.5444,-4.405,-4.3398,-4.3139,-4.3278,-4.3569,-4.333,-4.2233,-4.4429,-4.551,-4.4429,-4.6177,-4.7541,-4.8286,-4.8537,-4.948,-5.1243,-5.1982,-5.3091,-5.4647,-5.4908,-5.5583,-5.6683,-5.7774,-5.8319,-5.8357,-6.005,-6.0781,-6.0781,-6.0781,-6.0781,-6.0781,-6.0781,-6.132,-6.2204,-6.3397,-6.5436,-6.7705,-6.7871,-6.8975,-7.0437,-2.8245,-2.9435,-3.0393,-2.977,-3.3209,-3.6202,-3.661,-3.9194,-4.1753,-4.3643,-4.5177,-4.6179,-4.63,-4.6285,-4.6289,-4.6289,-4.6289,-4.6289,-4.6289,-4.6289,-4.5976,-4.5195,-4.4336,-4.3516,-4.2773,-4.3359,-4.3821,-4.4046,-4.3825,-4.3759,0.0,0.0,0.0,0.0,0.0,0.0,0.0,-4.2926,-4.4408,-4.5786,-4.5703,-4.6133,-4.6822,-4.675,-4.6236,-4.5586,-4.5586,-4.5586,-4.5586,-4.5586,-4.5586,-4.5586,-4.5586,-4.5586,-4.5586,-4.5586,-4.5586,-4.5586,-4.5586,-4.5586,-4.5778,-4.6547,-4.6894,-4.724,-4.7932,-4.8856,-4.9586,-4.9586,-5.0538,-5.1415,-5.1481,-5.1622,-5.1166,-4.9299,-4.7013,-4.521,-4.4543,-4.411,-4.3708,-4.3217,-4.4354,0.0,-4.3107,-4.3943,-4.4423,-4.4095,-4.4946,-4.6143,-4.7617,-4.8013,-4.9334,-5.1944,-5.2539,-5.3926,-5.6159,-5.5844,-5.6345,-5.7609,-5.7997,-5.8204,-5.8357,-6.005,-6.0781,-6.0781,-6.0781,-6.0781,-6.0781,-6.0781,-6.1358,-6.2397,-6.3974,-6.609,-6.8244,-6.8359,-6.8936,-6.9821,-3.0153,-3.139,-3.258,-3.2474,-3.5507,-3.8673,-4.0917,-4.1132,-4.1908,-4.4454,-4.506,-4.5484,-4.6218,-4.6285,-4.6289,-4.6289,-4.6289,-4.6289,-4.6289,-4.6289,-4.6211,-4.6094,-4.5234,-4.4687,-4.4531,-4.3984,-4.441,-4.5828,-4.4397,-4.409,-4.4738,-4.2119,0.0,0.0,0.0,0.0,-4.3147,-4.3967,-4.4833,-4.5703,-4.5616,-4.5719,-4.5851,-4.5834,-4.5719,-4.5586,-4.5586,-4.5586,-4.5586,-4.5586,-4.5586,-4.5586,-4.5586,-4.5586,-4.5586,-4.5586,-4.5586,-4.5586,-4.5586,-4.5586,-4.5624,-4.5778,-4.6855,-4.7932,-4.8086,-4.9317,-5.0471,-5.0471,-5.0682,-5.0964,-5.1391,-5.1533,-5.1286,-5.045,-4.8822,-4.7795,-4.7937,-4.6776,-4.6108,-4.643,-4.6471,-4.6196,-4.5436,-4.5885,-4.527,-4.2976,-4.4426,-4.5749,-4.6545,-4.6906,-4.8565,-5.1903,-5.2427,-5.3556,-5.5446,-5.5614,-5.5835,-5.6076,-5.7066,-5.7819,-5.8357,-6.0035,-6.0804,-6.0781,-6.0781,-6.0781,-6.0781,-6.0781,-6.1704,-6.3205,-6.4205,-6.5705,-6.7398,-6.8129,-6.8936,-6.9821,-3.1978,-3.2956,0.0,-3.4468,-3.7452,-4.0376,-4.214,-4.3169,-4.422,-4.5501,-4.5651,-4.5844,-4.6243,-4.6288,-4.6289,-4.6289,-4.6289,-4.6289,-4.6289,-4.6289,-4.6289,-4.6289,-4.5469,-4.5,-4.5,-4.4141,-4.4527,-4.6257,-4.452,-4.4358,-4.5577,-4.2997,-4.1558,0.0,0.0,-4.2611,0.0,-4.486,-4.5385,-4.5712,-4.5637,-4.5586,-4.5586,-4.5586,-4.5586,-4.5586,-4.5586,-4.5586,-4.5586,-4.5586,-4.5586,-4.5586,-4.5586,-4.5586,-4.5586,-4.5586,-4.5586,-4.5586,-4.5586,-4.5586,-4.5701,-4.6163,-4.6894,-4.7586,-4.8009,-4.9086,-5.001,-5.001,-5.0394,-5.0873,-5.1415,-5.1125,-5.0837,-5.0824,-4.9674,-4.8816,-4.899,-4.7975,-4.7457,-4.815,-4.8087,-4.7676,-4.69,-4.7235,-4.6461,-4.3989,-4.4235,-4.5049,-4.6426,-4.655,-4.8082,-5.1457,-5.255,-5.4088,-5.6154,-5.6307,-5.6668,-5.7237,-5.7666,-5.8011,-5.8357,-6.0035,-6.0804,-6.0781,-6.0781,-6.0781,-6.0819,-6.1281,-6.2204,-6.3397,-6.4282,-6.5897,-6.7821,-6.8244,-6.9206,-7.0398,-3.4824,-3.5577,-3.6453,-3.7333,-3.9954,-4.2279,-4.3324,-4.5111,-4.6312,-4.6289,-4.6289,-4.6289,-4.6289,-4.6289,-4.6289,-4.6289,-4.6289,-4.6289,-4.6289,-4.6289,-4.6289,-4.6289,-4.5625,-4.5273,-4.5273,-4.4596,-4.4844,-4.6197,-4.5056,-4.4962,-4.5852,-4.4064,-4.2972,-4.266,-4.3622,-4.4248,-4.4676,-4.544,-4.5742,-4.5648,-4.562,-4.5586,-4.5586,-4.5586,-4.5586,-4.5586,-4.5586,-4.5586,-4.5586,-4.5586,-4.5586,-4.5586,-4.5586,-4.5586,-4.5586,-4.5586,-4.5586,-4.5586,-4.5586,-4.574,-4.6047,-4.674,-4.7163,-4.7586,-4.824,-4.9048,-4.9663,-4.9663,-5.0202,-5.0835,-5.1255,-5.0818,-5.0558,-5.1102,-5.0303,-4.9716,-5.0023,-4.915,-4.8696,-4.9239,-4.9262,-4.8749,-4.763,-4.7611,-4.6984,-4.5219,-4.4412,-4.4704,-4.6246,-4.6391,-4.7779,-5.0783,-5.234,-5.4321,-5.6903,-5.6702,-5.706,-5.7967,-5.8054,-5.8165,-5.8357,-6.005,-6.0781,-6.0781,-6.0781,-6.0781,-6.0858,-6.1935,-6.2743,-6.3435,-6.4666,-6.6359,-6.8167,-6.8552,-6.9513,-7.0667,-4.0174,-4.1054,-4.1941,-4.2797,-4.3899,-4.5203,-4.6861,-4.6638,-4.6312,-4.6289,-4.6289,-4.6289,-4.6289,-4.6289,-4.6289,-4.6289,-4.6289,-4.6289,-4.6289,-4.6289,-4.6289,-4.6289,-4.6211,-4.6172,-4.6172,-4.5968,-4.5957,-4.6091,-4.6737,-4.6338,-4.4954,-4.5577,-4.4931,-4.3365,-4.5025,-4.5285,-4.4476,-4.5349,-4.5687,-4.5603,-4.5603,-4.5586,-4.5586,-4.5586,-4.5586,-4.5586,-4.5586,-4.5586,-4.5586,-4.5586,-4.5586,-4.5586,-4.5586,-4.5586,-4.5586,-4.5586,-4.5586,-4.5586,-4.5586,-4.6163,-4.6817,-4.6894,-4.8048,-4.9202,-4.924,-4.9933,-5.0587,-5.0587,-5.0625,-5.0702,-5.0759,-5.0903,-5.1201,-5.1722,-5.1357,-5.1491,-5.2739,-5.1513,-5.0347,-5.0033,-4.969,-4.8865,-4.7385,-4.6359,-4.5654,-4.5399,-4.5364,-4.537,-4.5259,-4.6214,-4.7831,-5.011,-5.1001,-5.311,-5.6695,-5.576,-5.5517,-5.5999,-5.6989,-5.7764,-5.8357,-6.0035,-6.0804,-6.0781,-6.0781,-6.0781,-6.0935,-6.2551,-6.3243,-6.3551,-6.5936,-6.7013,-6.7398,-6.9013,-6.9667,-6.9937,-4.1796,-4.1735,-4.2052,-4.3459,-4.4001,-4.4821,-4.6566,-4.6534,-4.6312,-4.6289,-4.6289,-4.6289,-4.6289,-4.6289,-4.6289,-4.6289,-4.6289,-4.6289,-4.6289,-4.6289,-4.6289,-4.6289,-4.6289,-4.6289,-4.6289,-4.6185,-4.6359,-4.6872,-4.7172,-4.6962,-4.624,-4.6115,-4.5395,-4.4145,-4.4821,-4.5128,-4.5218,-4.5517,-4.562,-4.5586,-4.5586,-4.5893,-4.6394,-4.6394,-4.6663,-4.7086,-4.7086,-4.7086,-4.7086,-4.7086,-4.6432,-4.5586,-4.5586,-4.5586,-4.5701,-4.624,-4.6394,-4.6509,-4.6971,-4.7355,-4.774,-4.8279,-4.8894,-4.9548,-5.0048,-5.0433,-5.0702,-5.0702,-5.0702,-5.0702,-5.0702,-5.0794,-5.1147,-5.2113,-5.1755,-5.1908,-5.3347,-5.2177,-5.1244,-5.145,-5.0675,-4.9671,-4.8464,-4.7499,-4.6785,-4.6394,-4.4891,-4.4381,-4.5297,-4.6101,-4.7488,-4.9487,-5.1316,-5.315,-5.4981,-5.5493,-5.6088,-5.6907,-5.7597,-5.8319,-5.905,-6.0242,-6.0804,-6.0781,-6.0781,-6.1166,-6.192,-6.2897,-6.3628,-6.4282,-6.632,-6.7398,-6.8013,-6.9244,-7.0014,-7.0475,-4.355,-4.3037,-4.3095,-4.4577,-4.4643,-4.4953,-4.6444,-4.6441,-4.6282,-4.6289,-4.6289,-4.6289,-4.6289,-4.6289,-4.6289,-4.6289,-4.6289,-4.6289,-4.6289,-4.6289,-4.6289,-4.6289,-4.6289,-4.6289,-4.6289,-4.6115,-4.6352,-4.6947,-4.7124,-4.7068,-4.6758,-4.6445,-4.584,-4.4937,-4.5138,-4.5542,-4.6034,-4.5736,-4.5893,-4.6317,-4.6086,-4.6509,-4.724,-4.724,-4.7625,-4.8086,-4.8086,-4.8086,-4.8086,-4.8086,-4.7317,-4.6317,-4.6317,-4.6317,-4.6471,-4.7086,-4.724,-4.7394,-4.7971,-4.8279,-4.8625,-4.924,-4.9586,-4.9933,-5.0548,-5.0702,-5.0702,-5.0702,-5.0702,-5.0702,-5.0702,-5.0702,-5.0985,-5.1955,-5.1917,-5.2247,-5.3423,-5.2553,-5.1954,-5.2197,-5.1214,-5.0016,-4.8802,-4.8016,-4.7414,-4.7022,-4.4967,-4.4305,-4.5802,-4.6434,-4.7268,-4.8455,-5.137,-5.3207,-5.3829,-5.5464,-5.6749,-5.7494,-5.8265,-5.8934,-5.9511,-6.0396,-6.0781,-6.0819,-6.1127,-6.1728,-6.2459,-6.332,-6.4051,-6.4782,-6.6436,-6.7628,-6.8513,-6.9398,-7.0206,-7.0898,-4.6249,-4.625,-4.6523,-4.7383,-4.6836,-4.6562,-4.7461,-4.6836,-4.6289,-4.6289,-4.6289,-4.6289,-4.6289,-4.6289,-4.6289,-4.6289,-4.6289,-4.6289,-4.6289,-4.6289,-4.6289,-4.6289,-4.6289,-4.6289,-4.6289,-4.6059,-4.5902,-4.5911,-4.6661,-4.6568,-4.5757,-4.6679,-4.6573,-4.5735,-4.6568,-4.6943,-4.6817,-4.597,-4.6547,-4.8009,-4.7201,-4.7355,-4.8086,-4.8086,-4.8086,-4.8086,-4.8086,-4.8086,-4.8086,-4.8086,-4.8086,-4.8086,-4.8086,-4.8086,-4.8086,-4.8086,-4.8086,-4.8086,-4.8086,-4.874,-4.9394,-4.9394,-5.0048,-5.0702,-5.0702,-5.0702,-5.0702,-5.0702,-5.0702,-5.0702,-5.0702,-5.0702,-5.0794,-5.1066,-5.1942,-5.274,-5.3156,-5.2849,-5.2408,-5.1966,-5.0895,-4.9562,-4.789,-4.7165,-4.6874,-4.7022,-4.6104,-4.592,-4.6763,-4.7243,-4.728,-4.6838,-5.0712,-5.3034,-5.3591,-5.5772,-5.6928,-5.7011,-5.8704,-5.9473,-5.9511,-6.0396,-6.0781,-6.0858,-6.1997,-6.2344,-6.2204,-6.3897,-6.4589,-6.4782,-6.6436,-6.7628,-6.8513,-6.9398,-7.0206,-7.0898,-4.6289,-4.6289,-4.6406,-4.668,-4.6484,-4.6406,-4.668,-4.6484,-4.6289,-4.6289,-4.6289,-4.6289,-4.6289,-4.6289,-4.6289,-4.6289,-4.6289,-4.6289,-4.6289,-4.6289,-4.6289,-4.6289,-4.6289,-4.6289,-4.6289,-4.6059,-4.5902,-4.5911,-4.6629,-4.687,-4.66,-4.6259,-4.6249,-4.6506,-4.6814,-4.7219,-4.7663,-4.6855,-4.7124,-4.8048,-4.724,-4.774,-4.8971,-4.8971,-4.9356,-4.9856,-4.9856,-4.9856,-4.9856,-4.9856,-4.9856,-4.9856,-4.9856,-4.9048,-4.824,-4.8817,-4.8971,-4.9125,-4.9702,-5.0087,-5.0279,-5.0279,-5.0471,-5.0702,-5.0702,-5.0702,-5.0702,-5.0702,-5.0702,-5.0702,-5.0702,-5.0702,-5.0985,-5.1917,-5.1629,-5.17,-5.2919,-5.2696,-5.221,-5.1737,-5.1395,-5.0648,-4.9249,-4.822,-4.8021,-4.8895,-4.7322,-4.6773,-4.7832,-4.8826,-4.9542,-4.9776,-5.251,-5.4042,-5.4192,-5.6445,-5.7662,-5.7896,-5.8973,-5.9819,-6.0396,-6.0666,-6.1127,-6.1704,-6.205,-6.282,-6.3858,-6.4397,-6.4936,-6.5667,-6.7321,-6.8167,-6.859,-6.9975,-7.0667,-7.0898,-4.6289,-4.6289,-4.6289,-4.6289,-4.6289,-4.6289,-4.6289,-4.6289,-4.6289,-4.6289,-4.6289,-4.6406,-4.6758,-4.6797,-4.6797,-4.6797,-4.6797,-4.6914,-4.7266,-4.6953,-4.6797,-4.6797,-4.6484,-4.628,-4.6235,-4.6029,-4.5902,-4.5873,-4.6271,-4.648,-4.648,-4.6198,-4.6394,-4.6932,-4.724,-4.7625,-4.8048,-4.724,-4.7548,-4.8509,-4.7702,-4.8355,-4.9894,-4.9894,-5.024,-5.0702,-5.0702,-5.0702,-5.0702,-5.0702,-5.0702,-5.0702,-5.0702,-4.9933,-4.9163,-4.974,-4.9894,-5.001,-5.0548,-5.0702,-5.0702,-5.0702,-5.0702,-5.0702,-5.0702,-5.0702,-5.0702,-5.0702,-5.0702,-5.0702,-5.0702,-5.0702,-5.095,-5.1691,-5.1173,-5.1162,-5.247,-5.2341,-5.2091,-5.194,-5.1587,-5.0929,-4.991,-4.9078,-4.8993,-4.979,-4.8877,-4.8627,-4.9342,-5.0001,-5.0748,-5.1774,-5.3792,-5.4895,-5.4971,-5.7145,-5.8257,-5.8319,-5.9435,-6.0281,-6.0781,-6.0781,-6.1281,-6.2127,-6.2666,-6.3551,-6.4628,-6.4936,-6.5397,-6.6013,-6.7398,-6.8129,-6.859,-6.9937,-7.0629,-7.0898,-4.6289,-4.6289,-4.6289,-4.6289,-4.6289,-4.6328,-4.6367,-4.6328,-4.6328,-4.6367,-4.6406,-4.6719,-4.75,-4.7656,-4.7695,-4.7773,-4.7734,-4.8047,-4.8867,-4.8125,-4.7695,-4.7695,-4.6874,-4.6313,-4.6198,-4.5995,-4.584,-4.5796,-4.5701,-4.5701,-4.5701,-4.6586,-4.7009,-4.7124,-4.7855,-4.824,-4.824,-4.7432,-4.8009,-4.9394,-4.8548,-4.9202,-5.0702,-5.0702,-5.0702,-5.0702,-5.0702,-5.0702,-5.0702,-5.0702,-5.0702,-5.0702,-5.0702,-5.0702,-5.0702,-5.0702,-5.0702,-5.0702,-5.0702,-5.0702,-5.0702,-5.0702,-5.0702,-5.0702,-5.0702,-5.0702,-5.0702,-5.0702,-5.0702,-5.0702,-5.0702,-5.0702,-5.0702,-5.0702,-5.0682,-5.1053,-5.1972,-5.1988,-5.204,-5.2428,-5.1617,-5.0681,-4.9949,-4.9822,-4.9834,-4.9974,-5.0642,-5.111,-5.1288,-5.0786,-5.1237,-5.2799,-5.4571,-5.5617,-5.5771,-5.7805,-5.8693,-5.8511,-6.005,-6.0819,-6.0896,-6.0896,-6.1396,-6.2358,-6.3652,-6.4397,-6.4743,-6.5551,-6.5936,-6.6051,-6.6859,-6.7705,-6.859,-6.9475,-7.0244,-7.0898,-4.6289,-4.6289,-4.6289,-4.6289,-4.6289,-4.6523,-4.7187,-4.6719,-4.6523,-4.7226,-4.7305,-4.7383,-4.7578,-4.8203,-4.8867,-4.9531,-4.8984,-4.8672,-4.8906,-4.8711,-4.8594,-4.8594,-4.7765,-4.7216,-4.7101,-4.6298,-4.5819,-4.5624,-4.6278,-4.6586,-4.6624,-4.7432,-4.8163,-4.8817,-4.9009,-4.9471,-5.001,-4.9163,-4.9433,-5.0317,-4.9433,-4.974,-5.0702,-5.0702,-5.0702,-5.0702,-5.0702,-5.0702,-5.0702,-5.0702,-5.0702,-5.0702,-5.0702,-5.0702,-5.0702,-5.0702,-5.0702,-5.0702,-5.0702,-5.0702,-5.0702,-5.0702,-5.0702,-5.0702,-5.0702,-5.0702,-5.0702,-5.0702,-5.0702,-5.0702,-5.0702,-5.0702,-5.0702,-5.0702,-5.0702,-5.1037,-5.1972,-5.2167,-5.2194,-5.2227,-5.2077,-5.1586,-5.0577,-5.0445,-5.0811,-5.1581,-5.1103,-5.1444,-5.2915,-5.2699,-5.2694,-5.3077,-5.4762,-5.5959,-5.6691,-5.8265,-5.9442,-6.0204,-6.0589,-6.1127,-6.1781,-6.1781,-6.2589,-6.4012,-6.4359,-6.4936,-6.559,-6.582,-6.6244,-6.6898,-6.7744,-6.8629,-6.9475,-7.0321,-7.0744,-7.0898,-4.6289,-4.6289,-4.6289,-4.6289,-4.6641,-4.6914,-4.6992,-4.6953,-4.6914,-4.6992,-4.7344,-4.7734,-4.8164,-4.8984,-4.9844,-5.0664,-4.9961,-4.9648,-5.0039,-4.9687,-4.948,-4.9481,-4.8203,-4.7472,-4.7287,-4.6336,-4.5988,-4.6201,-4.6663,-4.7086,-4.7471,-4.8317,-4.8933,-4.9433,-4.9817,-5.0048,-5.0048,-4.9586,-4.9663,-5.0048,-4.9586,-4.9933,-5.0702,-5.0702,-5.0702,-5.0702,-5.0702,-5.0702,-5.0702,-5.0702,-5.0702,-5.0702,-5.0702,-5.0702,-5.0702,-5.0702,-5.0702,-5.0702,-5.0702,-5.0702,-5.0702,-5.0702,-5.0702,-5.0702,-5.0702,-5.0702,-5.0702,-5.0702,-5.0702,-5.0702,-5.0702,-5.0702,-5.051,-5.001,-5.0943,-5.1672,-5.1592,-5.2009,-5.2265,-5.221,-5.184,-5.1354,-5.0759,-5.0702,-5.0929,-5.1491,-5.1415,-5.1789,-5.276,-5.3479,-5.3847,-5.3847,-5.5439,-5.6511,-5.6973,-5.8511,-5.9781,-6.0781,-6.0781,-6.105,-6.1512,-6.1935,-6.282,-6.4026,-6.4436,-6.5089,-6.5897,-6.5897,-6.6359,-6.7167,-6.8052,-6.8936,-6.9821,-7.0591,-7.1168,-7.1437,-4.6289,-4.6289,-4.6328,-4.6484,-4.6992,-4.7226,-4.6758,-4.7226,-4.7383,-4.6758,-4.7461,-4.8281,-4.9023,-4.9883,-5.0664,-5.1328,-5.0781,-5.0664,-5.1367,-5.0742,-5.0371,-5.0383,-4.86,-4.755,-4.7388,-4.6452,-4.6317,-4.7086,-4.7201,-4.7625,-4.8317,-4.9202,-4.9586,-4.9625,-5.0356,-5.0279,-4.9586,-4.9586,-4.9586,-4.9586,-4.9586,-5.0048,-5.0702,-5.0702,-5.0702,-5.0702,-5.0702,-5.0702,-5.0702,-5.0702,-5.0702,-5.0702,-5.0702,-5.0702,-5.0702,-5.0702,-5.0702,-5.0702,-5.0702,-5.0702,-5.0702,-5.0702,-5.0702,-5.0702,-5.0702,-5.0702,-5.0702,-5.0702,-5.0702,-5.0702,-5.0702,-5.0702,-5.049,-4.9795,-5.1419,-5.2531,-5.167,-5.1982,-5.2265,-5.2265,-5.1331,-5.0741,-5.0856,-5.0894,-5.0971,-5.1241,-5.1902,-5.2336,-5.25,-5.3798,-5.4724,-5.4979,-5.6318,-5.7126,-5.7357,-5.8934,-6.0089,-6.0781,-6.0935,-6.105,-6.1219,-6.205,-6.2897,-6.3757,-6.4474,-6.5205,-6.5897,-6.6013,-6.6551,-6.7359,-6.8282,-6.9129,-6.9975,-7.0667,-7.1437,-7.2091,-4.6289,-4.6289,-4.6523,-4.7266,-4.6914,-4.6953,-4.8281,-4.8008,-4.7812,-4.8437,-4.9258,-4.9844,-4.9961,-5.0742,-5.125,-5.1406,-5.1289,-5.1289,-5.1406,-5.1289,-5.1196,-5.1211,-4.9483,-4.8441,-4.8298,-4.7272,-4.7124,-4.7932,-4.8663,-4.9086,-4.9202,-5.0087,-5.051,-5.051,-5.0625,-5.0625,-5.051,-5.051,-5.051,-5.051,-5.051,-5.0587,-5.0702,-5.0702,-5.0702,-5.0702,-5.0702,-5.0702,-5.0702,-5.0702,-5.0702,-5.0702,-5.0702,-5.0702,-5.0702,-5.0702,-5.0702,-5.0702,-5.0702,-5.0702,-5.0702,-5.0702,-5.0702,-5.0702,-5.0702,-5.0702,-5.0702,-5.0702,-5.0702,-5.0702,-5.0702,-5.0702,-5.1177,-5.2551,-5.2585,-5.2815,-5.4118,-5.3119,-5.2237,-5.2144,-5.127,-5.0971,-5.1664,-5.1702,-5.2318,-5.378,-5.3371,-5.369,-5.5199,-5.4814,-5.5211,-5.6755,-5.6931,-5.7665,-5.9088,-6.0089,-6.0666,-6.0819,-6.155,-6.2243,-6.2935,-6.3589,-6.4474,-6.5513,-6.5628,-6.5782,-6.5936,-6.6628,-6.7436,-6.8282,-6.9167,-7.0014,-7.0744,-7.086,-7.1437,-7.2283,-4.6289,-4.6289,-4.6562,-4.7461,-4.7266,-4.7422,-4.8711,-4.8555,-4.8437,-4.8867,-4.9648,-5.0195,-5.0195,-5.0937,-5.1406,-5.1406,-5.1406,-5.1406,-5.1406,-5.1406,-5.1414,-5.1412,-5.0054,-4.8754,-4.7679,-4.7142,-4.7278,-4.8086,-4.8971,-4.9625,-5.0087,-5.051,-5.0702,-5.0702,-5.0702,-5.0702,-5.0702,-5.0702,-5.0702,-5.0702,-5.0702,-5.0702,-5.0702,-5.0702,-5.0702,-5.0702,-5.0702,-5.0702,-5.0702,-5.0702,-5.0702,-5.0702,-5.0702,-5.0702,-5.0702,-5.0702,-5.0702,-5.0702,-5.0702,-5.0702,-5.0702,-5.0702,-5.0702,-5.0818,-5.1241,-5.1356,-5.1471,-5.1933,-5.1664,-5.1202,-5.0798,-5.0702,-5.1233,-5.2851,-5.2645,-5.2748,-5.4198,-5.3164,-5.2265,-5.2237,-5.1714,-5.151,-5.1856,-5.2318,-5.2933,-5.3741,-5.3433,-5.3772,-5.5096,-5.5132,-5.5961,-5.7736,-5.8127,-5.8934,-6.0204,-6.0589,-6.105,-6.1512,-6.1897,-6.2704,-6.382,-6.4243,-6.4974,-6.5897,-6.5897,-6.6244,-6.6821,-6.7013,-6.7782,-6.8898,-6.9475,-7.0206,-7.0975,-7.1437,-7.2168,-7.2976,-4.6328,-4.6289,-4.6562,-4.7461,-4.7617,-4.7891,-4.8789,-4.9062,-4.9219,-4.9219,-4.9961,-5.0469,-5.0469,-5.1016,-5.1406,-5.1406,-5.1406,-5.1406,-5.1406,-5.1349,-5.1349,-5.1358,-5.0324,-4.8966,-4.7201,-4.7201,-4.7471,-4.8086,-4.8971,-4.974,-5.0394,-5.0587,-5.0702,-5.0702,-5.0702,-5.0702,-5.0702,-5.0702,-5.0702,-5.0702,-5.0702,-5.0702,-5.0702,-5.0702,-5.0702,-5.0702,-5.0702,-5.0702,-5.0702,-5.0702,-5.0702,-5.0702,-5.0702,-5.0702,-5.0702,-5.0702,-5.0818,-5.0971,-5.0971,-5.0971,-5.101,-5.1241,-5.1279,-5.1433,-5.2049,-5.2202,-5.2395,-5.3049,-5.2664,-5.199,-5.1393,-5.1259,-5.1732,-5.3069,-5.3014,-5.3139,-5.4025,-5.3361,-5.2737,-5.2539,-5.2318,-5.2279,-5.2472,-5.3126,-5.3587,-5.378,-5.3972,-5.4395,-5.5049,-5.5857,-5.7011,-5.855,-5.9358,-6.0127,-6.0781,-6.0781,-6.1243,-6.2089,-6.2281,-6.3051,-6.432,-6.4705,-6.5282,-6.5897,-6.5897,-6.6551,-6.7577,-6.7436,-6.8167,-6.936,-6.9821,-7.0475,-7.1283,-7.1937,-7.286,-7.3745,-4.6445,-4.6289,-4.6562,-4.7461,-4.7617,-4.7891,-4.8789,-4.9609,-5.0117,-5.0117,-5.082,-5.1328,-5.1328,-5.1367,-5.1406,-5.1406,-5.1406,-5.1406,-5.1406,-5.1264,-5.12,-5.1202,-5.02,-4.9103,-4.8048,-4.8009,-4.8048,-4.8086,-4.8971,-4.9433,-4.951,-5.0317,-5.0702,-5.0702,-5.0702,-5.0702,-5.0702,-5.0702,-5.0702,-5.0702,-5.0702,-5.0702,-5.0702,-5.0702,-5.0702,-5.0702,-5.0702,-5.0702,-5.0702,-5.0702,-5.0702,-5.0702,-5.0702,-5.0702,-5.0702,-5.0702,-5.1241,-5.1818,-5.1818,-5.1818,-5.201,-5.2818,-5.301,-5.3049,-5.3087,-5.3087,-5.3126,-5.3203,-5.3164,-5.3087,-5.3049,-5.301,-5.336,-5.4476,-5.4486,-5.4448,-5.4676,-5.4534,-5.4039,-5.3234,-5.3105,-5.3433,-5.4241,-5.4357,-5.4703,-5.5472,-5.6242,-5.6742,-5.6819,-5.7627,-5.8511,-5.9396,-6.0242,-6.0742,-6.0781,-6.0781,-6.1243,-6.2089,-6.2858,-6.3705,-6.4589,-6.5436,-6.582,-6.5897,-6.5897,-6.6551,-6.7654,-6.809,-6.8859,-6.9744,-7.0514,-7.1321,-7.2091,-7.2168,-7.3206,-7.4514,-4.707,-4.7109,-4.7539,-4.8984,-4.8789,-4.8867,-5.0234,-5.0312,-5.0391,-5.0898,-5.1211,-5.1406,-5.1406,-5.1406,-5.1406,-5.1406,-5.1406,-5.1343,-5.1292,-5.1228,-5.1145,-5.1029,-5.0106,-4.9375,-4.8933,-4.8894,-4.8894,-4.8894,-4.9779,-5.0202,-5.0202,-5.0548,-5.0702,-5.0702,-5.0702,-5.0702,-5.0702,-5.0702,-5.0702,-5.0702,-5.0702,-5.0702,-5.0702,-5.0702,-5.0702,-5.0702,-5.0702,-5.0702,-5.0702,-5.0702,-5.0702,-5.0702,-5.0702,-5.0702,-5.0779,-5.1318,-5.2049,-5.2818,-5.3356,-5.3126,-5.2779,-5.3126,-5.3203,-5.3356,-5.3895,-5.401,-5.4164,-5.4664,-5.4357,-5.401,-5.401,-5.3549,-5.3705,-5.5275,-5.4511,-5.4153,-5.5437,-5.4473,-5.3705,-5.3703,-5.3857,-5.4126,-5.4472,-5.4934,-5.5588,-5.6434,-5.6819,-5.7242,-5.778,-5.8588,-5.9435,-6.0281,-6.0627,-6.105,-6.1589,-6.1589,-6.2281,-6.3666,-6.3974,-6.4551,-6.5436,-6.6282,-6.6628,-6.6667,-6.7205,-6.8013,-6.8898,-6.9129,-7.009,-7.1514,-7.1629,-7.2437,-7.3514,-7.3707,-7.4168,-7.4745,-4.7539,-4.7812,-4.8398,-4.957,-4.9531,-4.9687,-5.0859,-5.0781,-5.0781,-5.1328,-5.1406,-5.1484,-5.1797,-5.1797,-5.1914,-5.2187,-5.2238,-5.2028,-5.1626,-5.1299,-5.1029,-5.0914,-5.0298,-4.9759,-4.9394,-4.9394,-4.9279,-4.8971,-4.9856,-5.0279,-5.0279,-5.0548,-5.0702,-5.0702,-5.0702,-5.0702,-5.0702,-5.0702,-5.0702,-5.0702,-5.0702,-5.0702,-5.0702,-5.0702,-5.0702,-5.0702,-5.0702,-5.0702,-5.0702,-5.0702,-5.0702,-5.0741,-5.101,-5.1241,-5.1587,-5.2164,-5.2933,-5.3741,-5.4357,-5.4241,-5.3972,-5.3972,-5.3972,-5.4126,-5.4741,-5.4895,-5.5011,-5.5588,-5.5241,-5.4895,-5.4895,-5.4395,-5.4309,-5.5377,-5.468,-5.4348,-5.5453,-5.468,-5.4147,-5.4493,-5.4972,-5.528,-5.528,-5.6011,-5.6742,-5.7357,-5.7627,-5.8165,-5.905,-5.9627,-6.0165,-6.0781,-6.0781,-6.132,-6.2474,-6.2204,-6.2935,-6.4589,-6.4589,-6.5051,-6.5936,-6.6744,-6.709,-6.7128,-6.8013,-6.8898,-6.9706,-6.9706,-7.0629,-7.2052,-7.2168,-7.2937,-7.4091,-7.4553,-7.4861,-7.5207,-4.7773,-4.832,-4.8906,-4.8906,-4.9648,-5.0195,-5.0195,-5.0898,-5.1406,-5.1406,-5.1406,-5.1758,-5.2617,-5.2695,-5.3047,-5.3906,-5.3985,-5.3572,-5.257,-5.1511,-5.0914,-5.0914,-5.0779,-5.0279,-4.9433,-4.9394,-4.8971,-4.8125,-4.8971,-4.9394,-4.9433,-5.0279,-5.0702,-5.0702,-5.0702,-5.0702,-5.0702,-5.0702,-5.0702,-5.0702,-5.0702,-5.0702,-5.0702,-5.0702,-5.0702,-5.0702,-5.0702,-5.0702,-5.0702,-5.0702,-5.0702,-5.0856,-5.1664,-5.251,-5.3203,-5.3203,-5.3818,-5.4511,-5.4511,-5.5088,-5.5703,-5.5703,-5.5703,-5.5703,-5.5703,-5.5703,-5.5703,-5.5703,-5.5703,-5.5703,-5.5703,-5.5703,-5.5472,-5.4664,-5.5186,-5.5416,-5.4626,-5.5186,-5.5686,-5.5703,-5.6472,-5.6973,-5.7011,-5.778,-5.8319,-5.8319,-5.905,-5.9896,-6.0742,-6.0781,-6.0781,-6.0781,-6.0819,-6.1627,-6.3281,-6.2512,-6.2935,-6.4628,-6.4628,-6.5051,-6.5936,-6.6744,-6.709,-6.7167,-6.8052,-6.8898,-6.9706,-6.9706,-7.0206,-7.1014,-7.186,-7.2745,-7.363,-7.4437,-7.5245,-7.6015,-4.9375,-4.9648,-5.0,-5.0547,-5.0859,-5.1055,-5.1055,-5.125,-5.1406,-5.1406,-5.1914,-5.2422,-5.2656,-5.3242,-5.3711,-5.3984,-5.4009,-5.3538,-5.2435,-5.2453,-5.2241,-5.1625,-5.101,-5.0587,-5.0317,-5.0317,-5.0164,-4.9933,-5.0164,-5.0317,-5.0317,-5.0587,-5.0702,-5.0702,-5.0702,-5.0702,-5.0702,-5.0702,-5.101,-5.1548,-5.1548,-5.1548,-5.1548,-5.1548,-5.1202,-5.0702,-5.0702,-5.1048,-5.1548,-5.1548,-5.1933,-5.251,-5.2741,-5.3395,-5.4126,-5.4126,-5.4703,-5.5318,-5.5318,-5.5511,-5.5703,-5.5703,-5.5703,-5.5703,-5.5703,-5.5703,-5.5703,-5.5703,-5.6203,-5.6588,-5.6588,-5.7126,-5.7242,-5.6395,-5.6456,-5.6302,-5.5472,-5.5549,-5.5994,-5.6802,-5.6956,-5.7242,-5.7857,-5.8165,-5.855,-5.9088,-5.9935,-6.0512,-6.0781,-6.0781,-6.0781,-6.0781,-6.1396,-6.2204,-6.3281,-6.3051,-6.382,-6.5513,-6.5513,-6.5936,-6.6782,-6.7628,-6.8359,-6.8975,-6.9783,-7.0283,-7.0552,-7.0552,-7.1398,-7.2745,-7.3014,-7.3976,-7.5284,-7.5515,-7.5784,-7.6015,-5.0117,-5.0469,-5.082,-5.1328,-5.1406,-5.1406,-5.1406,-5.1406,-5.1406,-5.1406,-5.1875,-5.2539,-5.3476,-5.4023,-5.4521,-5.4999,-5.4616,-5.3883,-5.282,-5.3031,-5.2818,-5.1933,-5.1779,-5.1702,-5.1702,-5.1356,-5.1356,-5.1702,-5.1356,-5.1356,-5.1702,-5.1702,-5.1702,-5.1702,-5.1702,-5.1702,-5.1702,-5.1702,-5.1972,-5.2433,-5.2433,-5.2433,-5.2433,-5.2433,-5.2125,-5.1702,-5.1702,-5.201,-5.2433,-5.2433,-5.301,-5.3703,-5.3703,-5.428,-5.4972,-5.4972,-5.5318,-5.5703,-5.5703,-5.5703,-5.578,-5.6126,-5.6203,-5.628,-5.6665,-5.6742,-5.6742,-5.6742,-5.7165,-5.7511,-5.7511,-5.7934,-5.8127,-5.7588,-5.7511,-5.7319,-5.678,-5.6742,-5.6973,-5.7665,-5.7896,-5.8204,-5.8704,-5.9088,-5.9473,-5.9973,-6.0512,-6.0781,-6.0781,-6.1127,-6.132,-6.132,-6.2127,-6.2974,-6.382,-6.382,-6.4512,-6.5897,-6.5897,-6.632,-6.7128,-6.8013,-6.8898,-6.9744,-7.0552,-7.1091,-7.1398,-7.1052,-7.1937,-7.3514,-7.3514,-7.4322,-7.5515,-7.5861,-7.6015,-7.6015,-5.0312,-5.0898,-5.1406,-5.1406,-5.1406,-5.1406,-5.1406,-5.1484,-5.1523,-5.1562,-5.168,-5.2578,-5.4681,-5.4993,-5.545,-5.6501,-5.5606,-5.458,-5.3571,-5.3454,-5.3049,-5.2164,-5.2972,-5.3433,-5.3433,-5.251,-5.2433,-5.3203,-5.2433,-5.2433,-5.3203,-5.3203,-5.3203,-5.3203,-5.3203,-5.3203,-5.3203,-5.3203,-5.3241,-5.3318,-5.3318,-5.3318,-5.3318,-5.3318,-5.328,-5.3203,-5.3203,-5.3241,-5.3318,-5.3395,-5.3933,-5.4626,-5.4626,-5.5126,-5.5703,-5.578,-5.5818,-5.5818,-5.5895,-5.5934,-5.6126,-5.7011,-5.7203,-5.7396,-5.8127,-5.8319,-5.8319,-5.8319,-5.8357,-5.8396,-5.8396,-5.8473,-5.8511,-5.8434,-5.8396,-5.8396,-5.8319,-5.8319,-5.8319,-5.8396,-5.905,-5.9511,-5.9627,-6.0319,-6.0781,-6.0781,-6.0781,-6.0781,-6.0781,-6.1627,-6.2089,-6.2089,-6.2974,-6.382,-6.4589,-6.4743,-6.5205,-6.6013,-6.6013,-6.6474,-6.7359,-6.8167,-6.9013,-6.986,-7.0591,-7.1398,-7.2129,-7.1321,-7.2052,-7.363,-7.363,-7.4091,-7.4899,-7.5707,-7.6015,-7.6015,-5.1133,-5.1289,-5.1406,-5.1406,-5.1406,-5.1406,-5.1406,-5.1992,-5.25,-5.2773,-5.3789,-5.4654,-5.5165,-5.5719,-5.6152,-5.64,-5.5981,-5.5345,-5.4475,-5.4878,-5.478,-5.3972,-5.4703,-5.5164,-5.5164,-5.3703,-5.301,-5.3203,-5.301,-5.301,-5.3203,-5.3203,-5.3203,-5.3203,-5.3203,-5.3203,-5.3203,-5.3203,-5.3587,-5.4203,-5.4203,-5.4203,-5.4203,-5.4203,-5.378,-5.3203,-5.3203,-5.3626,-5.4318,-5.4934,-5.528,-5.5434,-5.5434,-5.5549,-5.5818,-5.6511,-5.6703,-5.6857,-5.755,-5.7742,-5.7934,-5.8742,-5.8973,-5.8858,-5.8396,-5.8319,-5.8319,-5.8319,-5.8819,-5.9242,-5.9242,-5.9781,-6.0012,-5.9358,-5.9242,-5.9011,-5.8396,-5.8319,-5.855,-5.9165,-5.9396,-5.9781,-6.0435,-6.0704,-6.0781,-6.0781,-6.0781,-6.0781,-6.0781,-6.1627,-6.2089,-6.2089,-6.3551,-6.4397,-6.4589,-6.5897,-6.6628,-6.6821,-6.6821,-6.7628,-6.9129,-6.9321,-6.986,-7.0667,-7.0821,-7.1398,-7.2168,-7.2014,-7.2899,-7.4437,-7.4437,-7.4976,-7.5745,-7.5938,-7.6015,-7.6207,-5.1406,-5.1406,-5.1406,-5.1406,-5.1406,-5.1523,-5.1953,-5.2422,-5.3008,-5.3906,-5.4648,-5.5332,-5.5865,-5.6186,-5.6302,-5.6186,-5.5994,-5.5532,-5.4685,-5.528,-5.5318,-5.4549,-5.528,-5.5703,-5.5703,-5.4857,-5.4395,-5.4395,-5.401,-5.401,-5.4395,-5.4395,-5.4395,-5.4395,-5.4395,-5.4395,-5.4395,-5.4395,-5.4664,-5.5049,-5.5049,-5.5049,-5.5049,-5.5049,-5.478,-5.4395,-5.4395,-5.4703,-5.5126,-5.5549,-5.5972,-5.6242,-5.5818,-5.628,-5.6934,-5.6973,-5.728,-5.7703,-5.8165,-5.8319,-5.8511,-5.9319,-5.9511,-5.9511,-5.9473,-5.9473,-5.9473,-5.9473,-5.9819,-6.0127,-6.0127,-6.0473,-6.0666,-6.0204,-6.0127,-5.9973,-5.955,-5.9473,-5.9665,-6.0089,-6.0127,-6.0281,-6.0742,-6.0781,-6.0973,-6.1396,-6.1396,-6.1589,-6.1973,-6.282,-6.3281,-6.3281,-6.4551,-6.5205,-6.5205,-6.6474,-6.7321,-6.7705,-6.7705,-6.8436,-6.9706,-6.9706,-7.0129,-7.0937,-7.1321,-7.2014,-7.2822,-7.2822,-7.3822,-7.5284,-7.4861,-7.5245,-7.6015,-7.6015,-7.6015,-7.6245,-5.1406,-5.1406,-5.1406,-5.1406,-5.1406,-5.1641,-5.2383,-5.2734,-5.3476,-5.5,-5.5195,-5.5548,-5.6488,-5.6405,-5.6186,-5.5895,-5.5857,-5.5549,-5.4741,-5.5318,-5.5395,-5.4741,-5.5318,-5.5703,-5.5703,-5.5703,-5.5703,-5.5703,-5.5011,-5.5049,-5.5703,-5.5703,-5.5703,-5.5703,-5.5703,-5.5703,-5.5703,-5.5703,-5.5703,-5.5703,-5.5703,-5.5703,-5.5703,-5.5703,-5.5703,-5.5703,-5.5703,-5.5703,-5.5703,-5.5857,-5.6395,-5.6896,-5.6319,-5.7126,-5.8204,-5.7588,-5.7934,-5.855,-5.8704,-5.8742,-5.8896,-5.955,-5.9704,-5.9896,-6.0627,-6.0781,-6.0781,-6.0781,-6.0781,-6.0781,-6.0781,-6.0781,-6.0781,-6.0781,-6.0781,-6.0781,-6.0781,-6.0781,-6.0781,-6.0781,-6.0781,-6.0781,-6.0781,-6.0935,-6.132,-6.205,-6.2204,-6.2589,-6.3281,-6.4128,-6.4589,-6.4589,-6.5436,-6.5897,-6.5897,-6.6859,-6.7667,-6.8398,-6.8706,-6.9206,-6.9898,-6.9898,-7.0283,-7.0937,-7.1668,-7.2552,-7.3514,-7.3591,-7.4591,-7.5938,-7.5207,-7.5361,-7.6015,-7.6015,-7.6015,-7.6245,-5.1406,-5.1406,-5.1406,-5.1406,-5.1406,-5.1445,-5.1562,-5.2851,-5.4453,-5.6133,-5.6367,-5.6444,-5.6588,-5.6354,-5.6071,-5.5742,-5.5742,-5.5665,-5.5549,-5.5626,-5.5665,-5.5549,-5.5626,-5.5703,-5.5703,-5.5703,-5.5703,-5.5703,-5.5588,-5.5588,-5.5703,-5.5703,-5.5703,-5.5703,-5.5703,-5.5703,-5.5703,-5.5703,-5.5703,-5.5703,-5.5703,-5.5703,-5.5703,-5.5703,-5.5703,-5.5703,-5.5703,-5.5703,-5.5818,-5.6549,-5.6896,-5.7088,-5.7742,-5.8127,-5.8396,-5.8973,-5.9242,-5.9511,-6.0242,-6.0473,-6.0473,-6.0589,-6.0627,-6.0666,-6.0781,-6.0781,-6.0781,-6.0781,-6.0781,-6.0781,-6.0781,-6.0781,-6.0781,-6.0781,-6.0781,-6.0781,-6.0781,-6.0781,-6.0781,-6.0781,-6.0781,-6.0781,-6.0781,-6.1473,-6.1973,-6.2089,-6.2743,-6.3205,-6.3281,-6.4128,-6.4589,-6.4589,-6.5436,-6.5897,-6.5897,-6.7436,-6.8282,-6.8436,-6.986,-7.0629,-7.0744,-7.0744,-7.0783,-7.0898,-7.1025,-7.1986,-7.3553,-7.4014,-7.4938,-7.5976,-7.5861,-7.5899,-7.6015,-7.6015,-7.6015,-7.6245,-5.1406,-5.1406,-5.1406,-5.1406,-5.1406,-5.1719,-5.2695,-5.3516,-5.4297,-5.5039,-5.6015,-5.6585,-5.6609,-5.6381,-5.6071,-5.5742,-5.5703,-5.5703,-5.5703,-5.5703,-5.5703,-5.5703,-5.5703,-5.5703,-5.5703,-5.5703,-5.5703,-5.5703,-5.5703,-5.5703,-5.5703,-5.5703,-5.5703,-5.5703,-5.5703,-5.5703,-5.5703,-5.5703,-5.5703,-5.5703,-5.5703,-5.5703,-5.5703,-5.5703,-5.5703,-5.578,-5.6434,-5.6857,-5.7203,-5.7588,-5.8011,-5.8396,-5.8319,-5.8934,-5.9665,-5.955,-5.9858,-6.0319,-6.0704,-6.0781,-6.0781,-6.0781,-6.0781,-6.0781,-6.0781,-6.0781,-6.0781,-6.0781,-6.0781,-6.0781,-6.0781,-6.0781,-6.0781,-6.0781,-6.0781,-6.0781,-6.0781,-6.0781,-6.0781,-6.0781,-6.0781,-6.0781,-6.0781,-6.1589,-6.2281,-6.2743,-6.3551,-6.4243,-6.4743,-6.5128,-6.532,-6.532,-6.5705,-6.5897,-6.5897,-6.7552,-6.8398,-6.8436,-7.009,-7.0898,-7.0898,-7.0898,-7.0898,-7.0937,-7.1937,-7.2794,-7.3591,-7.4784,-7.5553,-7.6015,-7.6015,-7.6015,-7.6015,-7.6015,-7.6015,-7.6092]}]]